[[{"header":{"parameterUnit":"m.s-1","parameterCategory":1,"la1":30.6,"la2":28.766,"lo1":-90.7593,"lo2":-88.6598,"dx":0.0162,"dy":0.0183,"nx":116,"ny":114,"refTime":"2022-11-20T18:00:00:Z","depth":0,"parameterNumber":2,"parameterNumberName":"U-component_of_WINDS"},"data":[0.0,0.0,0.0,0.0,0.0,0.0,0.0,0.0,0.0,0.0,0.0,0.0,0.0,0.0,0.0,0.0,0.0,0.0,0.0,0.0,0.0,0.0,0.0,0.0,0.0,0.0,0.0,0.0,0.0,0.0,0.0,0.0,0.0,0.0,0.0,0.0,0.0,0.0,0.0,0.0,0.0,0.0,0.0,0.0,0.0,0.0,0.0,0.0,0.0,0.0,0.0,0.0,0.0,0.0,0.0,0.0,0.0,0.0,0.0,0.0,0.0,0.0,0.0,0.0,0.0,0.0,0.0,0.0,0.0,0.0,0.0,0.0,0.0,0.0,0.0,0.0,0.0,0.0,0.0,0.0,0.0,0.0,0.0,0.0,0.0,0.0,0.0,0.0,0.0,0.0,0.0,0.0,0.0,0.0,0.0,0.0,0.0,0.0,0.0,0.0,0.0,0.0,0.0,0.0,0.0,0.0,0.0,0.0,0.0,0.0,0.0,0.0,0.0,0.0,0.0,0.0,0.0,0.0,0.0,0.0,0.0,0.0,0.0,0.0,0.0,0.0,0.0,0.0,0.0,0.0,0.0,0.0,0.0,0.0,0.0,0.0,0.0,0.0,0.0,0.0,0.0,0.0,0.0,0.0,0.0,0.0,0.0,0.0,0.0,0.0,0.0,0.0,0.0,0.0,0.0,0.0,0.0,0.0,0.0,0.0,0.0,0.0,0.0,0.0,0.0,0.0,0.0,0.0,0.0,0.0,0.0,0.0,0.0,0.0,0.0,0.0,0.0,0.0,0.0,0.0,0.0,0.0,0.0,0.0,0.0,0.0,0.0,0.0,0.0,0.0,0.0,0.0,0.0,0.0,0.0,0.0,0.0,0.0,0.0,0.0,0.0,0.0,0.0,0.0,0.0,0.0,0.0,0.0,0.0,0.0,0.0,0.0,0.0,0.0,0.0,0.0,0.0,0.0,0.0,0.0,0.0,0.0,0.0,0.0,0.0,0.0,0.0,0.0,0.0,0.0,0.0,0.0,0.0,0.0,0.0,0.0,0.0,0.0,0.0,0.0,0.0,0.0,0.0,0.0,0.0,0.0,0.0,0.0,0.0,0.0,0.0,0.0,0.0,0.0,0.0,0.0,0.0,0.0,0.0,0.0,0.0,0.0,0.0,0.0,0.0,0.0,0.0,0.0,0.0,0.0,0.0,0.0,0.0,0.0,0.0,0.0,0.0,0.0,0.0,0.0,0.0,0.0,0.0,0.0,0.0,0.0,0.0,0.0,0.0,0.0,0.0,0.0,0.0,0.0,0.0,0.0,0.0,0.0,0.0,0.0,0.0,0.0,0.0,0.0,0.0,0.0,0.0,0.0,0.0,0.0,0.0,0.0,0.0,0.0,0.0,0.0,0.0,0.0,0.0,0.0,0.0,0.0,0.0,0.0,0.0,0.0,0.0,0.0,0.0,0.0,0.0,0.0,0.0,0.0,0.0,0.0,0.0,0.0,0.0,0.0,0.0,0.0,0.0,0.0,0.0,0.0,0.0,0.0,0.0,0.0,0.0,0.0,0.0,0.0,0.0,0.0,0.0,0.0,0.0,0.0,0.0,0.0,0.0,0.0,0.0,0.0,0.0,0.0,0.0,0.0,0.0,0.0,0.0,0.0,0.0,0.0,0.0,0.0,0.0,0.0,0.0,0.0,0.0,0.0,0.0,0.0,0.0,0.0,0.0,0.0,0.0,0.0,0.0,0.0,0.0,0.0,0.0,0.0,0.0,0.0,0.0,0.0,0.0,0.0,0.0,0.0,0.0,0.0,0.0,0.0,0.0,0.0,0.0,0.0,0.0,0.0,0.0,0.0,0.0,0.0,0.0,0.0,0.0,0.0,0.0,0.0,0.0,0.0,0.0,0.0,0.0,0.0,0.0,0.0,0.0,0.0,0.0,0.0,0.0,0.0,0.0,0.0,0.0,0.0,0.0,0.0,0.0,0.0,0.0,0.0,0.0,0.0,0.0,0.0,0.0,0.0,0.0,0.0,0.0,0.0,0.0,0.0,0.0,0.0,0.0,0.0,0.0,0.0,0.0,0.0,0.0,0.0,0.0,0.0,0.0,0.0,0.0,0.0,0.0,0.0,0.0,0.0,0.0,0.0,0.0,0.0,0.0,0.0,0.0,0.0,0.0,0.0,0.0,0.0,0.0,0.0,0.0,0.0,0.0,0.0,0.0,0.0,0.0,0.0,0.0,0.0,0.0,0.0,0.0,0.0,0.0,0.0,0.0,0.0,0.0,0.0,0.0,0.0,0.0,0.0,0.0,0.0,0.0,0.0,0.0,0.0,0.0,0.0,0.0,0.0,0.0,0.0,0.0,0.0,0.0,0.0,0.0,0.0,0.0,0.0,0.0,0.0,0.0,0.0,0.0,0.0,0.0,0.0,0.0,0.0,0.0,0.0,0.0,0.0,0.0,0.0,0.0,0.0,0.0,0.0,0.0,0.0,0.0,0.0,0.0,0.0,0.0,0.0,0.0,0.0,0.0,0.0,0.0,0.0,0.0,0.0,0.0,0.0,0.0,0.0,0.0,0.0,0.0,0.0,0.0,0.0,0.0,0.0,0.0,0.0,0.0,0.0,0.0,0.0,0.0,0.0,0.0,0.0,0.0,0.0,0.0,0.0,0.0,0.0,0.0,0.0,0.0,0.0,0.0,0.0,0.0,0.0,0.0,0.0,0.0,0.0,0.0,0.0,0.0,0.0,0.0,0.0,0.0,0.0,0.0,0.0,0.0,0.0,0.0,0.0,0.0,0.0,0.0,0.0,0.0,0.0,0.0,0.0,0.0,0.0,0.0,0.0,0.0,0.0,0.0,0.0,0.0,0.0,0.0,0.0,0.0,0.0,0.0,0.0,0.0,0.0,0.0,0.0,0.0,0.0,0.0,0.0,0.0,0.0,0.0,0.0,0.0,0.0,0.0,0.0,0.0,0.0,0.0,0.0,0.0,0.0,0.0,0.0,0.0,0.0,0.0,0.0,0.0,0.0,0.0,0.0,0.0,0.0,0.0,0.0,0.0,0.0,0.0,0.0,0.0,0.0,0.0,0.0,0.0,0.0,0.0,0.0,0.0,0.0,0.0,0.0,0.0,0.0,0.0,0.0,0.0,0.0,0.0,0.0,0.0,0.0,0.0,0.0,0.0,0.0,0.0,0.0,0.0,0.0,0.0,0.0,0.0,0.0,0.0,0.0,0.0,0.0,0.0,0.0,0.0,0.0,0.0,0.0,0.0,0.0,0.0,0.0,0.0,0.0,0.0,0.0,0.0,0.0,0.0,0.0,0.0,0.0,0.0,0.0,0.0,0.0,0.0,0.0,0.0,0.0,0.0,0.0,0.0,0.0,0.0,0.0,0.0,0.0,0.0,0.0,0.0,0.0,0.0,0.0,0.0,0.0,0.0,0.0,0.0,0.0,0.0,0.0,0.0,0.0,0.0,0.0,0.0,0.0,0.0,0.0,0.0,0.0,0.0,0.0,0.0,0.0,0.0,0.0,0.0,0.0,0.0,0.0,0.0,0.0,0.0,0.0,0.0,0.0,0.0,0.0,0.0,0.0,0.0,0.0,0.0,0.0,0.0,0.0,0.0,0.0,0.0,0.0,0.0,0.0,0.0,0.0,0.0,0.0,0.0,0.0,0.0,0.0,0.0,0.0,0.0,0.0,0.0,0.0,0.0,0.0,0.0,0.0,0.0,0.0,0.0,0.0,0.0,0.0,0.0,0.0,0.0,0.0,0.0,0.0,0.0,0.0,0.0,0.0,0.0,0.0,0.0,0.0,0.0,0.0,0.0,0.0,0.0,0.0,0.0,0.0,0.0,0.0,0.0,0.0,0.0,0.0,0.0,0.0,0.0,0.0,0.0,0.0,0.0,0.0,0.0,0.0,0.0,0.0,0.0,0.0,0.0,0.0,0.0,0.0,0.0,0.0,0.0,0.0,0.0,0.0,0.0,0.0,0.0,0.0,0.0,0.0,0.0,0.0,0.0,0.0,0.0,0.0,0.0,0.0,0.0,0.0,0.0,0.0,0.0,0.0,0.0,0.0,0.0,0.0,0.0,0.0,0.0,0.0,0.0,0.0,0.0,0.0,0.0,0.0,0.0,0.0,0.0,0.0,0.0,0.0,0.0,0.0,0.0,0.0,0.0,0.0,0.0,0.0,0.0,0.0,0.0,0.0,0.0,0.0,0.0,0.0,0.0,0.0,0.0,0.0,0.0,0.0,0.0,0.0,0.0,0.0,0.0,0.0,0.0,0.0,0.0,0.0,0.0,0.0,0.0,0.0,0.0,0.0,0.0,0.0,0.0,0.0,0.0,0.0,0.0,0.0,0.0,0.0,0.0,0.0,0.0,0.0,0.0,0.0,0.0,0.0,0.0,0.0,0.0,0.0,0.0,0.0,0.0,0.0,0.0,0.0,0.0,0.0,0.0,0.0,0.0,0.0,0.0,0.0,0.0,0.0,0.0,0.0,0.0,0.0,0.0,0.0,0.0,0.0,0.0,0.0,0.0,0.0,0.0,0.0,0.0,0.0,0.0,0.0,0.0,0.0,0.0,0.0,0.0,0.0,0.0,0.0,0.0,0.0,0.0,0.0,0.0,0.0,0.0,0.0,0.0,0.0,0.0,0.0,0.0,0.0,0.0,0.0,0.0,0.0,0.0,0.0,0.0,0.0,0.0,0.0,0.0,0.0,0.0,0.0,0.0,0.0,0.0,0.0,0.0,0.0,0.0,0.0,0.0,0.0,0.0,0.0,0.0,0.0,0.0,0.0,0.0,0.0,0.0,0.0,0.0,0.0,0.0,0.0,0.0,0.0,0.0,0.0,0.0,0.0,0.0,0.0,0.0,0.0,0.0,0.0,0.0,0.0,0.0,0.0,0.0,0.0,0.0,0.0,0.0,0.0,0.0,0.0,0.0,0.0,0.0,0.0,0.0,0.0,0.0,0.0,0.0,0.0,0.0,0.0,0.0,0.0,0.0,0.0,0.0,0.0,0.0,0.0,0.0,0.0,0.0,0.0,0.0,0.0,0.0,0.0,0.0,0.0,0.0,0.0,0.0,0.0,0.0,0.0,0.0,0.0,0.0,0.0,0.0,0.0,0.0,0.0,0.0,0.0,0.0,0.0,0.0,0.0,0.0,0.0,0.0,0.0,0.0,0.0,0.0,0.0,0.0,0.0,0.0,0.0,0.0,0.0,0.0,0.0,0.0,0.0,0.0,0.0,0.0,0.0,0.0,0.0,0.0,0.0,0.0,0.0,0.0,0.0,0.0,0.0,0.0,0.0,0.0,0.0,0.0,0.0,0.0,0.0,0.0,0.0,0.0,0.0,0.0,0.0,0.0,0.0,0.0,0.0,0.0,0.0,0.0,0.0,0.0,0.0,0.0,0.0,0.0,0.0,0.0,0.0,0.0,0.0,0.0,0.0,0.0,0.0,0.0,0.0,0.0,0.0,0.0,0.0,0.0,0.0,0.0,0.0,0.0,0.0,0.0,0.0,0.0,0.0,0.0,0.0,0.0,0.0,0.0,0.0,0.0,0.0,0.0,0.0,0.0,0.0,0.0,0.0,0.0,0.0,0.0,0.0,0.0,0.0,0.0,0.0,0.0,0.0,0.0,0.0,0.0,0.0,0.0,0.0,0.0,0.0,0.0,0.0,0.0,0.0,0.0,0.0,0.0,0.0,0.0,0.0,0.0,0.0,0.0,0.0,0.0,0.0,0.0,0.0,0.0,0.0,0.0,0.0,0.0,0.0,0.0,0.0,0.0,0.0,0.0,0.0,0.0,0.0,0.0,0.0,0.0,0.0,0.0,0.0,0.0,0.0,0.0,0.0,0.0,0.0,0.0,0.0,0.0,0.0,0.0,0.0,0.0,0.0,0.0,0.0,0.0,0.0,0.0,0.0,0.0,0.0,0.0,0.0,0.0,0.0,0.0,0.0,0.0,0.0,0.0,0.0,0.0,0.0,0.0,0.0,0.0,0.0,0.0,0.0,0.0,0.0,0.0,0.0,0.0,0.0,0.0,0.0,0.0,0.0,0.0,0.0,0.0,0.0,0.0,0.0,0.0,0.0,3.7182,3.2513,0.0,0.0,0.0,0.0,0.0,0.0,0.0,0.0,0.0,0.0,0.0,0.0,0.0,0.0,0.0,0.0,0.0,0.0,0.0,0.0,0.0,0.0,0.0,1.2099,1.2407,1.2647,1.2693,0.0,0.0,0.0,0.0,0.0,0.0,0.0,1.4245,1.4632,1.5301,1.6232,1.8347,2.1764,2.6268,2.4479,2.2278,1.9752,0.0,0.0,0.0,0.0,0.0,0.0,0.0,0.0,0.0,0.0,0.0,0.0,0.0,0.0,0.0,0.0,0.0,0.0,0.0,0.0,0.0,0.0,0.0,0.0,0.0,0.0,0.0,0.0,0.0,0.0,0.0,0.0,0.0,0.0,0.0,0.0,0.0,0.0,0.0,0.0,0.0,0.0,0.0,0.0,0.0,0.0,0.0,0.0,0.0,0.0,0.0,0.0,0.0,0.0,0.0,0.0,0.0,0.0,0.0,0.0,0.0,0.0,0.0,0.0,0.0,0.0,0.0,0.0,0.0,0.0,4.1586,3.8489,0.0,0.0,0.0,0.0,0.0,0.0,0.0,0.0,0.0,0.0,0.0,0.0,0.0,0.0,0.0,0.0,0.0,0.0,0.0,0.0,0.0,1.2715,1.2793,1.3443,1.4035,1.4344,1.4438,1.4538,1.4728,1.4741,0.0,0.0,0.0,0.0,1.5705,1.6537,1.7394,1.831,2.3438,2.8173,3.2409,3.3334,3.1101,2.614,2.167,0.0,0.0,0.0,0.0,0.0,0.0,0.0,0.0,0.0,0.0,0.0,0.0,0.0,0.0,0.0,0.0,0.0,0.0,0.0,0.0,0.0,0.0,0.0,0.0,0.0,0.0,0.0,0.0,0.0,0.0,0.0,0.0,0.0,0.0,0.0,0.0,0.0,0.0,0.0,0.0,0.0,0.0,0.0,0.0,0.0,0.0,0.0,0.0,0.0,0.0,0.0,0.0,0.0,0.0,0.0,0.0,0.0,0.0,0.0,0.0,0.0,0.0,0.0,4.5033,4.5791,4.5936,4.6008,4.7561,4.9932,4.645,4.5502,4.6007,4.081,0.0,0.0,0.0,0.0,0.0,0.0,0.0,0.0,0.0,0.0,0.0,0.0,0.0,0.0,0.0,0.0,0.0,0.0,0.0,1.4226,1.4297,1.507,1.5662,1.5901,1.6082,1.6222,1.6371,1.6385,0.0,0.0,0.0,1.653,1.653,1.7495,1.9767,2.3417,3.2335,3.7129,3.7964,3.886,3.8822,3.7811,3.1782,2.7855,2.5597,0.0,0.0,0.0,0.0,0.0,0.0,0.0,0.0,0.0,0.0,0.0,0.0,0.0,0.0,0.0,0.0,0.0,0.0,0.0,0.0,0.0,0.0,0.0,0.0,0.0,0.0,0.0,0.0,0.0,0.0,0.0,0.0,0.0,0.0,0.0,0.0,0.0,0.0,0.0,0.0,0.0,3.4343,3.5337,0.0,0.0,0.0,0.0,0.0,0.0,0.0,0.0,0.0,0.0,0.0,0.0,0.0,4.2986,4.3927,4.655,4.8232,4.9013,5.2177,5.4095,5.4835,5.5537,5.5732,5.5498,5.5606,0.0,4.8088,4.7289,0.0,0.0,0.0,0.0,0.0,0.0,0.0,0.0,0.0,0.0,0.0,0.0,0.0,0.0,0.0,0.0,0.0,0.0,0.0,0.0,0.0,1.8458,1.9553,2.1476,2.1882,2.1222,1.9416,1.9411,0.0,0.0,1.7799,1.8286,1.8786,2.205,2.7099,3.3904,3.8649,4.1968,4.3978,4.4815,4.493,4.4378,4.1642,3.6863,3.0835,3.0045,0.0,0.0,0.0,0.0,0.0,0.0,0.0,0.0,0.0,0.0,0.0,0.0,0.0,0.0,0.0,0.0,0.0,0.0,0.0,0.0,0.0,0.0,0.0,0.0,0.0,0.0,0.0,0.0,0.0,0.0,0.0,0.0,0.0,0.0,0.0,0.0,0.0,0.0,0.0,3.1214,3.4048,3.5556,3.4683,3.3604,0.0,0.0,0.0,0.0,0.0,0.0,0.0,0.0,0.0,4.7187,4.7457,4.8761,5.1239,5.2894,5.4168,5.5138,5.7173,5.8577,5.9373,5.9732,5.9685,5.9386,5.9737,5.8355,5.5599,5.2124,4.9093,4.6474,0.0,0.0,0.0,0.0,4.5827,4.6733,0.0,0.0,0.0,0.0,0.0,0.0,0.0,0.0,0.0,0.0,0.0,0.0,2.0603,2.2059,2.3732,2.6043,2.6826,2.6027,2.3328,2.3712,2.3171,2.1277,2.1242,2.1843,2.3121,2.8532,3.486,4.2003,4.3967,4.626,4.877,4.9539,4.9616,4.9029,4.9052,4.4243,3.6153,3.5907,3.3401,2.9428,0.0,0.0,0.0,0.0,0.0,0.0,0.0,0.0,0.0,0.0,0.0,0.0,0.0,0.0,0.0,0.0,0.0,0.0,0.0,0.0,0.0,0.0,0.0,0.0,0.0,0.0,0.0,0.0,0.0,0.0,0.0,0.0,0.0,0.0,0.0,0.0,0.0,3.3412,3.5761,3.7239,3.7773,3.7299,0.0,0.0,0.0,0.0,0.0,0.0,4.5808,4.624,4.8145,5.1966,5.272,5.4552,5.7503,5.8243,5.9065,6.0013,6.0705,6.1485,6.2282,6.2251,6.2282,6.2249,6.2093,6.2015,6.1655,5.6768,5.4363,5.3574,5.1489,5.0248,4.9846,5.1385,5.2224,5.3241,0.0,0.0,0.0,0.0,0.0,0.0,0.0,0.0,0.0,0.0,0.0,2.1437,2.1625,2.5244,2.7504,2.7169,2.8644,2.9228,2.8297,2.9704,3.0503,3.0179,2.8252,2.8239,3.0509,3.6883,4.1382,4.3843,4.8686,5.1141,5.1332,5.2056,5.241,5.2372,5.245,4.8686,4.2277,4.132,3.8917,3.5306,3.033,0.0,0.0,0.0,0.0,0.0,0.0,0.0,0.0,0.0,0.0,0.0,0.0,0.0,0.0,0.0,0.0,0.0,0.0,0.0,0.0,0.0,0.0,0.0,0.0,0.0,0.0,0.0,0.0,0.0,0.0,0.0,0.0,0.0,0.0,0.0,0.0,0.0,0.0,4.3637,4.5132,0.0,0.0,0.0,0.0,4.3586,4.4586,4.6942,5.1086,5.2176,5.4669,5.9127,5.9338,5.9862,6.0939,6.1136,6.1654,6.2541,6.2703,6.324,6.4053,6.4053,6.4053,6.4053,6.3467,6.3187,6.3109,6.1729,5.9611,5.7231,5.7097,5.5458,5.3586,5.703,5.9377,6.1344,0.0,0.0,0.0,1.1472,1.1982,1.2632,1.3583,1.4174,1.517,1.7084,1.9889,2.2892,2.5988,2.9376,3.19,3.3131,3.4552,3.4431,3.2295,3.3876,3.3241,2.9528,3.1157,3.4311,3.8835,4.2535,4.613,4.9671,5.1967,5.2819,5.2285,5.3084,5.3133,5.2639,5.3236,5.1827,4.9034,4.8219,4.5582,4.1673,3.8681,3.485,0.0,0.0,0.0,0.0,0.0,0.0,0.0,0.0,0.0,0.0,0.0,0.0,0.0,0.0,0.0,0.0,0.0,0.0,0.0,0.0,0.0,0.0,0.0,0.0,0.0,0.0,0.0,0.0,0.0,0.0,0.0,0.0,0.0,0.0,0.0,0.0,0.0,4.3365,4.6075,0.0,4.5709,4.7236,4.8891,5.0253,5.2196,5.4435,5.6976,5.6957,5.8144,6.094,6.1656,6.2474,6.3514,6.4113,6.4691,6.5172,6.5202,6.5433,6.5907,6.6688,6.6915,6.6744,6.7017,6.7173,6.7134,6.6752,6.5371,6.3466,6.3475,6.289,6.218,6.346,6.4684,6.5978,0.0,0.0,0.0,1.2258,1.27,1.3362,1.4344,1.4697,1.5973,1.9018,2.1816,2.5066,2.9242,3.2805,3.5359,3.6363,3.8507,3.8683,3.6029,3.7347,3.6495,3.2492,3.546,3.9527,4.4417,4.6959,5.0152,5.4065,5.4867,5.5233,5.5206,5.5722,5.5665,5.5066,5.5427,5.5113,5.4237,5.3758,5.1282,4.7324,4.4052,4.0056,3.5491,0.0,0.0,0.0,0.0,0.0,0.0,0.0,0.0,0.0,0.0,0.0,0.0,0.0,0.0,0.0,0.0,0.0,0.0,0.0,0.0,0.0,0.0,0.0,0.0,0.0,0.0,0.0,0.0,0.0,0.0,0.0,0.0,0.0,0.0,4.3213,4.6605,4.4554,4.8334,5.0531,4.9096,5.2043,5.4485,5.5549,5.7739,5.9493,6.051,6.0456,6.0912,6.2142,6.3489,6.4624,6.5578,6.6358,6.7017,6.7564,6.7619,6.7771,6.8007,6.9146,6.9553,6.9458,6.9965,7.02,7.0278,7.0876,7.0564,6.9614,6.8522,6.8138,6.8105,6.8105,6.8463,6.9126,0.0,0.0,1.3258,1.2462,1.3531,1.4499,1.4546,1.5155,1.6836,2.0189,2.4362,2.8075,3.0935,3.5392,3.758,3.6361,4.0119,4.1643,3.9443,4.0199,4.0484,3.9826,4.1494,4.3906,4.7156,5.0372,5.3551,5.6702,5.7527,5.8664,6.0137,6.0083,6.002,5.9956,5.9323,5.8576,5.7701,5.7701,5.5798,5.2258,4.6228,4.3642,4.2335,0.0,0.0,0.0,0.0,0.0,0.0,0.0,0.0,0.0,0.0,0.0,0.0,0.0,0.0,0.0,0.0,0.0,0.0,0.0,0.0,0.0,0.0,0.0,0.0,0.0,0.0,0.0,0.0,0.0,0.0,0.0,0.0,0.0,4.4345,4.6111,4.7805,4.7967,5.2461,5.5161,5.4282,5.7111,5.9024,5.9083,6.0646,6.156,6.156,6.2633,6.3257,6.3271,6.5191,6.6574,6.7281,6.7862,6.8682,6.9678,6.9923,7.0153,7.0408,7.1355,7.1877,7.2032,7.2065,7.2104,7.2221,7.3861,7.4915,7.5188,7.2065,7.0855,7.0816,7.0771,7.0771,7.098,1.232,1.3342,1.4006,1.321,1.3922,1.4775,1.5356,1.5556,1.7637,2.3172,2.5734,2.8422,3.2088,3.599,3.8117,3.7619,4.0265,4.1142,3.9265,4.1216,4.2923,4.398,4.6022,4.8762,5.2284,5.5158,5.7552,5.9338,5.9606,6.0199,6.1103,6.105,6.1292,6.1766,6.2151,6.1506,6.014,6.014,5.8957,5.6776,5.3168,5.0269,4.7553,0.0,0.0,0.0,0.0,0.0,0.0,0.0,0.0,0.0,0.0,0.0,0.0,0.0,0.0,0.0,0.0,0.0,0.0,0.0,0.0,0.0,0.0,0.0,0.0,0.0,0.0,0.0,0.0,0.0,0.0,0.0,4.8715,5.182,4.944,5.1954,5.4078,5.4129,5.642,5.8176,5.8501,5.9892,6.0943,6.1482,6.2547,6.3155,6.3155,6.529,6.6254,6.5605,6.8714,7.0172,6.9721,7.1222,7.1916,7.1788,7.265,7.2867,7.2495,7.3586,7.3661,7.2963,7.3549,7.4173,7.4798,7.5266,7.6281,7.7335,7.5032,7.3822,7.3387,7.2626,7.2588,7.2947,1.3449,1.4029,1.4359,1.3938,1.4262,1.4841,1.5666,1.575,1.819,2.496,2.6488,2.8801,3.3656,3.6619,3.832,3.855,3.9795,4.0348,3.9734,4.0995,4.3321,4.669,4.8384,5.1338,5.583,5.7808,5.9652,6.144,6.144,6.2022,6.3078,6.3054,6.322,6.3612,6.3698,6.2981,6.1728,6.1695,6.0969,5.9709,5.8135,5.5299,5.1726,4.8256,4.5443,4.3101,4.1402,3.8704,3.5965,3.6003,0.0,0.0,0.0,0.0,0.0,0.0,0.0,0.0,0.0,0.0,0.0,0.0,0.0,0.0,0.0,0.0,0.0,0.0,0.0,0.0,0.0,0.0,0.0,0.0,5.3265,5.6688,5.633,5.7262,5.8168,5.8539,5.9426,6.0493,6.1743,6.2559,6.3486,6.4628,6.5441,6.5935,6.5931,6.7779,6.8488,6.7713,7.0524,7.1986,7.1833,7.3206,7.3933,7.4038,7.5183,7.5585,7.5314,7.6271,7.6364,7.5775,7.6411,7.6919,7.7307,7.7316,7.7933,7.878,0.0,0.0,0.0,0.0,7.4927,7.5425,1.417,1.4427,1.4461,1.4393,1.4445,1.4805,1.5666,1.5841,1.8468,2.5906,2.6861,2.9214,3.5384,3.7321,3.8403,3.8986,3.9142,3.959,4.0491,4.0646,4.3082,4.8419,4.9777,5.2936,5.8313,5.9102,6.0777,6.335,6.3236,6.4084,6.5747,6.5709,6.5753,6.5732,6.4856,6.3949,6.315,6.2895,6.233,6.1538,6.1321,5.9008,5.5177,5.1036,4.8775,4.7488,4.4914,4.324,4.2199,4.201,0.0,0.0,0.0,0.0,0.0,0.0,0.0,0.0,0.0,0.0,0.0,0.0,0.0,0.0,0.0,0.0,0.0,0.0,0.0,0.0,0.0,0.0,0.0,0.0,5.7977,6.1807,6.3388,6.2079,6.1202,6.1888,6.2116,6.2871,6.4381,6.5302,6.6407,6.7926,6.8704,6.9087,6.9043,7.0099,0.0,0.0,0.0,7.2947,7.364,7.4368,7.5253,7.6284,7.7314,7.792,7.8238,7.8844,7.9096,7.9204,7.953,7.9665,7.9572,7.9454,7.953,7.9639,7.8858,7.854,7.8355,7.7401,7.7408,7.7875,1.3284,1.3999,1.431,1.3718,1.4195,1.4933,1.5744,1.5937,1.8869,2.6933,2.7168,2.9382,3.6786,3.8286,3.8594,3.8181,3.955,4.0591,4.0943,4.3387,4.647,5.0181,5.3592,5.7154,6.0905,6.113,6.278,6.5987,6.5261,6.6139,6.8438,6.8335,6.865,6.9195,6.832,6.7414,6.64,6.5069,6.4006,6.3069,6.2425,6.0871,5.8786,5.727,5.6163,5.5207,5.3716,5.0937,4.7834,4.6907,4.4095,4.0704,3.9286,3.8153,0.0,0.0,0.0,0.0,0.0,0.0,0.0,0.0,0.0,0.0,0.0,0.0,0.0,0.0,0.0,0.0,0.0,0.0,0.0,5.5852,6.1267,6.5436,6.5571,6.5842,6.5931,6.5531,6.6706,6.7626,6.7935,6.8803,6.9379,6.9581,7.0487,7.0677,6.9849,7.2081,7.2716,7.1116,7.3674,7.5104,7.5257,7.6254,7.716,7.8015,7.8246,0.0,7.8902,7.9057,7.9272,7.9596,7.9665,8.0094,8.0626,7.9931,7.9665,7.9678,7.9522,7.9237,7.8925,7.8737,7.8529,7.837,1.3049,1.3474,1.3831,1.392,1.4007,1.4469,1.5601,1.5865,1.8263,2.4807,2.5051,2.6845,3.2721,3.3775,3.455,3.5709,3.8474,4.0404,4.0976,4.4453,4.8565,5.3004,5.6129,5.9,6.1657,6.2296,6.3941,6.6713,6.5834,6.6483,6.8547,6.8476,6.8679,6.8998,6.8507,6.7984,6.7387,6.6552,6.591,6.5457,6.5078,6.3938,6.2264,6.0633,5.936,5.8396,5.7808,5.6199,5.4149,5.3187,5.1039,4.8229,4.5407,4.3804,4.1882,0.0,0.0,0.0,0.0,0.0,0.0,0.0,0.0,0.0,0.0,0.0,0.0,0.0,0.0,4.8522,5.1049,0.0,5.769,5.9088,6.3334,6.6442,6.632,6.8178,6.9057,6.7829,6.8396,6.9081,6.9569,7.0438,7.1242,7.1974,7.2467,7.2543,7.2088,7.3794,7.4396,7.3552,7.5392,7.66,7.7022,7.7708,7.8243,7.8668,7.9211,7.9554,7.9756,8.0325,8.0596,8.074,8.1321,8.157,8.146,8.1148,8.118,8.1412,8.1109,8.0328,7.9442,7.9764,7.9774,7.9675,1.298,1.3049,1.3302,1.4139,1.382,1.3922,1.5473,1.5791,1.7602,2.2398,2.2799,2.4143,2.8258,2.9026,3.0305,3.2854,3.685,3.9644,4.055,4.5114,5.0105,5.5133,5.7254,5.9343,6.1541,6.2523,6.4092,6.6319,6.5595,6.6046,6.7636,6.7942,6.8068,6.8007,6.7973,6.7832,6.7688,6.7464,6.739,6.739,6.7316,6.652,6.5113,6.2883,6.1193,5.9924,5.9626,5.9403,5.902,5.8159,5.7215,5.5788,5.1862,4.9344,4.6581,4.0267,3.9937,0.0,0.0,0.0,0.0,0.0,0.0,0.0,0.0,4.4161,4.4821,4.9944,5.1532,5.27,5.5182,5.7437,5.9816,6.2314,6.5055,6.6957,6.7317,6.9743,7.1086,6.9928,6.9889,7.0342,7.1131,7.1852,7.2843,7.4216,7.4255,7.4257,7.4521,7.5205,7.5697,7.6063,7.6843,7.7745,7.8622,7.8914,7.9144,7.9299,8.0203,8.0745,8.0992,8.1817,8.2182,8.2092,8.3098,8.296,8.2073,8.2382,8.253,8.2463,8.2117,8.1044,7.9828,8.0825,8.1143,8.1233,1.2778,1.2834,1.2992,1.3446,1.3497,1.3991,1.5473,1.5769,1.7547,2.2459,2.2607,2.3915,2.8219,2.9196,2.9881,3.0766,3.5435,3.867,3.9504,4.6358,5.1646,5.4399,5.6132,5.8312,6.1124,6.1241,6.2473,6.4893,6.4741,6.5338,6.6602,6.8088,6.8777,6.8671,6.8742,6.8633,6.845,6.7764,6.7425,6.7353,6.7011,6.6741,6.6478,6.5223,6.3538,6.1578,6.0211,5.9701,5.951,5.8378,5.7867,5.7684,5.7169,5.3965,4.9811,4.6801,4.269,3.8469,3.5588,3.8162,4.2613,4.647,4.6837,4.8561,0.0,5.5427,5.3586,5.9713,6.0481,6.0578,6.2214,6.3345,6.4312,6.5238,6.7067,6.8777,7.014,7.0787,7.1673,7.308,7.3877,7.4333,7.4448,7.4676,7.4866,7.5057,7.5094,7.5435,7.6123,7.635,7.6844,7.7678,7.79,7.8497,7.9544,7.9814,8.0343,8.1117,8.1406,8.202,8.2896,8.3,8.3137,8.3327,8.3458,8.3029,8.2319,8.3074,8.2053,8.0133,8.0537,8.0302,7.9945,8.2112,8.28,8.2802,1.2797,1.2797,1.2834,1.3173,1.3346,1.3922,1.5358,1.5673,1.6747,1.9659,1.9802,2.051,2.2806,2.4629,2.6205,2.7602,3.3737,3.802,3.9325,4.6541,5.1683,5.3628,5.547,5.7677,6.0338,6.0625,6.2178,6.5084,6.4518,6.486,6.6135,6.7311,6.7688,6.7448,6.7977,6.8098,6.7918,6.7576,6.7426,6.7353,6.6972,6.6591,6.6176,6.5746,6.2977,5.9289,5.8635,5.8523,0.0,5.7095,5.6602,5.6418,5.55,5.3518,5.0472,4.5186,4.3608,4.4085,4.6397,4.6544,4.7242,5.205,5.3371,5.4509,5.8584,5.807,5.784,6.1862,6.3584,6.4082,6.3106,6.4731,6.6208,6.6171,6.7221,6.8319,6.9249,7.0541,7.169,7.2449,7.3942,7.4787,7.441,7.4867,7.5209,7.5209,7.5666,7.6122,7.6503,7.6998,7.7721,7.8672,7.8746,7.9274,8.0361,8.0705,8.1336,8.2277,8.2621,8.2981,8.3371,8.3878,8.4177,8.4206,8.323,8.2879,8.2996,8.2879,8.245,8.1903,8.163,8.1708,8.1897,8.1711,8.1704,8.1906,1.2759,1.2741,1.2778,1.3016,1.3191,1.3661,1.4855,1.5342,1.5994,1.7188,1.758,1.803,1.8866,2.0975,2.3015,2.4638,3.1315,3.6338,3.8497,4.5148,5.0061,5.2454,5.433,5.6422,5.8683,5.9421,6.1005,6.348,6.3435,6.3825,6.4671,6.6069,6.6484,6.6246,6.7189,6.7569,6.746,6.7426,6.739,6.7353,6.7009,6.6513,6.5793,6.4324,6.1204,5.7571,5.7571,5.6916,5.5875,5.4656,5.4295,5.4148,5.3151,5.1536,4.9003,4.3901,4.3864,4.6544,5.1573,5.194,5.1903,5.6088,5.8437,5.9722,5.9942,6.0309,6.119,6.3305,6.5176,6.5966,6.4383,6.5915,6.7393,6.725,6.7924,6.8757,6.9571,7.1275,7.2655,7.315,7.4657,7.5547,7.5323,7.5437,7.5513,7.5589,7.6313,7.6922,7.7302,7.7837,7.8599,7.9514,7.9514,7.9893,8.0758,8.1115,8.1846,8.2921,8.3231,8.3561,8.3855,8.4245,8.4558,8.4714,8.3347,8.3035,8.3465,8.2957,8.2918,8.3113,8.2528,8.284,8.3465,8.1981,8.1552,8.1825,1.2498,1.2594,1.2759,1.2977,1.2944,1.3151,1.3824,1.4685,1.5461,1.6153,1.6994,1.7843,1.8723,2.0264,2.1589,2.2426,2.7971,3.2953,3.6463,4.1579,4.6389,5.0692,5.2417,5.4032,5.5691,5.7271,5.8297,5.872,6.1011,6.193,6.1603,6.4362,6.561,6.5687,6.69,6.739,6.739,6.739,6.739,6.7353,6.6972,6.6608,6.5746,6.063,5.843,5.8006,5.8006,5.5037,5.1106,5.0989,5.0989,5.1179,5.1834,4.8746,4.5039,4.559,4.3644,4.1992,4.5296,5.0141,5.484,5.7336,6.097,6.4127,6.4897,6.4494,6.442,6.5877,6.6279,6.6738,6.8069,6.8226,6.8459,6.9223,7.0109,7.1292,7.2904,7.4109,7.5425,7.7103,7.7372,7.7792,7.8749,7.73,7.6349,7.6541,7.7303,7.8179,7.9169,7.9133,7.9438,8.0315,8.0277,8.0392,8.0614,8.0962,8.1722,8.2921,8.3088,8.3732,8.4714,8.3894,8.4011,8.4753,8.4206,8.3777,8.3504,8.3816,8.3308,8.2332,8.2293,8.2996,8.3972,8.3933,8.3699,8.3543,1.2517,1.253,1.2581,1.2829,1.2735,1.2716,1.288,1.3711,1.4754,1.5919,1.6797,0.0,0.0,0.0,0.0,0.0,2.6353,2.9796,3.2072,3.9158,4.3937,4.5548,4.9789,5.2987,5.4766,5.5868,5.7022,5.8179,5.8897,5.9337,5.9515,6.1192,6.2106,6.2447,6.3641,6.4499,6.5031,6.4924,6.5229,6.5648,6.4709,6.2557,5.9659,5.7658,5.3038,4.7719,0.0,4.8528,4.7574,4.6985,4.7499,4.831,4.7426,4.6434,4.5073,4.2684,4.3897,4.6691,4.9884,5.4106,5.8437,6.1961,6.4273,6.5742,6.6035,6.6696,6.7283,6.723,6.6386,6.5417,6.4709,6.5423,6.619,6.6626,6.954,7.2286,7.3613,7.4891,7.5959,7.6612,7.7138,7.7865,7.8942,7.8444,7.8368,7.8941,7.9702,8.0123,7.9894,8.0309,8.0192,7.9356,8.0464,8.0849,8.0542,8.2009,8.3399,8.4631,8.4389,8.4451,8.4753,8.3347,8.3465,8.4714,8.3426,8.3113,8.3465,8.3035,8.2645,8.2411,8.3504,8.3972,8.4089,8.4831,8.4792,8.4401,1.2392,1.2352,1.2403,1.262,1.2522,0.0,0.0,0.0,0.0,0.0,0.0,0.0,0.0,0.0,0.0,0.0,0.0,2.669,2.9,3.4796,3.9013,4.0962,4.4587,4.7393,4.9154,5.0247,5.1347,5.2571,5.4492,5.566,5.6214,5.8598,5.9851,6.019,6.1145,6.188,6.2335,6.0951,6.1035,6.1798,5.9246,5.6778,5.4392,5.2197,4.757,0.0,4.1846,4.2246,4.2938,4.2687,4.3309,4.4042,4.3238,4.3603,4.4115,4.3269,4.6248,5.0775,5.5354,5.9171,6.2511,6.5448,6.6769,6.7357,6.7357,6.8164,6.8935,6.8972,6.7026,6.5029,6.4155,6.4762,6.5108,6.4053,6.7765,7.1256,7.2763,7.3942,7.5384,7.7369,7.7824,7.8435,7.978,7.9626,7.9816,8.0616,8.1454,8.1375,8.0271,8.0649,8.0459,7.9356,8.077,8.1499,8.1496,8.2894,8.4262,8.5577,8.539,8.526,8.5221,8.3816,8.3777,8.4753,8.366,8.3386,8.3621,8.2677,8.2645,8.3308,8.4636,8.5143,8.526,8.569,8.5807,8.5651,1.2096,1.2159,1.221,0.0,0.0,0.0,0.0,0.0,0.0,0.0,0.0,0.0,0.0,0.0,0.0,0.0,0.0,0.0,2.7058,2.8864,3.1974,3.6792,3.7399,3.8222,3.9649,4.1221,4.2203,4.2627,4.7953,5.0853,5.1573,5.61,5.8237,5.8351,5.8936,5.9246,5.9057,5.5681,5.5136,5.609,5.1211,4.9762,4.9972,4.4618,4.2242,4.1295,3.7551,3.6765,3.7566,3.8389,3.886,3.9289,4.0226,4.1103,4.275,4.739,5.0591,5.416,6.0933,6.4677,6.6806,6.7577,6.8311,6.8862,6.8862,6.8898,6.9339,7.066,6.7797,6.5228,6.5778,6.5856,6.4872,6.1857,6.5235,6.8976,7.1044,7.1787,7.4077,7.9263,7.9271,7.9464,8.1261,8.0766,8.0692,8.1611,8.233,8.1984,8.0347,8.0351,8.0392,8.0277,8.1309,8.23,8.3285,8.3603,8.446,8.5806,8.6003,8.608,8.6002,8.5182,8.4831,8.487,8.487,8.4558,8.405,8.299,8.3465,8.4909,8.5534,8.6431,8.729,8.6471,8.6705,8.7173,0.0,0.0,0.0,0.0,0.0,0.0,0.0,0.0,0.0,0.0,0.0,0.0,0.0,0.0,0.0,0.0,0.0,0.0,2.2679,2.5815,2.852,3.0554,3.4727,3.7279,3.7785,3.9613,4.0551,4.0554,4.2258,4.3462,4.4305,4.6577,4.7967,4.8702,4.9594,5.0353,5.0917,4.999,5.0252,5.1035,4.849,4.5716,4.2902,4.0849,3.7979,3.5092,3.5275,3.5459,3.5891,3.7294,4.0226,4.3862,4.7757,4.9561,5.0483,5.1695,5.5926,6.0599,6.2328,6.5485,6.8348,6.8531,6.8311,6.8017,6.8017,6.8935,6.9045,6.6476,6.3649,6.0786,5.7997,5.9381,6.1092,6.1346,6.7148,7.2445,7.4644,7.5184,7.6112,7.8217,7.8555,7.9381,8.1223,8.1664,8.2228,8.3193,8.2808,8.2044,8.0932,8.1638,8.1492,8.0275,8.2607,8.3671,8.3285,8.5075,8.5833,8.5581,8.5927,8.5768,8.5104,8.4909,8.5143,8.5768,8.5573,8.5495,8.5573,8.5963,8.5846,8.5573,8.6588,8.7134,8.7368,8.7134,8.7212,8.7329,0.0,0.0,0.0,0.0,0.0,0.0,0.0,0.0,0.0,0.0,0.0,0.0,0.0,0.0,0.0,0.0,0.0,0.0,0.0,2.2166,2.4062,2.5234,2.8357,3.0489,3.1289,3.2997,3.4019,3.4305,3.654,3.8043,3.8974,4.1238,4.2746,4.3452,4.4177,4.4811,4.5148,4.3602,4.3618,0.0,0.0,3.9509,3.7858,3.7063,3.5034,3.2779,3.4027,3.6187,3.8913,4.1834,4.4819,4.7903,5.0897,5.2262,5.3281,5.5742,5.9568,6.3542,6.5888,6.8458,7.033,6.9596,6.9082,6.8164,6.6035,6.6256,6.5852,6.2082,5.9161,5.652,5.4202,5.7033,5.9527,5.886,6.5375,7.1085,7.2834,7.3401,7.4516,7.6996,7.8043,7.9145,8.06,8.1084,8.1685,8.2526,8.2488,8.1919,8.0618,8.1679,8.1841,8.0887,8.3367,8.472,8.4651,8.5965,8.6475,8.6216,8.6428,8.6315,8.5924,8.5924,8.6197,8.6666,8.651,8.6549,8.6705,8.7212,8.7017,8.651,8.7134,8.7407,8.7407,8.7407,8.7407,8.7446,0.0,0.0,0.0,0.0,0.0,0.0,0.0,0.0,0.0,1.57,1.6192,1.6675,0.0,0.0,0.0,0.0,0.0,0.0,0.0,0.0,1.974,2.1014,2.1305,2.2083,2.349,2.5007,2.6151,2.6837,3.0941,3.3318,3.4167,3.7301,3.904,3.9601,4.0002,4.029,4.0269,3.7161,3.6629,3.7477,3.3707,3.2976,3.4126,0.0,3.3036,3.2559,3.3476,3.7618,4.3341,4.7942,5.0554,5.1992,5.2902,5.3417,5.4712,5.9779,6.239,6.4706,6.9633,7.1651,7.1982,7.0477,7.0,6.8678,6.3906,6.2805,6.1655,5.7617,5.4781,5.2852,5.2199,5.6026,5.8574,5.6374,6.226,6.7634,6.9301,7.0101,7.1947,7.5743,7.7734,7.9064,7.9822,8.0011,8.039,8.1186,8.1944,8.1717,8.0125,8.1304,8.211,8.23,8.408,8.5452,8.6362,8.6389,8.6583,8.6909,8.7039,8.7164,8.7212,8.7368,8.7407,8.7407,8.7407,8.7407,8.7407,8.7407,8.7407,8.7407,8.7407,8.7486,8.7564,8.7564,8.7642,8.7837,0.0,0.0,0.0,0.0,0.0,0.0,0.0,0.0,0.0,0.0,1.6316,1.6623,0.0,0.0,0.0,0.0,0.0,0.0,0.0,0.0,0.0,1.9295,2.0478,2.1183,2.1407,2.3292,2.4348,2.4479,2.5671,2.6392,2.6666,2.8357,2.9617,3.0577,3.1347,3.2201,3.301,3.222,3.2138,3.247,3.1038,3.0673,3.1041,3.1604,3.1715,0.0,3.3256,3.7095,4.2193,4.7374,5.2791,5.7867,6.096,6.1948,6.2487,6.4751,6.6161,6.7263,6.8862,7.0403,7.1284,7.033,6.9596,6.8017,6.3759,6.2805,6.0701,5.3259,5.1998,5.1348,4.84,5.0936,5.4759,5.8725,6.2668,6.6919,7.1672,7.3093,7.3997,7.4666,7.7655,7.9708,7.9898,8.0504,8.1262,8.2096,8.2285,8.1944,8.0959,8.2713,8.425,8.5301,8.5714,8.5973,8.6153,8.6317,8.618,8.5777,8.6685,8.6852,8.6353,8.7056,8.7407,8.7407,8.7407,8.7407,8.7407,8.7407,8.7407,8.7407,8.7407,8.7837,8.8461,8.8461,8.893,8.9555,0.0,0.0,0.0,0.0,0.0,0.0,0.0,1.5653,1.5797,1.5797,1.608,1.6328,1.6436,1.6355,1.6382,0.0,0.0,0.0,0.0,0.0,0.0,0.0,1.8773,1.9309,1.975,2.1472,2.2639,2.3129,0.0,2.5107,2.5639,2.601,2.6568,2.726,2.7451,2.7825,2.834,2.8478,2.8554,2.8652,2.8761,2.8845,2.9025,3.032,3.1017,0.0,3.2742,3.6473,4.1267,4.4457,5.1083,5.8772,6.3067,6.4413,6.4697,6.6103,6.7063,6.8054,6.9706,7.1027,7.1945,7.1982,7.1064,6.8421,6.1814,5.9553,5.6566,4.8239,4.7338,4.7636,4.6273,4.9647,5.3586,5.6566,6.1806,6.6372,6.8873,7.1932,7.3959,7.3818,7.7382,7.9708,7.9253,8.0769,8.1755,8.1717,8.2134,8.2254,8.193,8.4326,8.5815,8.6094,8.6555,8.6555,8.6094,8.5864,8.5924,8.6166,8.6358,8.654,8.6783,8.7212,8.7407,8.7407,8.7407,8.7407,8.7407,8.7407,8.7681,8.8071,8.8071,8.8618,8.9398,8.9398,8.9633,9.0062,0.0,0.0,0.0,0.0,0.0,0.0,0.0,1.5507,1.5624,1.5566,1.574,1.594,1.6219,1.6191,1.6246,0.0,0.0,0.0,0.0,0.0,0.0,0.0,0.0,0.0,1.8307,0.0,0.0,2.1859,2.3293,0.0,0.0,0.0,0.0,0.0,2.5657,2.5693,2.6015,2.6093,2.6271,0.0,0.0,2.7652,2.7858,0.0,0.0,0.0,0.0,3.5409,3.9137,4.1314,4.7496,5.5172,6.0172,6.2464,6.3484,6.4595,6.5521,6.6806,6.9963,7.1615,7.2679,7.3487,7.2753,6.9412,6.0126,5.6722,5.3024,4.4227,4.3214,4.4089,4.4699,4.8547,5.2119,5.3595,5.9481,6.4363,6.5565,6.9938,7.3093,7.3238,7.7354,7.9746,7.8685,8.0731,8.1906,8.1414,8.2368,8.3069,8.3285,8.5514,8.6614,8.6132,8.6748,8.6742,8.5921,8.5583,8.5676,8.6068,8.6062,8.6345,8.6861,8.7212,8.7407,8.7407,8.7603,8.7564,8.7446,8.7798,8.8266,8.8735,8.8891,8.9516,9.0296,9.0296,9.0374,9.0648,0.0,0.0,0.0,0.0,0.0,0.0,0.0,1.5418,1.5448,1.5507,1.5418,1.5536,1.5968,1.6139,1.6222,0.0,0.0,0.0,0.0,0.0,0.0,0.0,0.0,0.0,0.0,0.0,0.0,2.0128,2.0349,0.0,0.0,0.0,0.0,0.0,0.0,2.5825,2.6913,2.5906,0.0,0.0,0.0,0.0,0.0,0.0,0.0,0.0,0.0,3.354,3.4118,3.9423,4.2538,4.5152,5.0411,5.511,5.8777,5.9612,6.0456,6.2254,6.765,7.077,7.2679,7.3487,7.3597,7.077,6.0382,5.7161,5.3397,4.2885,4.1505,4.2413,4.2992,4.5002,4.8011,5.2316,5.4911,5.8665,6.5077,6.9045,7.1839,7.3317,7.7928,8.0352,7.8761,8.0201,8.1489,8.221,8.3948,8.5037,8.5242,8.5666,8.5964,8.6094,8.617,8.5915,8.528,8.5964,8.5458,8.3831,8.5909,8.6217,8.5104,8.6666,8.7407,8.7446,8.8227,8.8149,8.7525,8.9125,8.932,8.8774,8.9555,9.0413,9.1194,9.1194,9.1624,9.2404,0.0,0.0,0.0,0.0,0.0,0.0,1.5358,1.5359,1.5389,1.5388,1.5448,1.5566,1.574,1.594,1.6111,1.6194,0.0,0.0,0.0,0.0,0.0,0.0,0.0,0.0,0.0,0.0,1.8406,1.953,2.0258,0.0,0.0,0.0,0.0,0.0,0.0,2.3784,2.4436,2.4186,0.0,0.0,0.0,0.0,0.0,0.0,0.0,0.0,0.0,0.0,3.2375,3.5605,3.9289,4.2548,4.272,4.6104,5.1206,5.7409,6.0456,6.2989,6.8201,7.1394,7.3413,7.4221,7.1138,6.6182,5.9549,5.4239,4.8721,4.1942,4.1323,4.2159,4.2775,4.4528,4.6654,4.9035,5.2846,5.6502,5.92,6.6367,7.1378,7.1386,7.7613,8.1084,7.8921,8.0623,8.2109,8.2542,8.3818,8.4899,8.5628,8.6699,8.6924,8.6132,8.6594,8.6832,8.6726,8.6645,8.6846,8.7248,8.7242,8.7299,8.7407,8.811,8.8422,8.8461,8.9164,8.9281,8.9008,8.9711,9.0101,9.0296,9.0648,9.1624,9.2795,9.2795,9.3341,9.4122,0.0,0.0,0.0,0.0,0.0,1.5536,1.5358,1.5358,1.5388,1.5358,1.5448,1.5566,1.5682,1.574,1.5883,1.6166,1.6191,0.0,0.0,0.0,0.0,0.0,0.0,0.0,0.0,0.0,1.7973,1.9058,2.0352,2.1663,0.0,0.0,2.3456,2.3647,0.0,0.0,0.0,0.0,0.0,0.0,0.0,0.0,0.0,0.0,0.0,0.0,0.0,0.0,0.0,0.0,0.0,3.9694,3.7741,3.9575,4.4124,5.2449,5.7483,6.1447,6.6549,7.0587,7.3597,7.4661,7.0,6.3833,5.8851,5.2443,4.6095,4.0924,4.063,4.1429,4.176,4.3871,4.581,4.6617,5.0949,5.4539,5.5697,6.2984,6.8328,6.8533,7.4379,7.8131,7.7372,8.0444,8.2694,8.3053,8.4057,8.494,8.5777,8.6927,8.7113,8.6132,8.6709,8.7164,8.7435,8.7248,8.7967,8.9493,8.8743,8.9008,9.0101,8.975,8.9594,8.9633,9.014,9.0257,9.0023,9.0531,9.1116,9.1663,9.1936,9.2912,9.4161,9.4161,9.4552,9.5137,0.0,0.0,0.0,0.0,0.0,0.0,1.5418,1.5358,1.5358,1.5477,1.5388,1.5477,1.594,1.5595,1.5536,1.6166,1.6052,0.0,0.0,0.0,0.0,0.0,0.0,0.0,0.0,0.0,1.7843,1.853,2.0162,2.1504,2.2541,2.4214,2.5146,2.5445,0.0,0.0,0.0,0.0,0.0,0.0,0.0,0.0,2.6294,0.0,0.0,0.0,0.0,0.0,0.0,0.0,0.0,0.0,0.0,3.6765,3.8282,4.3389,4.9444,5.5721,6.1374,6.7614,7.2899,7.4515,7.1248,6.5742,5.8474,5.2914,4.7153,3.9692,3.8925,3.9571,3.9365,4.2265,4.5002,4.5773,4.8673,5.2234,5.6235,5.8967,6.1691,6.487,6.7391,7.0118,7.3421,7.9203,8.3053,8.4015,8.4935,8.559,8.5815,8.5815,8.5887,8.6094,8.6094,8.6327,8.6787,8.7642,8.8422,8.9125,9.0218,9.135,9.245,9.1311,9.0765,9.0804,9.1155,9.0804,9.014,9.178,9.2482,9.2561,9.3458,9.4317,9.5098,9.5098,9.5098,9.5215,0.0,0.0,0.0,0.0,0.0,0.0,0.0,1.5298,1.5327,1.5358,1.5624,1.5826,1.5968,1.5996,1.5996,1.6052,1.6024,0.0,0.0,0.0,0.0,0.0,0.0,0.0,0.0,0.0,1.7942,1.9122,1.959,2.0447,2.1601,2.2151,2.2636,2.304,2.2979,2.3354,0.0,0.0,0.0,0.0,0.0,2.5384,2.6186,0.0,0.0,0.0,0.0,0.0,0.0,0.0,0.0,0.0,0.0,0.0,0.0,3.9577,4.4565,5.0505,5.5514,5.926,6.1887,6.2401,5.8437,5.3849,5.1654,4.6434,4.1379,3.8871,3.9557,4.0577,4.0372,4.3175,4.5773,4.6617,4.904,5.1426,5.3261,5.998,6.4847,6.5257,7.1401,7.6956,8.0342,8.1908,8.3176,8.4365,8.5245,8.5815,8.5992,8.5992,8.6026,8.6094,8.6671,8.7476,8.8497,8.9372,9.033,9.1428,9.178,9.2131,9.2482,9.2131,9.1975,9.1975,9.2053,9.1975,9.178,9.2912,9.338,9.3497,9.4356,9.5215,9.5996,9.5996,9.6386,9.6933,0.0,0.0,0.0,0.0,0.0,0.0,0.0,1.5358,1.5358,1.5448,1.5711,1.594,1.6108,1.6163,1.6191,1.6219,1.6163,0.0,0.0,0.0,0.0,0.0,0.0,0.0,0.0,1.7938,1.8749,2.0001,2.0635,2.1535,2.2671,2.3031,2.3256,2.324,2.3179,2.3294,0.0,0.0,0.0,0.0,2.5076,2.5003,2.5997,0.0,0.0,0.0,0.0,0.0,0.0,0.0,0.0,0.0,0.0,0.0,0.0,0.0,4.0742,4.493,5.0617,5.4574,5.7171,5.7171,5.3182,4.9187,4.897,4.4303,3.9942,3.9447,4.0024,4.0753,4.117,4.3063,4.5112,4.6838,4.893,5.1213,5.3695,5.9689,6.4514,6.6406,7.3263,7.9046,8.2253,8.2716,8.3601,8.543,8.6079,8.6303,8.6132,8.6401,8.6621,8.6709,8.721,8.8091,8.9294,9.0226,9.1286,9.2482,9.2482,9.2482,9.2482,9.2482,9.2482,9.2482,9.2482,9.2678,0.0,9.3576,9.42,9.4825,9.5371,9.6113,9.6894,9.6894,9.7245,9.7714,0.0,0.0,0.0,0.0,0.0,0.0,0.0,1.5359,1.5477,1.5623,1.5681,1.5853,1.6246,1.6136,1.6191,1.6543,0.0,0.0,0.0,0.0,0.0,0.0,0.0,0.0,0.0,1.8936,2.013,2.115,2.2766,2.408,2.5045,2.5983,2.6084,2.5479,2.518,2.4568,0.0,0.0,0.0,0.0,2.4563,2.4575,0.0,0.0,0.0,0.0,0.0,0.0,0.0,0.0,0.0,0.0,0.0,0.0,0.0,0.0,0.0,0.0,0.0,5.2316,5.651,5.6463,5.331,4.9994,4.9224,4.5443,0.0,4.0985,4.0427,4.0492,4.1789,4.2404,4.3681,4.6654,4.86,5.1551,5.6648,5.891,6.2259,6.8335,7.3497,7.7566,8.0163,8.2111,8.4327,8.711,8.7445,8.7094,8.6247,8.6978,8.7487,8.7693,8.7758,8.8336,8.9392,9.0462,9.1493,9.2482,9.2482,9.2482,9.2482,9.2482,9.2482,9.2482,9.2561,9.3068,9.381,9.3927,9.4942,9.6425,9.6464,9.6972,9.7714,9.7714,9.7714,9.7714,0.0,0.0,0.0,0.0,0.0,0.0,0.0,0.0,0.0,0.0,1.5711,1.5968,1.6052,1.6301,1.6436,0.0,0.0,0.0,0.0,0.0,0.0,0.0,0.0,0.0,0.0,1.9774,2.1007,2.2657,2.2939,2.3479,2.4249,2.4481,2.4946,2.5445,2.4269,2.3714,0.0,0.0,0.0,0.0,2.5679,2.5479,0.0,0.0,0.0,0.0,2.7567,2.9247,0.0,0.0,0.0,0.0,0.0,0.0,0.0,0.0,3.7255,3.8403,4.1235,0.0,4.4746,4.4595,4.4418,4.4196,0.0,4.2038,4.0561,4.0936,4.1409,4.1846,4.2145,4.4783,4.6948,4.7095,4.9554,5.2839,5.6833,6.405,6.9803,7.2166,7.6907,8.011,8.0468,8.3181,8.5896,8.8141,8.8402,8.8017,8.7132,8.7286,8.7487,8.7693,8.8499,8.943,9.0517,9.1442,9.2117,9.2482,9.2482,9.2482,9.2482,9.2482,9.2482,9.2522,9.3185,9.3615,9.3888,9.5254,9.6035,9.6464,9.7128,9.7518,9.7714,9.7714,9.7714,9.7714,0.0,0.0,0.0,0.0,0.0,0.0,0.0,0.0,0.0,0.0,0.0,1.5911,1.6052,1.6301,0.0,0.0,0.0,0.0,0.0,0.0,0.0,0.0,0.0,0.0,0.0,2.0481,2.1984,2.4313,2.4204,2.4691,2.5748,2.5748,2.5681,2.5476,2.3992,2.3808,0.0,0.0,0.0,2.6604,2.5654,0.0,0.0,0.0,0.0,0.0,2.7727,2.9362,0.0,3.0915,3.0951,3.1279,0.0,0.0,0.0,0.0,3.6254,3.7327,3.8113,3.9409,4.0564,4.0384,4.1215,4.1937,4.1537,4.175,4.2001,4.2142,4.2543,4.3314,4.4782,4.7683,4.9603,4.8895,5.3746,5.8639,6.1462,6.6781,7.1406,7.4068,7.745,8.0616,8.3293,8.4786,8.6622,8.906,8.8902,8.8325,8.744,8.7786,8.8128,8.8437,8.9387,9.0206,9.0885,9.1871,9.2393,9.2482,9.2482,9.2482,9.2482,9.2482,9.2482,9.2561,9.3419,9.4044,9.4512,9.584,9.666,9.705,9.7518,9.7714,9.7714,9.7714,9.7714,9.7714,0.0,0.0,0.0,0.0,0.0,0.0,0.0,0.0,0.0,0.0,0.0,0.0,0.0,0.0,0.0,0.0,0.0,0.0,0.0,0.0,0.0,0.0,0.0,0.0,0.0,0.0,2.3196,2.5793,2.5886,2.6656,2.801,2.801,2.7199,2.571,2.4418,2.4441,0.0,0.0,2.4998,2.625,2.5155,0.0,0.0,0.0,0.0,0.0,0.0,0.0,0.0,3.0862,3.0677,3.0843,3.0736,0.0,0.0,0.0,0.0,0.0,3.6541,3.8761,4.0885,4.0345,4.0998,4.1723,4.1428,4.2667,4.387,4.3683,4.3754,4.4854,4.8162,5.0342,5.1639,5.148,5.8569,6.493,6.7503,6.9361,7.1711,7.5054,7.7608,8.1003,8.5892,8.6352,8.742,8.9906,8.9479,8.8709,8.7825,8.8546,8.9127,8.9468,9.0247,9.0786,9.1145,9.2061,9.2482,9.2482,9.2482,9.2482,9.2482,9.2482,9.2561,9.2756,9.3615,9.4473,9.5371,9.623,9.7011,9.7714,9.7714,9.7714,9.7714,9.7714,9.7714,9.7714,0.0,0.0,0.0,0.0,0.0,0.0,0.0,0.0,0.0,0.0,0.0,0.0,0.0,0.0,0.0,0.0,0.0,0.0,0.0,0.0,0.0,0.0,0.0,0.0,0.0,0.0,0.0,2.6618,2.7166,2.7949,2.8822,2.8822,2.7977,2.6488,2.5863,2.5026,2.4064,2.4331,2.4544,2.4766,2.4777,0.0,0.0,0.0,0.0,0.0,0.0,0.0,0.0,3.1076,3.1035,3.1433,3.0879,0.0,0.0,0.0,0.0,0.0,3.7077,4.0807,4.37,4.0885,4.1215,4.2514,4.3579,4.2664,4.2179,4.4121,4.5076,4.6653,5.0337,5.1527,5.2481,5.4167,5.9285,6.5001,7.0564,7.5433,7.7873,7.6389,8.1651,8.4748,8.3013,8.6619,8.957,9.0902,9.0902,9.0441,8.9556,8.9849,9.0159,9.04,9.0703,9.1301,9.2233,9.2436,9.2482,9.2482,9.2482,9.2482,9.2482,9.2482,9.2912,9.3654,9.4512,9.541,9.6269,9.7128,9.7597,9.7714,9.7714,9.7714,9.7714,9.7714,9.7714,9.7714,0.0,0.0,0.0,0.0,0.0,0.0,0.0,0.0,0.0,0.0,0.0,0.0,0.0,0.0,0.0,0.0,0.0,0.0,0.0,0.0,0.0,0.0,0.0,0.0,0.0,0.0,0.0,0.0,2.8279,2.9037,2.96,2.9161,2.8619,2.791,2.7267,2.6109,2.4743,2.5155,2.4809,2.4112,0.0,0.0,0.0,0.0,0.0,0.0,0.0,0.0,0.0,0.0,3.1237,3.1172,3.1332,0.0,0.0,0.0,0.0,0.0,3.6684,3.9409,4.2445,4.4473,4.7066,4.9273,4.9565,5.0561,5.0717,4.8451,4.9334,5.1259,5.3647,5.5921,5.9589,6.6219,6.6823,6.8107,7.2997,7.3954,7.4938,7.7069,8.0654,8.3441,8.484,8.7875,9.0142,9.1133,9.0748,9.0355,9.0126,9.0228,9.0453,9.0764,9.1311,9.1883,9.2482,9.2951,9.3185,9.3185,9.2717,9.2756,9.3185,9.3185,9.3419,9.3888,9.5215,9.6035,9.6464,9.7323,9.7714,9.7714,9.7714,9.7714,9.7714,9.7714,9.7714,9.7714,0.0,0.0,0.0,0.0,0.0,0.0,0.0,0.0,0.0,0.0,0.0,0.0,0.0,0.0,0.0,0.0,0.0,0.0,0.0,0.0,0.0,0.0,0.0,0.0,0.0,0.0,2.6308,2.7931,2.9171,2.9995,3.0345,2.96,2.9161,2.896,2.8047,2.6995,2.5909,2.5678,2.5005,2.4074,0.0,0.0,0.0,0.0,0.0,0.0,0.0,0.0,0.0,0.0,0.0,0.0,0.0,0.0,0.0,3.3804,3.4924,3.5574,3.6434,3.8906,4.2448,4.7461,5.0271,5.2506,5.5496,5.7078,5.6969,5.3696,5.4785,5.6478,5.7152,6.0229,6.5349,7.3612,7.2205,7.1558,7.593,7.4065,7.4201,7.9274,8.098,8.3303,8.7325,8.921,9.0479,9.1171,9.0559,9.0307,9.0566,9.061,9.0818,9.1208,9.1912,9.2334,9.2482,9.3341,9.381,9.381,9.3107,9.3263,9.4083,9.3888,9.4005,9.4473,9.584,9.6503,9.6777,9.7401,9.7714,9.7714,9.7909,9.7987,9.7987,9.7792,9.7714,9.7714,0.0,0.0,0.0,0.0,0.0,0.0,0.0,0.0,0.0,0.0,0.0,0.0,0.0,0.0,0.0,0.0,0.0,0.0,0.0,0.0,0.0,0.0,0.0,0.0,0.0,2.5144,2.699,2.8362,2.9869,3.0771,3.1089,3.0378,2.9668,2.896,2.7707,2.7053,2.6781,2.5066,2.4592,2.4899,2.3615,0.0,0.0,0.0,0.0,0.0,0.0,0.0,0.0,0.0,0.0,0.0,0.0,0.0,3.1309,3.4487,3.5321,3.5543,3.7077,4.2099,4.7102,4.771,4.5002,4.5627,5.9087,5.6593,5.3041,5.8584,6.0848,6.1475,6.0416,6.2559,6.5008,6.6559,6.9582,7.3897,8.0237,8.1614,8.2798,8.4974,8.6915,8.8209,8.8556,9.0133,9.1133,9.121,9.1062,9.1091,9.1406,9.1528,9.176,9.2098,9.2334,9.2475,9.2482,9.3341,9.381,9.381,9.3732,9.4161,9.4981,9.4161,9.4669,9.623,9.6347,9.6855,9.7597,9.7675,9.7714,9.7792,9.8572,9.8924,9.8807,9.7987,9.7714,9.7714,0.0,0.0,0.0,0.0,0.0,0.0,0.0,0.0,0.0,0.0,0.0,0.0,0.0,0.0,0.0,0.0,0.0,0.0,0.0,0.0,0.0,0.0,0.0,2.0852,2.3519,2.5392,2.7019,2.84,3.0174,3.1072,3.119,3.092,3.0142,2.9028,2.8965,2.8151,2.6723,2.5586,2.4932,2.4594,2.3342,2.2799,0.0,0.0,0.0,0.0,0.0,0.0,0.0,0.0,3.1374,3.0951,3.2235,3.1739,3.1345,3.4494,3.5323,3.572,3.7936,4.2849,4.7862,4.9747,4.8898,5.0601,6.2197,6.2817,6.1204,6.188,6.4033,6.5148,6.2894,6.5577,6.8414,6.9207,7.4333,7.8932,8.1149,8.2493,8.4018,8.6352,8.7376,8.8286,8.9363,9.0517,9.121,9.121,9.127,9.1423,9.1657,9.1877,9.2121,9.239,9.2459,9.2756,9.3302,9.4161,9.4864,9.541,9.4864,9.5059,9.5918,9.5567,9.5762,9.6425,9.6972,9.7401,9.7714,9.7714,9.7714,9.7714,9.8065,9.8533,9.8885,9.8026,9.7667,9.765,0.0,0.0,0.0,0.0,0.0,0.0,0.0,0.0,0.0,0.0,0.0,0.0,0.0,0.0,0.0,0.0,0.0,0.0,0.0,0.0,0.0,0.0,0.0,2.0825,2.3917,2.5146,2.6651,2.8586,3.033,3.119,3.119,3.119,3.0412,2.9028,2.9533,2.8755,2.6996,0.0,0.0,2.4849,2.3549,2.2954,0.0,0.0,0.0,0.0,0.0,0.0,0.0,0.0,3.1045,3.0686,3.2455,3.1954,3.1374,3.4461,3.6746,3.8719,4.0998,4.515,4.9677,5.3225,5.3495,5.5548,6.5474,6.6493,6.568,6.6941,6.8278,6.8671,6.6853,6.9398,7.1938,7.2545,7.7799,8.1954,8.2338,8.337,8.4854,8.6924,8.7564,8.8363,8.9748,9.071,9.121,9.1136,9.1336,9.1533,9.1718,9.2015,9.2235,9.2481,9.2507,9.2912,9.381,9.4669,9.5527,9.6386,9.6074,9.623,9.6816,9.6542,9.6542,9.6855,9.744,9.7714,9.7714,9.7714,9.8026,9.8533,9.8487,9.9033,9.9697,9.883,9.8305,9.8022,0.0,0.0,0.0,0.0,0.0,0.0,0.0,0.0,0.0,0.0,0.0,0.0,0.0,0.0,0.0,0.0,0.0,0.0,1.7425,1.7401,1.793,0.0,0.0,2.0965,2.3917,2.4337,2.6013,2.9028,3.0446,3.119,3.119,3.119,3.0412,2.9028,2.8958,2.8552,0.0,0.0,0.0,2.5876,2.4391,2.351,2.3116,0.0,0.0,0.0,0.0,0.0,0.0,0.0,3.0119,3.0071,3.2271,3.1984,3.1397,3.4461,3.9756,4.4955,4.6616,4.9528,5.3309,5.8051,5.7716,5.891,6.9019,6.6101,6.4165,7.4223,7.4086,7.224,7.2547,7.403,7.5285,7.5283,7.8751,8.2146,8.4322,8.5279,8.6194,8.7291,8.8171,8.9017,8.9825,9.071,9.1136,9.0989,9.1198,9.1376,9.1566,9.1859,9.2152,9.249,9.2498,9.2912,9.381,9.4669,9.5567,9.6425,9.7284,9.7714,9.7675,9.6816,9.6894,9.7714,9.7714,9.7714,9.7714,9.7714,9.8729,10.029,10.0187,10.0685,10.1388,10.0498,9.9668,9.8887,0.0,0.0,0.0,0.0,0.0,0.0,0.0,0.0,0.0,0.0,0.0,0.0,0.0,0.0,0.0,0.0,0.0,0.0,1.7635,1.7635,1.799,1.8859,1.9521,0.0,0.0,0.0,2.6996,2.9028,2.9973,3.0683,3.119,3.0683,2.9905,2.8958,2.8416,0.0,0.0,0.0,0.0,0.0,2.4305,2.3484,2.3052,0.0,0.0,0.0,0.0,0.0,0.0,0.0,0.0,0.0,3.0807,3.1094,3.1201,3.3752,3.6175,3.8683,4.1722,4.9196,5.5996,5.5658,6.1131,6.7542,7.1181,6.9626,6.9133,7.5279,7.4786,7.3078,7.2661,7.627,7.8435,7.574,7.982,8.3639,8.4476,8.5923,8.7257,8.8209,8.9056,8.9902,9.0748,9.0947,9.1064,9.0989,9.1354,9.155,9.1592,9.2034,9.2341,9.2417,9.3057,9.3825,9.4723,9.5598,9.6464,9.7323,9.7597,9.7714,9.7675,9.744,9.744,9.7714,9.7714,9.7714,9.7753,9.8322,9.9563,10.1085,10.0392,10.0693,10.1317,10.0487,9.9617,9.8812,0.0,0.0,0.0,0.0,0.0,0.0,0.0,0.0,1.5621,1.6342,1.703,1.7496,0.0,0.0,0.0,1.7749,1.7726,0.0,1.7726,1.7726,1.8063,1.8805,1.9292,2.0407,2.226,2.4898,2.686,2.8078,2.9127,2.9871,3.0311,2.9871,2.9262,2.8484,2.8044,2.7637,0.0,0.0,0.0,2.5403,2.4654,2.3946,2.3319,0.0,0.0,0.0,0.0,0.0,0.0,0.0,0.0,0.0,3.0198,3.0885,3.202,3.6512,3.8518,4.0932,4.8598,5.4795,5.9771,6.271,6.7468,7.2166,7.4825,7.4409,7.4258,7.6922,7.7111,7.6652,7.6159,7.9464,8.1524,7.9285,8.1919,8.448,8.5082,8.6449,8.7709,8.8594,8.9402,9.0213,9.1024,9.1064,9.1026,9.1098,9.1406,9.1618,9.1694,9.2143,9.2405,9.2405,9.327,9.4198,9.5104,9.598,9.6847,9.7714,9.7714,9.7714,9.7714,9.7714,9.7714,9.7714,9.7714,9.7862,9.8244,9.9085,10.0207,10.1406,10.1294,10.1477,10.1906,10.1308,10.0398,9.9318,0.0,0.0,0.0,0.0,0.0,0.0,0.0,1.5189,1.59,1.6699,1.7388,1.7794,0.0,0.0,0.0,1.7726,1.7704,1.767,1.7704,1.7704,1.803,1.8751,1.8843,1.9959,2.226,2.4289,2.5744,2.659,2.8112,2.896,2.9028,2.889,2.8484,2.7772,2.7705,2.7334,0.0,0.0,0.0,2.5345,2.5352,2.4757,2.3869,2.3737,0.0,0.0,0.0,0.0,0.0,0.0,0.0,0.0,3.0055,3.1064,3.3188,4.0451,4.3844,4.8152,6.0925,6.3038,6.413,7.4485,7.4941,7.4096,7.9049,7.9502,7.8891,7.8891,8.019,8.1334,8.1326,8.2745,8.4095,8.4328,8.4442,8.4897,8.606,8.6978,8.7825,8.8709,8.9517,9.0255,9.0912,9.0952,9.1062,9.1159,9.1465,9.1669,9.1894,9.2215,9.2393,9.2393,9.3326,9.4217,9.5056,9.6041,9.6909,9.7675,9.7714,9.7714,9.7714,9.7714,9.7714,9.7714,9.7792,9.8283,9.9085,9.9944,10.0782,10.1606,10.24,10.262,10.2607,10.2616,10.151,9.999,0.0,0.0,0.0,0.0,0.0,0.0,1.5155,1.5494,1.6069,1.7388,1.7693,1.7794,1.7794,1.7749,0.0,1.7726,1.7612,1.7566,1.7635,1.7635,1.7702,1.787,1.8488,1.9909,2.226,2.2767,2.3951,2.5845,2.7334,2.8383,2.8994,2.8349,2.7977,2.7739,2.7199,2.686,0.0,0.0,2.663,2.5952,2.6184,2.5517,2.4361,2.4313,2.4409,0.0,0.0,0.0,0.0,0.0,0.0,0.0,2.8784,3.0198,3.2179,3.4515,3.9772,4.5897,5.0859,5.9328,6.7543,7.0687,7.4937,7.866,7.9718,7.9789,7.968,7.9727,8.0072,8.0528,8.117,8.2247,8.3288,8.4251,8.4978,8.5817,8.6945,8.7863,8.8709,8.9556,9.0293,9.0797,9.0989,9.0877,9.0877,9.1159,9.1406,9.1618,9.1894,9.2238,9.2405,9.2405,9.3913,9.4835,9.5003,9.6568,9.7446,9.7611,9.7667,9.7714,9.7714,9.7714,9.7714,9.7753,9.8416,9.9181,9.9983,10.0821,10.1606,10.24,10.2592,10.2187,10.1798,10.2406,10.112,9.9172,0.0,0.0,0.0,0.0,0.0,0.0,0.0,0.0,1.6509,1.7659,1.7794,1.7772,1.7749,1.7726,0.0,0.0,1.7542,1.7566,1.7726,1.7612,1.7733,1.8138,1.8925,1.9891,2.115,2.1894,2.3038,2.456,2.6048,2.7131,2.7875,2.7469,2.7266,2.7266,2.7028,2.6923,0.0,2.7276,2.7039,2.6394,2.6599,2.6083,2.5229,2.5205,2.5278,2.5398,2.5398,0.0,0.0,0.0,0.0,0.0,0.0,0.0,3.1984,3.5799,3.8695,4.2945,5.3379,6.015,6.5766,7.2314,7.7021,7.9984,7.9941,7.9903,7.9946,7.9946,7.9988,8.0372,8.1626,8.2403,8.3332,8.4748,8.5474,8.6194,8.7252,8.8132,8.8979,8.9825,9.0526,9.0991,9.0953,9.0799,9.0876,9.1284,9.1436,9.1708,9.213,9.2308,9.2586,9.3015,9.4276,9.5161,9.5602,9.6926,9.7611,9.7602,9.765,9.7667,9.7714,9.7714,9.7714,9.7753,9.8596,9.9436,10.0314,10.1099,10.188,10.2592,10.2601,10.2094,10.151,10.2289,10.1003,9.8977,0.0,0.0,0.0,0.0,0.0,0.0,0.0,0.0,0.0,1.7693,1.7772,1.7749,1.7726,1.7704,1.7635,0.0,0.0,0.0,1.7905,1.7681,1.7947,1.8829,1.942,1.979,2.0002,2.1414,2.2462,2.3207,2.4695,2.5778,2.6522,2.6623,2.6691,2.6725,2.7053,2.7181,2.7149,2.7582,2.743,2.6906,2.7059,2.6728,2.6188,0.0,0.0,2.6297,2.6309,2.6381,2.6657,2.7439,0.0,0.0,0.0,0.0,3.1822,3.7875,3.8612,4.103,5.7171,6.1309,6.399,7.6066,7.9524,7.9941,7.9898,7.9988,7.9916,7.9562,7.9798,8.0566,8.2195,8.2716,8.3448,8.5399,8.589,8.6377,8.7478,8.8248,8.9021,8.9983,9.0642,9.0953,9.0838,9.0685,9.0795,9.1455,9.1395,9.1649,9.2377,9.2391,9.282,9.3677,9.4496,9.5328,9.6252,9.7162,9.7616,9.7583,9.7593,9.765,9.7714,9.7714,9.7792,9.794,9.8782,9.9611,10.0514,10.1308,10.2007,10.2601,10.2601,10.2016,10.1315,10.2211,10.1003,9.9055,0.0,0.0,0.0,0.0,0.0,0.0,0.0,0.0,0.0,0.0,1.7749,1.7726,1.7726,1.7589,1.7589,1.776,1.7704,1.7794,1.807,0.0,0.0,1.9098,1.8964,1.9202,1.9976,2.088,2.1657,2.2372,2.3917,2.5002,2.568,2.6353,2.6691,2.6725,2.7053,2.7181,2.7213,2.7725,2.7883,2.7868,2.8174,2.7785,0.0,0.0,0.0,2.7114,2.6989,2.7507,2.8268,2.9044,2.9314,0.0,0.0,0.0,3.0862,3.2481,3.765,4.3627,4.7485,5.7604,6.9395,7.8755,8.0591,8.0068,7.9941,8.0072,7.9816,7.8131,7.9167,8.0808,8.2238,8.2375,8.3065,8.5322,8.5852,8.653,8.8286,8.8525,8.9143,9.0644,9.0876,9.0838,9.0759,9.0298,9.0416,9.1417,9.0996,9.1199,9.2338,9.2391,9.282,9.3677,9.4496,9.5314,9.6186,9.7149,9.7591,9.7604,9.7622,9.765,9.7714,9.7714,9.8096,9.8773,9.9631,10.0498,10.1295,10.2192,10.2592,10.2601,10.2601,10.1588,10.0497,10.2016,10.1003,9.9055,0.0,0.0,0.0,0.0,0.0,0.0,0.0,0.0,0.0,0.0,0.0,1.7839,1.7816,1.7861,1.7893,1.7958,1.7915,1.7915,1.8057,1.8369,1.8927,1.9737,1.9504,1.9589,2.0186,2.0892,2.1516,2.191,2.359,2.4838,2.5737,2.651,2.6886,2.6891,2.7457,2.7636,2.7582,2.8073,2.821,2.8136,2.8327,3.0088,3.2211,0.0,0.0,0.0,0.0,0.0,2.8468,2.8838,2.8919,2.8892,2.8864,0.0,0.0,0.0,3.4388,4.0191,5.0172,6.0416,7.0148,7.8045,7.9647,7.9233,7.8656,7.9127,7.9247,7.791,7.879,8.0049,8.0961,8.1729,8.2986,8.5317,8.5881,8.6603,8.8333,8.8602,8.9182,9.0761,9.0954,9.0724,9.0298,8.9983,9.0126,9.0933,9.0763,9.1141,9.2338,9.2391,9.3015,9.434,9.4729,9.5548,9.6912,9.7355,9.7564,9.7591,9.7611,9.7602,9.7659,9.7659,9.8119,9.8968,9.9807,10.0709,10.149,10.228,10.2616,10.2601,10.2094,10.151,10.0886,10.1705,10.0886,9.9756,0.0,0.0,0.0,0.0,0.0,0.0,0.0,0.0,0.0,0.0,0.0,1.8117,1.8266,0.0,0.0,0.0,1.8745,1.8745,1.8808,1.9126,1.9613,2.0325,1.9883,1.9824,2.0347,2.1044,2.1522,2.1718,2.3507,2.4838,2.5708,2.6653,2.7103,2.7213,2.7811,2.7982,2.7876,2.8264,2.8353,2.8362,3.0084,3.3296,3.678,0.0,0.0,0.0,0.0,3.1304,3.1232,2.9557,2.8847,2.8649,2.8622,2.8452,0.0,0.0,0.0,3.6707,5.1307,5.9321,6.5578,7.4328,7.6726,7.711,7.7716,7.8522,7.8714,7.734,7.8065,7.913,7.9702,8.142,8.3364,8.5155,8.5796,8.6599,8.7955,8.8448,8.9105,9.0417,9.0838,9.0793,9.0273,8.987,9.0024,9.0863,9.0596,9.0963,9.2338,9.2391,9.3171,9.4846,9.4885,9.5743,9.7496,9.7496,9.7511,9.7591,9.76,9.7583,9.7593,9.7827,9.8402,9.926,9.9902,10.0801,10.1788,10.2421,10.2601,10.2484,10.1705,10.1393,10.1393,10.1198,10.0691,10.0302,0.0,0.0,0.0,0.0,0.0,0.0,0.0,0.0,0.0,0.0,0.0,1.8481,1.9252,1.9277,1.9599,2.0508,2.0674,2.0838,2.1024,2.0117,1.9934,2.0736,1.9682,0.0,2.0443,2.1103,2.1531,2.1801,2.3749,2.4854,2.5177,2.67,2.7487,2.7672,2.784,2.7897,2.7897,2.8183,2.83,2.8837,3.4914,3.7572,3.8473,4.4357,4.7379,4.7616,4.1071,3.9262,3.9007,3.2775,3.0084,2.9333,2.9333,2.8834,2.837,0.0,0.0,0.0,4.4559,4.8696,5.3628,6.69,7.1027,7.311,7.7759,7.898,7.837,7.5818,7.6694,7.8139,7.8884,8.1939,8.4391,8.4729,8.5488,8.6368,8.7148,8.7993,8.8802,8.9573,9.0629,9.122,9.1154,9.0171,9.0149,9.1721,9.0608,9.0585,9.2313,9.2391,9.3171,9.4846,9.4885,9.5743,9.7496,9.7496,9.7511,9.7591,9.7591,9.7616,9.7639,9.8458,9.9266,10.0008,10.0086,10.1008,10.2484,10.2601,10.2601,10.2484,10.1705,10.1393,10.1315,10.0497,10.0107,10.0107,0.0,0.0,0.0,0.0,0.0,0.0,0.0,0.0,0.0,0.0,0.0,0.0,0.0,1.8889,1.9094,1.9436,1.9952,0.0,0.0,2.0032,1.9876,2.0225,1.959,1.9504,2.0033,2.1231,2.1662,2.1348,2.3151,2.4234,2.4629,2.6169,2.6972,2.712,2.786,2.8156,2.8144,2.8782,2.908,2.9728,3.6412,4.1348,4.46,4.3345,4.772,5.3228,4.3439,4.0336,4.0397,3.7546,3.4045,3.0796,3.0355,2.9647,2.9283,3.0792,3.306,3.6911,4.5402,4.813,5.1179,6.1766,6.7212,7.0366,7.2088,7.5894,7.8485,7.6389,7.7454,7.8894,7.9225,8.0941,8.2736,8.4247,8.4714,8.5416,8.6995,8.7456,8.815,8.942,9.0163,9.0574,9.0625,9.0361,9.0324,9.0547,9.0609,9.0911,9.1534,9.2119,9.3171,9.4846,9.4885,9.5743,9.7496,9.7496,9.7511,9.755,9.7578,9.7591,9.7604,9.7916,9.8812,10.0086,10.0097,10.1096,10.2601,10.2601,10.2289,10.1705,10.0886,10.0886,10.1198,9.9795,9.9951,10.0886,0.0,0.0,0.0,0.0,0.0,0.0,0.0,0.0,0.0,1.9143,0.0,0.0,0.0,0.0,1.9704,1.974,2.0132,2.0474,2.0644,2.0206,1.9912,1.9932,1.9452,1.9391,1.985,2.0554,2.1128,2.156,2.2571,2.3567,2.4499,2.5915,2.6658,2.6835,2.7861,2.8273,2.8263,2.916,2.9565,3.0395,3.9496,4.4441,4.6468,4.7196,5.1417,5.5953,4.7927,4.5564,4.5981,4.4971,4.2193,3.8684,3.5695,3.2791,3.0684,3.2162,3.3858,3.6654,4.3044,4.4879,4.7041,5.5826,6.0776,6.4464,6.8126,7.2619,7.6046,7.6046,7.7492,7.8823,7.9041,7.9757,8.108,8.338,8.4099,8.4844,8.6188,8.6841,8.7612,8.8689,8.9646,9.0284,9.0379,9.0612,9.0747,9.0663,9.095,9.1222,9.1534,9.208,9.3171,9.4846,9.547,9.6327,9.7496,9.7496,9.7496,9.7496,9.7564,9.7578,9.7578,9.7889,9.8786,10.0112,10.0395,10.1315,10.2601,10.2289,10.2016,10.1705,10.0497,10.0808,10.1588,9.9873,10.0185,10.1393,0.0,0.0,0.0,0.0,0.0,0.0,0.0,0.0,2.0407,2.1198,0.0,0.0,0.0,0.0,0.0,2.1607,2.1496,2.1475,2.155,2.0717,2.0155,2.0003,0.0,0.0,1.9967,1.914,1.989,2.2374,2.2036,2.287,2.4789,2.5968,2.6674,2.7004,2.7835,2.8227,2.8298,2.9215,2.9656,3.0892,4.4402,4.6906,4.3938,5.6786,5.9516,5.6351,5.5266,5.5461,5.6145,5.4872,5.4048,5.2295,4.4976,3.7988,3.2574,3.3117,3.3615,3.4548,0.0,0.0,0.0,4.8768,5.1722,5.5472,6.6199,6.942,7.1064,7.4409,7.658,7.7951,7.8175,7.865,7.9729,8.1993,8.3599,8.4613,8.4652,8.6111,8.7148,8.7148,8.9079,9.0415,9.0516,9.0867,9.1456,9.2313,9.1612,9.1495,9.2313,9.243,9.321,9.4846,9.6561,9.7457,9.7496,9.7496,9.7496,9.7496,9.7496,9.7496,9.7535,9.8392,9.925,10.0107,10.1003,10.1782,10.2484,10.1782,10.1899,10.2406,10.0808,10.112,10.2406,10.0691,10.0691,10.1315,0.0,0.0,0.0,0.0,0.0,1.9957,2.0101,2.0643,2.1076,0.0,0.0,0.0,0.0,0.0,2.1752,2.2391,2.2369,2.2405,2.2557,2.1735,2.097,2.0405,1.9536,1.9142,1.9344,2.0246,2.1021,2.161,2.2697,2.353,2.4107,2.5494,2.6222,2.6417,2.7821,2.873,2.9251,3.0076,3.1139,3.3327,4.5305,5.0405,5.1521,5.8577,6.403,6.7275,6.2711,5.9212,5.7076,5.974,5.2772,4.2352,3.8525,3.6059,3.4574,3.4755,3.4439,3.4633,3.7164,0.0,0.0,0.0,0.0,0.0,5.712,6.5703,7.2282,7.065,7.658,8.1194,7.8332,7.8279,7.9313,8.1278,8.1798,8.2424,8.3715,8.4729,8.5616,8.6296,8.761,8.9023,9.0376,9.0752,9.1053,9.1442,9.1807,9.1885,9.1495,9.2664,9.3833,9.4885,9.5976,9.6873,9.7496,9.7496,9.7496,9.7496,9.7496,9.7496,9.7496,9.773,9.8665,10.0107,10.0419,10.1315,10.2601,10.2406,10.2094,10.1705,10.1198,10.1315,10.1588,10.0497,10.0691,10.1393,0.0,0.0,1.9355,1.9606,2.0026,2.068,2.1586,2.2168,2.2696,0.0,0.0,0.0,0.0,0.0,0.0,2.338,2.3359,2.3213,2.2905,2.2465,2.1826,2.095,2.0164,1.9693,1.9611,2.0207,2.0826,2.1401,2.2379,2.334,2.4339,2.5538,2.6296,2.6682,2.7958,2.915,3.0297,3.1008,3.2169,3.46,4.7074,5.1673,5.2006,6.0055,6.4813,6.7049,6.5953,6.3914,6.252,6.7884,5.9911,4.7559,4.6824,4.2275,3.6945,3.5925,3.564,0.0,0.0,0.0,3.8001,4.002,0.0,0.0,5.4683,6.2243,6.9241,7.3495,7.8218,8.1003,7.9209,7.9127,7.9685,8.0792,8.1018,8.1392,8.2324,8.3418,8.4464,8.5483,8.6508,8.777,8.9314,8.9955,9.053,9.1041,9.1561,9.1782,9.1651,9.2937,9.4067,9.4885,9.5743,9.66,9.7496,9.7496,9.7496,9.7496,9.7496,9.7496,9.7496,9.7496,9.8236,9.9561,9.9951,10.0886,10.2094,10.2484,10.2289,10.1899,10.151,10.1588,10.1782,10.1315,10.151,10.1899,0.0,0.0,1.9675,2.042,2.0712,2.1516,2.3608,2.4162,2.4823,0.0,2.6512,2.6355,0.0,0.0,0.0,0.0,2.4483,2.4114,2.3269,2.3253,2.2831,2.1843,2.1131,2.0656,2.0444,1.9911,2.0296,2.1641,2.1733,2.2894,2.5071,2.5869,2.669,2.7513,2.8263,2.9548,3.1217,3.2074,3.3506,3.6213,4.8611,5.1541,4.9701,6.1455,6.4209,6.2501,6.7505,6.9057,6.9588,7.5056,6.9845,6.1064,6.1174,5.2197,4.0892,3.7363,3.7069,0.0,0.0,0.0,0.0,4.0477,4.1195,0.0,5.4874,5.8394,6.3328,7.7016,7.9398,7.9209,7.9743,7.833,7.7071,7.7111,7.878,8.0284,8.0823,8.2259,8.361,8.4516,8.5505,8.6544,8.7685,8.8692,8.973,9.086,9.1028,9.1496,9.2352,9.3132,9.3911,9.4729,9.5626,9.6483,9.7355,9.7457,9.7496,9.7496,9.7496,9.7496,9.7496,9.7496,9.7964,9.8821,9.96,10.0497,10.151,10.2211,10.2484,10.2484,10.1782,10.2016,10.2601,10.2601,10.2601,10.2601,2.0644,2.053,2.0668,2.14,2.2593,2.362,2.4078,2.5353,2.6351,2.6518,2.6591,2.6796,2.7273,0.0,0.0,0.0,0.0,2.6041,2.5894,2.5291,2.4557,2.3711,2.2923,2.2154,2.1352,2.1953,2.2356,2.2555,2.3174,2.4125,2.536,2.6176,2.7069,2.7922,2.8804,3.0145,3.1755,3.3276,3.7578,4.368,4.624,5.1142,5.7589,6.3722,6.9361,7.4136,7.5232,7.3035,6.9133,6.5717,6.5641,6.5341,5.6285,5.364,5.1982,4.2044,3.8696,3.8061,3.7461,3.8267,3.945,4.0096,4.0756,0.0,4.5978,5.1597,5.711,6.1191,7.2646,8.0677,7.6695,6.4971,5.5875,5.5868,6.5194,7.4465,8.0251,8.1853,8.2534,8.2785,8.3618,8.482,8.6544,8.7065,8.7992,8.9769,9.0638,9.1496,9.2352,9.2547,9.3054,9.3911,9.4729,9.5601,9.6525,9.716,9.7511,9.7578,9.7511,9.7496,9.7496,9.7496,9.7964,9.8821,9.8977,9.9951,10.1393,10.1588,10.2016,10.2601,10.2406,10.2484,10.2601,10.2601,10.2601,10.2601,2.1014,2.1218,2.1801,2.298,2.3836,2.48,2.6061,2.6913,2.7651,2.8418,2.8809,2.9145,2.9549,2.9219,0.0,0.0,0.0,0.0,2.7824,2.7053,2.6245,2.5438,2.463,2.3804,2.2905,2.3364,2.3364,2.2905,2.3709,2.4797,2.6151,2.6578,2.9258,3.3642,3.1175,3.282,3.7405,3.6171,3.8901,4.4497,4.983,5.6526,6.399,6.9626,7.4366,7.8002,7.8087,7.6761,7.4485,7.0877,6.8071,6.6018,6.5014,6.0501,5.4465,4.8972,4.3857,3.9802,3.9169,3.9865,4.0667,4.0114,4.03,0.0,0.0,4.9607,5.3297,5.5701,6.4382,6.9712,6.3574,5.5668,5.0102,5.0108,6.1017,6.9832,7.0686,7.7313,8.2122,8.2155,8.3022,8.4027,8.5048,8.5723,8.6941,8.8937,9.0327,9.1301,9.1717,9.2171,9.282,9.3677,9.451,9.5381,9.6239,9.7096,9.7564,9.7564,9.7511,9.7496,9.7496,9.7496,9.773,9.8197,9.8626,9.9289,10.0185,10.1003,10.1588,10.2016,10.2406,10.2406,10.2094,10.2484,10.2289,10.2016,2.1821,2.2229,2.3072,2.4575,2.5099,2.6034,2.8185,2.8556,2.9167,3.0739,3.2231,3.3202,3.3349,3.4249,3.4855,3.4855,0.0,0.0,3.1323,3.0586,2.9789,2.8741,2.7059,2.6217,2.6307,2.5299,2.4469,2.3805,2.4469,2.5597,2.7159,2.7159,3.0897,3.7483,3.417,3.5935,4.1255,3.9664,4.1405,4.6051,5.5435,6.1671,6.5947,7.2396,7.5886,7.7548,7.8811,7.9844,8.0418,7.9229,7.3079,6.6961,7.2808,6.6688,5.677,5.404,4.9494,4.4842,4.245,4.1917,4.1825,4.0756,4.049,4.1781,0.0,0.0,0.0,5.2601,5.5472,5.5731,5.0081,4.9198,4.9145,4.8452,5.8343,6.4443,5.9551,7.0342,7.8803,7.8803,8.1464,8.2964,8.2173,8.3374,8.5421,8.8316,8.9181,9.0015,9.1041,9.1938,9.2703,9.3443,9.429,9.5161,9.5952,9.6862,9.7369,9.7511,9.7496,9.7496,9.7496,9.7496,9.7496,9.7535,9.8236,9.8626,9.8899,10.0302,10.1081,10.151,10.2289,10.2211,10.1705,10.2406,10.2094,10.1393,2.4436,2.4452,2.476,2.5527,2.6877,2.8222,2.9213,3.0096,3.1186,3.2713,3.6684,3.9658,4.0337,4.4587,4.7357,4.7357,4.7958,4.5731,3.95,3.9016,3.8146,3.6332,3.1528,3.0494,3.3969,2.9324,2.6793,2.6735,2.6793,2.7301,2.8128,2.8341,2.9297,3.1148,3.7293,3.8112,3.5382,4.2995,4.989,5.6057,6.0231,6.0183,5.8122,6.3217,6.8451,7.3757,7.8993,8.142,8.2071,8.133,7.7792,7.2281,6.4419,6.579,6.72,5.1726,5.2798,5.6708,4.6315,4.3506,4.327,4.2405,4.2155,4.2534,4.4091,0.0,4.4744,4.5132,0.0,4.6763,4.5993,0.0,0.0,4.1755,4.9879,5.5806,5.3623,6.134,6.7209,6.737,7.612,8.0438,7.6002,7.7975,8.1988,8.7907,8.5687,8.6143,9.0846,9.1938,9.2469,9.2547,9.3366,9.4251,9.5135,9.5966,9.6784,9.7578,9.7511,9.7496,9.7496,9.7496,9.7496,9.7496,9.7613,9.8081,9.8821,9.9016,9.999,10.151,10.2289,10.2484,10.2484,10.2601,10.2094,10.1393,2.5397,2.5343,2.6034,2.728,2.8454,2.9509,3.0356,3.1996,3.3631,3.4982,3.7505,3.9425,4.0058,4.2275,4.4664,4.707,4.7537,4.609,4.2275,4.1968,0.0,3.5317,3.244,3.125,3.1998,2.927,2.7616,2.7198,2.7198,2.7646,2.852,2.8591,3.1459,3.6692,4.0397,4.406,4.7834,5.2161,5.5113,5.7203,6.143,6.0703,5.8334,7.0043,7.6335,7.9291,8.2254,8.3544,8.3802,8.3563,7.9195,7.3725,7.2547,6.6295,5.9314,5.9039,5.9671,5.8387,4.896,4.7922,4.859,4.4825,4.6076,4.7441,4.4501,4.4243,4.444,4.3798,0.0,0.0,0.0,0.0,0.0,0.0,4.9784,5.3214,5.0062,5.7232,6.3518,6.5192,7.0011,7.3829,7.5281,8.0933,8.5343,8.744,8.839,8.9317,9.0345,9.1664,9.238,9.238,9.3237,9.3861,9.4251,9.5069,9.5927,9.6784,9.677,9.6989,9.7496,9.7496,9.7496,9.7496,9.7496,9.7691,9.8081,9.8587,9.9211,9.999,10.1393,10.1899,10.2016,10.2406,10.1782,10.0613,2.6657,0.0,2.7646,2.8586,2.9596,3.0734,3.2096,3.4472,3.6465,3.738,3.9814,4.1707,4.2258,4.4869,4.7786,5.077,5.2447,5.1963,4.8673,4.7561,4.5358,4.163,3.6167,3.397,3.5684,3.1393,2.8885,2.8401,2.8121,2.8358,2.9072,2.927,3.2683,3.8766,4.1884,4.758,5.4971,5.7886,5.9688,6.0883,6.4609,6.5589,6.6008,7.6274,8.1782,8.4176,8.4919,8.5495,8.5914,8.596,8.1079,7.5354,7.7608,6.8296,5.7456,6.2427,6.3144,6.0373,5.1243,5.1368,5.2786,4.7024,4.8211,4.9728,4.5556,4.4843,4.489,4.4135,4.364,0.0,0.0,0.0,4.4874,0.0,0.0,4.9784,4.6007,5.1972,5.7726,6.0455,6.2921,6.7006,7.36,8.0145,8.4248,8.4809,8.8361,9.034,8.9905,9.127,9.2171,9.2405,9.2783,9.3081,9.3327,9.3978,9.4796,9.5859,9.6093,9.6639,9.7496,9.7496,9.7496,9.7496,9.7496,9.7496,9.7535,9.8197,9.8587,9.8938,10.0185,10.0808,10.112,10.2016,10.1315,10.0107,2.8823,2.9459,2.9803,2.8955,3.0167,3.2124,3.4666,3.7719,3.973,3.9785,4.5494,4.9803,5.0468,5.871,6.4301,6.4552,6.9728,6.9771,6.2264,5.8829,5.8527,6.1803,4.5273,4.0797,5.1066,3.8109,3.1264,3.1355,3.0433,3.0037,3.0075,3.0929,3.1409,3.201,4.1009,4.6083,4.8365,5.6527,6.428,7.1178,7.1864,7.6655,8.271,7.6714,7.8976,8.5399,8.5727,8.694,8.8435,8.8668,8.4627,7.8527,7.3061,7.2178,7.0467,5.6907,6.0342,6.5792,5.3251,5.2537,5.4039,4.8656,4.7049,4.6746,4.6632,4.5797,4.5038,4.52,4.5239,4.469,4.3012,0.0,0.0,0.0,0.0,0.0,0.0,4.3323,4.6549,4.9099,5.4535,6.1124,6.8876,7.1204,7.4187,7.8903,8.2311,8.5874,8.971,9.0685,9.1547,9.2366,9.1587,9.1573,9.243,9.2469,9.3327,9.4963,9.5782,9.6639,9.7496,9.7496,9.7496,9.7496,9.7496,9.7496,9.7496,9.7535,9.8042,9.8821,9.886,9.9405,10.0185,10.1081,10.0886,9.999,3.0868,3.1405,3.1673,3.0647,3.1394,3.3408,3.716,3.9127,4.1701,4.6031,4.9258,5.2436,5.5836,5.9703,6.3217,6.6017,6.9011,6.9169,6.5536,6.2078,5.9938,5.9501,4.6235,4.1521,4.725,3.7927,3.3064,3.3165,3.2271,3.1836,3.1836,3.2103,3.2829,3.4187,4.1757,4.9378,5.7013,6.3171,6.9065,7.4298,7.4753,7.7006,8.0131,8.053,8.3201,8.6794,8.741,8.8682,9.0217,9.0416,8.8984,8.6423,8.2062,8.1561,8.1282,7.4686,7.5726,7.6958,6.7653,6.6563,6.5884,5.6702,5.678,5.716,4.9543,4.7644,4.7074,4.5594,4.52,4.4919,4.4364,0.0,0.0,0.0,0.0,0.0,0.0,4.4015,4.5452,4.6282,5.3175,5.9098,6.2299,7.1773,7.7582,7.7312,8.4631,8.9129,8.9111,9.0413,9.1291,9.1603,9.1287,9.095,9.0677,9.069,9.1534,9.3249,9.4145,9.5275,9.6639,9.7223,9.7496,9.7496,9.7496,9.7496,9.7496,9.7496,9.7652,9.8003,9.8587,9.9342,10.0097,10.0395,9.999,9.9133,3.2212,3.2519,3.2595,3.156,3.286,3.5376,3.935,4.0937,4.3867,4.9901,5.2142,5.4986,5.9852,6.2344,6.4918,6.7918,7.0769,7.1044,6.7927,6.648,6.4823,6.2727,5.3187,4.9839,5.3922,4.37,3.8365,3.8438,3.4852,3.2981,3.2691,3.3012,3.3891,3.5403,4.008,4.8272,5.8959,6.5925,7.2349,7.8052,7.8884,8.0009,8.1079,8.0531,8.2522,8.5887,8.8145,9.0055,9.1489,9.1577,9.1256,9.0456,8.8544,8.7499,8.6662,8.5088,8.4895,8.3463,7.5692,7.4193,7.2747,6.3962,6.2791,6.1261,5.1713,5.104,5.2474,5.2614,4.9009,4.7538,5.2855,4.9472,0.0,0.0,0.0,0.0,0.0,4.4129,4.4782,4.5065,5.0517,5.5428,5.8464,6.764,7.4383,7.6799,8.3543,8.7884,8.865,8.9688,9.0413,9.0725,9.0401,8.9937,8.9352,8.9326,9.0209,9.1963,9.282,9.4262,9.621,9.6795,9.7223,9.7496,9.7496,9.7496,9.7496,9.7496,9.7496,9.7535,9.7784,9.8421,9.9267,9.9513,9.9084,9.8279,3.2966,3.3018,3.2878,3.2223,3.4678,3.7901,4.1238,4.3419,4.6529,5.1718,5.4655,5.8203,6.3269,6.7352,7.0103,7.0997,7.5564,7.5993,7.0363,7.2169,7.3039,7.2143,6.5512,6.4556,7.0342,5.4661,4.6542,4.6691,3.8175,3.3658,3.2974,3.3777,3.4617,3.5441,3.6557,4.3156,5.4172,6.4407,7.3999,8.2533,8.4233,8.557,8.5696,7.7658,7.7905,8.3153,8.8295,9.1144,9.2416,9.2386,9.1631,9.0875,9.1819,8.9818,8.7126,8.7176,8.7059,8.5186,7.7448,7.5564,7.473,7.0118,6.518,5.984,5.3981,5.6184,6.0689,6.5023,5.6587,5.2686,6.6608,5.7566,4.9052,0.0,0.0,0.0,0.0,4.3263,4.4121,4.495,4.6801,5.0535,5.7016,5.9224,6.5025,7.6586,7.8903,8.2414,8.8337,8.8322,8.8648,8.9798,8.8997,8.8494,8.8456,8.8456,8.9313,9.1066,9.1924,9.3677,9.6132,9.6171,9.6678,9.7496,9.7496,9.7496,9.7496,9.7457,9.7418,9.7355,9.6564,9.6772,9.763,9.8449,9.8279,9.76,3.4941,3.5287,3.6454,3.8785,3.9314,4.0181,4.2398,4.6857,5.2239,5.8642,6.3334,6.8025,7.3111,7.5148,7.6263,7.6485,7.8262,7.9031,7.8146,7.5755,7.5856,7.9121,6.9327,6.6155,7.1254,5.6359,4.8848,4.9444,4.0883,3.6642,3.6501,3.6629,3.7127,3.8002,3.888,4.4989,5.4971,6.1089,7.1433,8.3937,8.66,8.581,8.3403,8.651,8.6479,8.5697,9.2937,9.4991,9.4379,9.469,9.4306,9.3527,9.248,9.0713,8.875,8.7545,8.7079,8.6379,8.3714,8.3048,8.1748,7.6038,7.3573,7.1698,6.8354,6.6883,6.6185,6.607,6.3535,6.1427,6.1695,5.723,5.2478,4.9338,0.0,0.0,0.0,0.0,4.387,4.4121,4.9712,5.2927,5.1329,5.9271,6.607,6.9849,7.5331,8.1195,8.7401,8.3908,8.3917,8.8774,8.8082,8.7632,8.7598,8.7573,8.8417,9.0131,9.1028,9.2781,9.5275,9.5898,9.6678,9.7496,9.7496,9.7496,9.7457,9.6795,9.6575,9.6525,9.568,9.59,9.6802,9.76,9.7784,9.76,3.6699,3.7853,3.9662,4.197,4.4974,4.73,4.7971,4.9298,5.3374,6.205,6.5705,6.9706,7.5515,7.8246,7.9939,8.0669,8.117,8.09,7.9515,7.9246,7.9377,7.9862,7.5357,7.4251,7.7313,6.5427,5.8155,5.6007,4.7468,4.1627,3.835,3.8282,3.8706,3.9564,4.0423,4.4475,5.147,6.278,7.278,8.1455,8.6628,8.733,0.0,9.0656,9.1086,8.9884,9.5472,9.6421,9.5083,9.5572,9.5557,9.5035,9.3506,9.2532,9.1754,9.0552,9.0163,8.9735,8.7994,8.7542,8.6529,8.2348,8.1024,7.9881,7.6544,7.3906,7.2002,7.1348,6.9101,6.7859,6.9822,6.3033,5.5116,4.8986,4.6847,4.5735,0.0,0.0,0.0,4.4887,4.9098,5.1155,4.896,5.961,6.6888,6.7376,7.1801,7.6209,8.0289,7.9361,8.0713,8.5097,8.6961,8.7671,8.7273,8.8014,8.9054,9.0365,9.0872,9.2625,9.547,9.5976,9.6678,9.7496,9.7106,9.6912,9.6873,9.603,9.5706,9.5719,9.5639,9.571,9.598,9.7212,9.7632,9.7611,3.8815,4.0623,4.2431,4.3431,5.0394,5.5895,5.5972,5.3395,5.4972,6.482,6.659,6.9206,7.5207,7.9208,8.2016,8.3478,8.3708,8.2247,7.8669,8.2708,8.3285,7.8977,8.2029,8.4225,8.507,7.6562,6.928,6.3475,5.4986,4.7049,3.9797,3.9648,4.0032,4.0914,4.1798,4.4346,4.9142,6.7334,7.6281,7.8915,8.6012,8.9423,9.0421,9.2052,9.3153,9.416,9.6382,9.6278,9.5249,9.5836,9.5953,9.5706,9.4661,9.4364,9.4262,9.3804,9.3585,9.2976,9.0482,8.9897,8.9625,8.8066,8.7183,8.5598,8.1547,7.9384,7.8387,7.8808,7.4678,7.3527,8.2,7.1025,5.8373,5.1294,5.0241,4.9999,4.8958,4.939,0.0,0.0,0.0,0.0,4.8768,5.9223,6.6101,6.6316,6.7772,6.9717,7.2145,7.5132,7.8248,8.148,8.582,8.7894,8.752,8.8884,9.0171,9.1456,9.1222,9.2898,9.621,9.6093,9.6522,9.7262,9.6405,9.6015,9.5976,9.5161,9.4784,9.4796,9.5827,9.5785,9.5293,9.705,9.7659,9.7593,4.3085,4.3547,4.4355,4.597,5.2087,5.8396,6.3166,6.6821,7.0244,7.3553,7.7053,7.9939,8.1823,8.2708,8.3285,8.3555,8.4247,8.4632,8.4555,8.6055,8.6863,8.6709,8.6017,8.6022,8.6906,7.7946,7.0651,6.541,5.6783,4.9429,4.3363,4.2546,4.2623,4.3503,4.4304,5.1336,6.3168,7.1536,7.913,8.5785,8.857,9.0637,9.2139,9.3125,9.4039,9.4823,9.529,9.5667,9.6108,9.6926,9.6575,9.5796,9.5587,9.3638,9.1417,9.1325,9.095,9.0443,8.9936,9.0326,9.0794,9.0482,9.0327,8.982,8.835,8.7231,8.6139,8.4852,8.3711,8.1972,7.8674,7.2577,6.5778,5.8819,6.2313,6.5114,6.2936,6.2762,0.0,0.0,0.0,5.9089,4.9632,5.4725,0.0,0.0,0.0,6.6129,7.53,7.2197,7.4755,8.4795,8.5292,8.6662,8.9313,8.8222,8.956,9.321,9.1807,9.2898,9.6171,9.547,9.5587,9.6366,9.5509,9.5119,9.508,9.4276,9.3536,9.3114,9.4684,9.5215,9.5293,9.6987,9.7593,9.7611,4.547,4.597,4.7661,5.2141,5.8548,6.5203,7.1621,7.729,7.9856,7.7044,7.8438,8.0208,8.1477,8.3593,8.5093,8.5517,8.594,8.6555,8.7401,8.6978,8.7325,8.8632,8.6632,8.567,8.6094,8.1285,7.4514,6.5846,6.1272,5.4408,4.5591,4.5131,4.517,4.5764,5.0163,5.6114,6.3469,7.3211,7.9361,8.3001,8.7926,9.0657,9.1866,9.2702,9.3809,9.4952,9.4952,9.5484,9.621,9.6171,9.5782,9.5314,9.5314,9.4184,9.2898,9.2898,9.2664,9.2352,9.1924,9.1807,9.1612,9.1041,9.047,9.0041,9.0249,9.0,8.9348,8.8217,8.7994,8.5827,7.8713,7.3745,6.9356,6.4967,6.5529,6.6728,6.7329,6.7774,6.6612,0.0,0.0,0.0,0.0,0.0,0.0,0.0,0.0,6.4426,7.1641,7.0283,7.3207,8.1733,8.5086,8.7286,8.8456,8.856,9.008,9.3015,9.2197,9.3327,9.6171,9.5782,9.5548,9.547,9.4651,9.4276,9.4212,9.3392,9.2841,9.2676,9.4427,9.5098,9.5293,9.6987,9.7583,9.76,4.9006,5.0008,5.2798,5.9796,6.6496,7.2788,7.8301,8.434,8.6211,8.0469,7.9708,8.0131,8.1285,8.4401,8.6594,8.7094,8.7506,8.804,8.8632,8.7776,8.777,8.8964,8.689,8.569,8.556,8.4674,7.8931,6.8077,6.6126,5.9249,4.7951,4.7394,4.7951,4.964,5.5763,6.036,6.4191,7.4505,7.9429,8.0896,8.7504,9.0663,9.1508,9.251,9.3744,9.4885,9.4885,9.5236,9.5548,9.4885,9.4885,9.5158,9.5158,9.5041,9.4885,9.469,9.4651,9.4457,9.3638,9.3054,9.2469,9.1651,9.0755,9.0326,9.1222,9.1249,9.0833,8.9976,8.9688,8.7337,7.9987,7.6741,7.4325,7.1663,6.9882,6.9688,7.2228,7.318,7.2463,0.0,0.0,0.0,6.0057,5.7689,0.0,0.0,0.0,6.3303,6.7656,6.9273,7.2757,7.8681,8.4139,8.6857,8.6676,8.8611,9.0704,9.2937,9.2586,9.3716,9.6171,9.6015,9.547,9.4613,9.3794,9.3419,9.338,9.2724,9.2481,9.2685,9.4419,9.5091,9.5286,9.6978,9.7611,9.7589,5.648,5.8101,6.0937,6.7961,7.4162,7.8611,8.0103,8.5878,8.9475,8.7853,8.7632,8.7401,8.6748,8.7055,8.6978,8.6286,8.7803,8.8828,8.8705,9.0119,9.0702,9.0072,8.9068,8.8257,8.7706,8.6878,8.2832,7.5488,6.9821,6.1795,5.1657,4.9103,5.1279,5.7443,5.8196,6.5164,7.6377,7.683,8.1156,8.7799,9.008,9.1522,9.2444,9.4042,9.4768,9.4885,9.4885,9.4496,9.3911,9.3833,9.4807,9.6093,9.6093,9.5548,9.4768,9.4028,9.3794,9.3599,9.2742,9.3054,9.3599,9.3755,9.3677,9.3638,9.3755,9.2976,9.1782,9.0131,8.9157,8.6988,8.161,8.4052,8.5351,8.0513,8.3338,8.6037,8.5621,8.5609,8.2948,7.5517,0.0,0.0,6.6148,6.945,7.0581,0.0,6.2111,6.2128,6.818,6.9561,7.3405,8.0417,8.1293,8.2686,8.4908,8.7378,9.0638,9.4651,9.3132,9.3716,9.6171,9.5392,9.4574,9.3755,9.2898,9.2508,9.2508,9.2432,9.2429,9.2656,9.4441,9.5104,9.53,9.6987,9.7589,9.7591,6.518,6.626,6.8924,7.5418,7.8493,8.1555,8.6055,8.8963,9.0669,9.065,8.9933,8.8902,8.7555,8.8286,8.8617,8.788,8.903,8.977,8.9849,8.9576,8.9508,8.9639,8.836,8.7041,8.573,8.538,8.2083,7.5702,7.0638,6.4211,5.6708,5.6618,5.9261,6.42,6.8458,7.2938,7.7625,8.1493,8.5492,8.9337,8.9482,9.1002,9.3198,9.3327,9.4028,9.4846,9.434,9.4262,9.434,9.3872,9.3794,9.3911,9.3911,9.3677,9.3327,9.3015,9.2937,9.2976,9.3132,9.3054,9.3093,9.3911,9.3599,9.3093,9.3093,9.3249,9.3015,9.1651,8.982,8.7559,8.4533,8.3103,8.2869,8.444,8.3831,8.4104,8.6857,8.6806,8.5338,8.2143,0.0,0.0,0.0,7.2636,7.219,6.9361,6.9352,6.9289,6.8862,7.4868,7.9385,8.1597,8.4635,8.7234,8.9286,8.9794,9.1183,9.3405,9.3755,9.4184,9.469,9.4846,9.4184,9.2898,9.2575,9.2405,9.2391,9.2429,9.2773,9.3359,9.4606,9.5426,9.6041,9.7182,9.7577,9.7578,7.2298,7.3508,7.6209,8.2323,8.3633,8.5426,9.0275,9.1169,9.1264,9.1237,9.0805,8.9895,8.8412,8.9299,8.9741,8.9047,8.99,9.0508,9.0595,8.98,8.9332,8.9372,8.8263,8.6825,8.5153,8.5114,8.2898,7.8354,7.347,6.8294,6.2865,6.2521,6.5264,7.0635,7.5599,7.8597,8.0247,8.5192,8.8284,8.9781,8.9677,9.1261,9.3638,9.3288,9.3872,9.4846,9.4262,9.4262,9.4457,9.3872,9.3132,9.2508,9.2976,9.3132,9.3093,9.2859,9.2781,9.2859,9.321,9.2859,9.2586,9.3405,9.3015,9.2391,9.2391,9.2742,9.282,9.1846,8.9975,8.8144,8.6936,8.3363,8.2206,8.7183,8.3882,8.2245,8.6598,8.6286,8.5039,8.3519,8.1282,0.0,7.6427,7.6566,7.5739,7.3176,7.842,7.9153,7.3255,8.0243,8.3986,8.2952,8.6428,8.8911,9.0105,9.0768,9.1534,9.243,9.3872,9.4262,9.3716,9.4028,9.3521,9.2391,9.2419,9.2575,9.2781,9.2819,9.3348,9.4167,9.5104,9.5816,9.6461,9.7299,9.7577,9.7564,7.6995,7.9414,8.252,8.8696,9.0481,9.1132,9.1265,9.1816,9.1573,8.9936,9.0984,9.1478,9.0351,9.0284,8.9936,8.9074,9.0169,9.0813,9.0615,9.1559,9.1403,8.9683,8.9567,8.8832,8.7292,8.7263,8.6795,8.5859,7.97,7.4521,7.0247,6.5037,6.7671,7.6794,7.6882,8.0713,8.7092,8.7247,8.826,8.9936,9.1651,9.2898,9.3794,9.4574,9.4885,9.4885,9.4885,9.4379,9.3716,9.3677,9.3132,9.2703,9.434,9.4885,9.469,9.3911,9.3677,9.3482,9.2664,9.243,9.2391,9.243,9.243,9.2391,9.2391,9.1534,9.056,8.9975,8.9118,8.8495,8.8456,8.7053,8.6793,8.9442,8.6182,8.426,8.6908,8.5827,8.2814,7.7706,8.0835,8.2054,7.8603,8.322,8.4379,7.9463,8.8682,9.0943,8.2571,8.4599,8.5565,8.4724,8.4713,8.4752,8.4791,8.8976,9.1534,9.243,9.3288,9.3716,9.3677,9.282,9.243,9.2391,9.2391,9.2898,9.3677,9.3677,9.4186,9.5065,9.5923,9.6274,9.643,9.7288,9.7565,9.7496,8.5838,8.7107,8.8344,8.9727,9.0672,9.1265,9.1311,9.1913,9.2208,9.1661,9.1912,9.1987,9.1624,9.1467,9.1096,9.0361,9.1218,9.1834,9.1883,9.1681,9.1349,9.0794,9.0208,8.9077,8.7408,8.7369,8.6931,8.6015,8.0998,7.8195,7.7389,7.456,7.6765,8.3176,8.4337,8.5771,8.7348,8.8568,9.0039,9.16,9.2171,9.3249,9.4535,9.4807,9.4885,9.4846,9.4262,9.3911,9.3599,9.3015,9.2625,9.2508,9.3015,9.321,9.3132,9.2898,9.282,9.2742,9.2469,9.282,9.3288,9.3288,9.2859,9.2547,9.3132,9.208,9.0404,8.8417,8.7793,8.7443,8.6897,8.5884,8.5767,8.7728,8.5936,8.4793,8.6209,8.4896,8.3831,8.3948,8.4674,8.522,8.5234,8.7892,8.7621,8.2823,8.8031,8.7331,7.8011,8.6457,9.0025,8.6579,8.8728,9.0509,9.1703,9.2483,9.2703,9.243,9.3833,9.4223,9.3677,9.3405,9.3288,9.3327,9.3872,9.4262,9.4496,9.4563,9.5096,9.5888,9.6185,9.6653,9.7214,9.7487,9.7188,9.6678,8.9887,9.0647,9.1093,9.0547,9.1187,9.1624,9.1304,9.1968,9.2404,9.2092,9.2198,9.2312,9.2312,9.2197,9.1919,9.1417,9.1937,9.2383,9.2482,9.2014,9.1624,9.1311,9.0765,8.9821,8.8408,8.8369,8.8088,8.7486,8.4405,8.2981,8.3186,8.2445,8.4005,8.7497,8.8618,8.895,8.8791,8.9894,9.1325,9.2886,9.2912,9.3872,9.5353,9.5002,9.469,9.4379,9.3872,9.3482,9.3132,9.2586,9.2391,9.2469,9.2781,9.243,9.2041,9.2703,9.2898,9.2937,9.3249,9.3288,9.321,9.321,9.2547,9.1963,9.2197,9.1378,8.9975,8.7676,8.7209,8.7053,8.6546,8.5767,8.5611,8.6975,8.5806,8.4988,8.5884,8.4793,8.413,8.4767,8.4377,8.4728,8.6403,8.7507,8.7721,8.6729,8.8928,8.7766,8.2007,8.865,9.1542,8.9286,9.1275,9.2912,9.403,9.3496,9.3093,9.2898,9.4262,9.4651,9.4145,9.4145,9.4145,9.4184,9.469,9.508,9.5392,9.542,9.5979,9.6772,9.6797,9.6902,9.7123,9.7123,9.6706,9.6219,8.9988,9.0635,9.1164,9.1125,9.1826,9.2124,9.1319,9.1921,9.2248,9.1467,9.2053,9.2482,9.2482,9.2482,9.2412,9.2224,9.2393,9.2482,9.2482,9.2482,9.217,9.1428,9.1389,9.0999,9.0101,9.0101,9.0062,8.9984,8.9189,8.8361,8.7596,8.8322,8.9125,8.9915,8.9983,9.0412,9.1105,9.1145,9.2107,9.3599,9.3677,9.4613,9.5937,9.5119,9.434,9.3677,9.3638,9.3093,9.2391,9.2391,9.2391,9.2547,9.3288,9.2391,9.1456,9.3171,9.3599,9.3677,9.4496,9.3599,9.2391,9.2391,9.1807,9.095,8.9936,8.9781,8.9313,8.7637,8.7287,8.7287,8.7287,8.6663,8.639,8.7092,8.5884,8.5143,8.5884,8.5299,8.3948,8.1594,8.1399,8.2101,8.3777,8.3933,8.5831,9.0404,9.0677,9.1066,9.2002,9.0521,9.0482,9.2352,9.2391,9.2391,9.2391,9.2391,9.2859,9.3716,9.4457,9.4846,9.4885,9.4963,9.5002,9.508,9.508,9.5587,9.6366,9.6327,9.6823,9.7591,9.7591,9.7084,9.6304,9.6304,9.6171,9.6014,9.088,9.1036,9.1008,9.0306,9.094,9.1418,9.1241,9.1952,9.2428,9.2248,9.2365,9.2482,9.2482,9.2482,9.2475,9.242,9.2475,9.2482,9.2482,9.2482,9.2404,9.2209,9.2209,9.1819,9.0999,9.0999,9.0641,8.9922,8.9719,8.9515,8.9301,8.9515,8.971,8.9915,9.0579,9.0958,9.1145,9.182,9.2341,9.2781,9.3443,9.395,9.4262,9.4067,9.3872,9.3599,9.2937,9.2586,9.2391,9.2391,9.2391,9.2313,9.1846,9.1417,9.1456,9.3171,9.2742,9.1885,9.2742,9.2703,9.2391,9.2391,9.2235,9.1534,8.9313,8.9313,8.9508,8.8417,8.8183,8.8183,8.8183,8.8027,8.7754,8.7287,8.6858,8.6468,8.604,8.5806,8.5689,8.5702,8.6286,8.7378,8.9131,8.9287,8.8689,8.7326,8.6585,8.6858,8.8339,8.7456,8.8625,9.2274,9.2391,9.2391,9.2391,9.2391,9.2859,9.3677,9.3872,9.4301,9.4924,9.5587,9.6249,9.6873,9.6873,9.7379,9.812,9.7457,9.7301,9.7511,9.7511,9.7004,9.6225,9.6225,9.5767,9.5158,9.1781,9.1781,9.1637,9.1181,9.1465,9.1788,9.1749,9.2159,9.249,9.2498,9.2507,9.2507,9.2507,9.2811,9.3045,9.3092,9.2709,9.2482,9.2482,9.2482,9.2482,9.2482,9.2482,9.2287,9.1858,9.1851,9.1601,9.1106,9.1106,9.1096,9.1086,9.1106,9.1291,9.1649,9.1727,9.1949,9.2302,9.238,9.2639,9.3054,9.3521,9.3677,9.3677,9.3677,9.3443,9.3054,9.2586,9.2664,9.2937,9.2547,9.2664,9.2859,9.1963,9.1417,9.1378,9.2703,9.243,9.1963,9.321,9.2976,9.2313,9.1924,9.1807,9.1417,9.0014,9.0053,9.017,8.9274,8.9079,8.9079,8.9079,8.9079,8.8923,8.8456,8.7092,8.6312,8.7053,8.5806,8.5533,8.7559,8.8573,8.9625,9.0989,9.1456,9.0911,8.9079,8.8845,8.904,8.9547,8.9547,9.0599,9.2937,9.2625,9.2391,9.2391,9.3171,9.3794,9.4262,9.5041,9.547,9.5509,9.6405,9.7067,9.7535,9.7925,9.812,9.8197,9.812,9.7847,9.7496,9.7496,9.6951,9.6147,9.5797,9.5328,9.4807,9.2497,9.2497,9.251,9.2483,9.2507,9.2468,9.2444,9.2451,9.2471,9.249,9.2627,9.2685,9.2685,9.3398,9.3905,9.3964,9.3287,9.2866,9.2905,9.2873,9.2873,9.2873,9.2873,9.2905,9.2905,9.288,9.29,9.288,9.288,9.2869,9.2869,9.2869,9.317,9.3692,9.2938,9.2925,9.3443,9.2703,9.282,9.3482,9.3482,9.3482,9.3482,9.3482,9.3054,9.243,9.2547,9.3054,9.3599,9.2859,9.3093,9.3521,9.2508,9.169,9.1261,9.2002,9.2197,9.2547,9.4106,9.3405,9.2041,9.13,9.1105,9.1105,9.1105,9.1105,9.0911,9.017,9.0014,9.0014,9.0014,9.0014,8.9781,8.9157,8.7014,8.604,8.7676,8.5884,8.5455,8.8339,8.9469,9.0287,9.1028,9.1885,9.2469,9.2586,9.3171,9.3288,9.282,9.3249,9.356,9.3677,9.2859,9.2469,9.2586,9.4028,9.4846,9.5119,9.66,9.6989,9.6405,9.7145,9.7574,9.773,9.8353,9.8275,9.773,9.8353,9.8159,9.7496,9.7496,9.6951,9.6108,9.5288,9.4913,9.4674,9.2507,9.2507,9.252,9.2497,9.2444,9.2444,9.2483,9.2432,9.2429,9.249,9.3075,9.3515,9.3515,9.4284,9.4792,9.4792,9.4685,9.4656,9.4675,9.47,9.4708,9.4708,9.4692,9.4714,9.4714,9.4636,9.4601,9.4601,9.4601,9.4589,9.451,9.4589,9.4303,9.3691,9.3574,9.3171,9.2586,9.2469,9.2469,9.2586,9.2586,9.2586,9.2586,9.2586,9.2508,9.2508,9.321,9.3599,9.3677,9.3521,9.3599,9.3405,9.1807,9.1222,9.1144,9.1261,9.13,9.1534,9.2508,9.208,9.1261,9.1144,9.1105,9.1105,9.1105,9.1105,9.1066,9.095,9.0911,9.0911,9.0911,9.0911,8.9703,8.6079,8.7481,8.8144,8.565,8.7326,8.9001,8.9547,9.0365,9.095,9.1105,9.1885,9.2703,9.3443,9.2937,9.3171,9.4457,9.3288,9.2937,9.3677,9.2859,9.2742,9.3482,9.3755,9.4613,9.6015,9.6249,9.6717,9.7301,9.7457,9.7886,9.8548,9.7964,9.8042,9.8548,9.7964,9.7613,9.7496,9.7496,9.6951,9.6093,9.5221,9.4863,9.4578,9.2567,9.2528,9.2482,9.2496,9.2451,9.2479,9.2522,9.2483,9.2614,9.3146,9.3532,9.3922,9.4394,9.5212,9.5693,9.5705,9.6161,9.6434,9.6458,9.5554,9.5065,9.5065,9.5046,9.5036,9.5065,9.503,9.4966,9.4952,9.4524,9.4276,9.4223,9.3808,9.338,9.3015,9.3015,9.2781,9.2391,9.2391,9.2391,9.2391,9.2391,9.2391,9.2391,9.2391,9.2703,9.3132,9.356,9.4262,9.4924,9.3989,9.3989,9.395,9.1807,9.1417,9.1729,9.1261,9.1417,9.1885,9.2274,9.2119,9.1807,9.1807,9.1807,9.1807,9.1807,9.1807,9.1807,9.1807,9.1807,9.1807,9.1807,9.1807,9.1144,8.9157,8.8612,8.8339,8.8183,8.791,8.8261,8.9625,9.0989,9.1807,9.1807,9.2976,9.3911,9.4301,9.395,9.3872,9.4223,9.3521,9.3288,9.3677,9.3327,9.3716,9.5041,9.5041,9.5665,9.6912,9.6912,9.7106,9.7496,9.7496,9.773,9.8081,9.8159,9.8159,9.812,9.8159,9.8197,9.8159,9.7621,9.7504,9.7349,9.5509,9.4785,9.4539,9.2617,9.2578,9.2539,9.2539,9.2528,9.2567,9.2773,9.2807,9.3107,9.4004,9.4284,9.4646,9.5303,9.6109,9.659,9.6586,9.7266,9.7642,9.7577,9.6329,9.56,9.5611,9.5611,9.5588,9.5589,9.5589,9.5459,9.5236,9.4613,9.4223,9.3989,9.3327,9.2898,9.2703,9.2703,9.2586,9.2391,9.2391,9.243,9.243,9.243,9.243,9.243,9.2625,9.3132,9.3755,9.4145,9.5002,9.5743,9.4457,9.4301,9.4262,9.2119,9.1885,9.2274,9.1612,9.1885,9.2391,9.2391,9.2391,9.2391,9.2391,9.2391,9.2391,9.2391,9.2391,9.2391,9.2391,9.2391,9.2391,9.2391,9.2391,9.2119,9.1339,8.982,8.9118,9.0326,8.9079,8.8806,9.0755,9.2158,9.2976,9.2976,9.4145,9.4963,9.5197,9.4846,9.4418,9.3989,9.3794,9.3872,9.4262,9.4067,9.469,9.6171,9.621,9.6639,9.7496,9.7496,9.7496,9.7496,9.7496,9.7496,9.7535,9.8431,9.8314,9.7574,9.8431,9.8665,9.8431,9.7699,9.7822,9.8111,9.5693,9.4793,9.4496,9.2617,9.2617,9.2578,9.2578,9.2539,9.2773,9.3593,9.3684,9.4037,9.4895,9.5645,9.6152,9.6191,9.7003,9.7511,9.7511,9.7577,9.7591,9.7581,9.746,9.7422,9.7405,9.7421,9.7396,9.7301,9.7379,9.6989,9.621,9.6132,9.5743,9.5002,9.4924,9.4457,9.3599,9.3599,9.3171,9.2391,9.2391,9.243,9.2508,9.2508,9.2508,9.2586,9.3327,9.3638,9.3911,9.5548,9.5665,9.508,9.5026,9.4457,9.3638,9.2703,9.2391,9.2391,9.2313,9.2352,9.2391,9.2391,9.2391,9.2391,9.2391,9.2391,9.2391,9.2391,9.2391,9.2391,9.2391,9.2391,9.2391,9.2391,9.2391,9.1339,8.8105,9.0755,9.2158,8.9118,9.1885,9.4301,9.4496,9.4651,9.4729,9.4729,9.4846,9.5236,9.6054,9.4651,9.4106,9.4768,9.4106,9.4418,9.5976,9.5236,9.5275,9.6171,9.621,9.6639,9.7496,9.7496,9.7496,9.7496,9.7496,9.7496,9.7535,9.8431,9.8314,9.7574,9.8431,9.8314,9.7574,9.7535,9.7504,9.7294,9.5537,9.4835,9.4562,9.2617,9.2617,9.2617,9.2617,9.3047,9.3476,9.3828,9.4334,9.4992,9.5851,9.6242,9.6593,9.7101,9.7452,9.7648,9.7648,9.7661,9.7643,9.7589,9.7641,9.7639,9.7578,9.7603,9.7604,9.7544,9.7071,9.6642,9.6295,9.527,9.4568,9.4266,9.3759,9.3291,9.2979,9.2977,9.2781,9.2469,9.244,9.2471,9.251,9.251,9.2822,9.333,9.3642,9.4418,9.5392,9.6054,9.607,9.5749,9.527,9.449,9.3621,9.2769,9.2483,9.2461,9.2458,9.2469,9.2469,9.2469,9.243,9.2391,9.2391,9.2391,9.2391,9.2391,9.2391,9.2391,9.2391,9.2391,9.2391,9.2391,9.2859,9.2781,9.1456,9.3054,9.3989,9.2664,9.3872,9.4885,9.4885,9.5392,9.5704,9.5704,9.621,9.6444,9.621,9.5119,9.434,9.4184,9.434,9.4963,9.6171,9.6336,9.6592,9.6943,9.6974,9.713,9.7449,9.7481,9.7496,9.7496,9.7496,9.7496,9.7535,9.7847,9.812,9.8314,9.8665,9.8884,9.8985,9.8406,9.8159,9.7946,9.621,9.5264,9.4667,9.2617,9.2812,9.3008,9.3008,9.3711,9.4414,9.4687,9.5234,9.5898,9.6758,9.6875,9.7109,9.7656,9.7695,9.7695,9.7695,9.7714,9.77,9.7623,9.7689,9.7689,9.7604,9.7603,9.7487,9.7206,9.6665,9.6061,9.5524,9.4363,9.3684,9.341,9.2825,9.2512,9.2512,9.2498,9.2507,9.2508,9.249,9.2514,9.2551,9.2825,9.3293,9.3879,9.4426,9.5339,9.6373,9.6642,9.6395,9.5846,9.5307,9.4348,9.3283,9.2724,9.2529,9.2502,9.249,9.2495,9.2495,9.2495,9.2456,9.2444,9.2405,9.2391,9.2391,9.2391,9.2391,9.2391,9.2391,9.2639,9.2795,9.2767,9.3468,9.4067,9.4091,9.4739,9.5284,9.5299,9.5518,9.5712,9.5712,9.6219,9.6569,9.6569,9.7115,9.7232,9.6608,9.579,9.505,9.4505,9.4972,9.5689,9.6546,9.7115,9.741,9.7394,9.7465,9.7465,9.741,9.7481,9.7496,9.7496,9.7496,9.7496,9.7496,9.7754,9.8065,9.8416,9.8961,9.9335,9.9536,9.8878,9.8644,9.8428,9.672,9.5728,9.5104,9.2617,9.332,9.3906,9.3906,9.4648,9.5508,9.6367,9.6523,9.6797,9.7617,9.7695,9.7695,9.7695,9.7695,9.7695,9.7695,9.7711,9.7706,9.7695,9.7672,9.7675,9.7597,9.7655,9.7253,9.6308,9.6439,9.5597,9.378,9.384,9.3437,9.2617,9.2617,9.2578,9.25,9.25,9.2507,9.2508,9.2508,9.2529,9.2695,9.3554,9.3906,9.4101,9.5781,9.6406,9.6521,9.7366,9.6561,9.5122,9.5184,9.3984,9.2499,9.2585,9.2564,9.2499,9.2502,9.2482,9.2482,9.2482,9.2482,9.2468,9.2432,9.2391,9.2391,9.2391,9.2391,9.2391,9.243,9.3081,9.3666,9.3632,9.431,9.491,9.4902,9.5608,9.6096,9.6109,9.6853,9.7401,9.7401,9.7401,9.7401,9.7401,9.7401,9.7401,9.7401,9.6584,9.6078,9.6117,9.6075,9.6498,9.7355,9.7481,9.7481,9.7394,9.7394,9.741,9.7496,9.7496,9.7496,9.7496,9.7496,9.7496,9.7535,9.8345,9.8212,9.755,9.9263,9.9458,9.8718,9.8718,9.8758,9.8586,9.6862,9.6239,9.6054,9.3281,9.3672,9.4101,9.4726,9.5547,9.6211,9.6445,9.6992,9.7422,9.7656,9.7695,9.7695,9.7695,9.7695,9.7695,9.7695,9.7693,9.7693,9.7695,9.7185,9.683,9.683,9.686,9.6743,9.6439,9.5272,9.4412,9.3884,9.3279,9.2851,9.2617,9.2617,9.2578,9.2578,9.2578,9.2574,9.2595,9.322,9.3507,9.3594,9.4453,9.5195,9.5781,9.6289,9.6836,9.7265,9.6981,9.611,9.506,9.4491,9.3515,9.2578,9.2574,9.2576,9.2577,9.258,9.2561,9.2567,9.259,9.258,9.2553,9.249,9.2479,9.2483,9.2483,9.2456,9.2651,9.3263,9.356,9.3872,9.4484,9.5303,9.59,9.5888,9.6616,9.7135,9.7091,9.731,9.7465,9.7465,9.7437,9.7437,9.7449,9.7437,9.7129,9.6545,9.5689,9.5435,9.6092,9.6092,9.6515,9.7442,9.7426,9.7426,9.7481,9.7481,9.7465,9.741,9.7481,9.7496,9.7496,9.7465,9.741,9.7449,9.7671,9.7995,9.841,9.8835,9.9257,9.9618,9.9553,9.9202,9.8692,9.8162,9.7221,9.6157,9.3934,9.4454,9.4883,9.543,9.625,9.6836,9.6836,9.726,9.7615,9.7544,9.7611,9.7695,9.7617,9.7656,9.7695,9.7695,9.7662,9.765,9.7695,9.6914,9.6395,9.6391,9.5802,9.5469,9.5469,9.4395,9.3685,9.3398,9.2811,9.2528,9.2518,9.2535,9.2521,9.2443,9.2482,9.2673,9.3025,9.3571,9.3962,9.4352,9.5251,9.5934,9.6443,9.6795,9.7263,9.7576,9.6756,9.5936,9.5078,9.4179,9.3318,9.2609,9.2617,9.2617,9.2616,9.258,9.26,9.258,9.2577,9.2578,9.2537,9.2422,9.2473,9.2578,9.2958,9.2997,9.3231,9.4128,9.4568,9.4919,9.5405,9.6224,9.682,9.677,9.7187,9.7513,9.7486,9.7472,9.7457,9.7457,9.741,9.741,9.7457,9.741,9.7165,9.6623,9.6098,9.606,9.6563,9.6598,9.6865,9.7426,9.7465,9.7465,9.7496,9.7496,9.7481,9.7465,9.7481,9.7496,9.7496,9.741,9.7394,9.7394,9.7394,9.773,9.8279,9.8566,9.92,10.0001,9.9978,9.9836,9.9629,9.893,9.8033,9.7104,9.4656,9.5463,9.6008,9.6086,9.6787,9.7294,9.7294,9.7386,9.7427,9.733,9.7511,9.7611,9.7498,9.7576,9.7654,9.7655,9.7617,9.7582,9.7567,9.6676,9.6089,9.5959,9.4539,9.3789,9.3789,9.3639,9.3272,9.2577,9.2455,9.2418,9.2431,9.2487,9.244,9.2344,9.2401,9.2897,9.3743,9.3782,9.4289,9.5069,9.5962,9.6373,9.6515,9.729,9.7598,9.7481,9.6587,9.5775,9.496,9.4062,9.3238,9.259,9.2574,9.2578,9.2578,9.2585,9.2574,9.2564,9.2517,9.2522,9.2585,9.2451,9.2567,9.2892,9.3638,9.3817,9.4081,9.4996,9.5824,9.6392,9.6329,9.7043,9.76,9.7526,9.7474,9.7435,9.7487,9.7435,9.7408,9.7408,9.7433,9.7418,9.7418,9.7418,9.7387,9.7321,9.7382,9.7382,9.7323,9.7381,9.7433,9.7394,9.7481,9.7496,9.7496,9.7496,9.7496,9.7496,9.7496,9.7496,9.7481,9.7449,9.7394,9.7394,9.7369,9.737,9.7472,9.8306,9.9121,9.9877,9.988,10.0382,10.0993,9.9259,9.8642,9.8455,9.5403,9.5817,9.6243,9.6902,9.7173,9.729,9.729,9.7314,9.732,9.731,9.7363,9.7362,9.7331,9.7355,9.7416,9.7455,9.7511,9.7208,9.6507,9.564,9.4808,9.4106,9.3203,9.2747,9.2804,9.2812,9.2723,9.242,9.2539,9.2572,9.2577,9.2518,9.286,9.3521,9.3399,9.3843,9.4738,9.536,9.5749,9.6002,9.6926,9.7291,9.7325,9.7602,9.7259,9.6556,9.5697,9.4844,9.4044,9.3132,9.267,9.2507,9.2528,9.246,9.2411,9.2535,9.2498,9.2372,9.2414,9.2886,9.3348,9.3309,9.3864,9.4246,9.3748,9.4218,9.4957,9.5859,9.6209,9.6551,9.7238,9.7542,9.7659,9.7659,9.7584,9.7524,9.7427,9.7422,9.7382,9.7382,9.7448,9.7504,9.7552,9.7525,9.7472,9.7474,9.7458,9.7437,9.7382,9.7458,9.7455,9.7394,9.7481,9.7496,9.7496,9.7496,9.7481,9.741,9.741,9.7433,9.7437,9.7416,9.7394,9.7394,9.7327,9.7337,9.7413,9.7496,9.8121,9.8977,9.8938,9.947,10.01,9.9039,9.8605,9.847,9.6183,9.6405,9.6599,9.7006,9.7083,9.7112,9.7054,9.7131,9.713,9.706,9.7212,9.7274,9.7204,9.7284,9.7382,9.7433,9.706,9.6623,9.6159,9.4931,9.399,9.3497,9.2813,9.2389,9.2255,9.2421,9.2498,9.2451,9.2411,9.259,9.3036,9.3041,9.3484,9.4302,9.4208,9.4677,9.5494,9.5882,9.6331,9.6779,9.7279,9.7476,9.7454,9.7147,9.6713,9.6132,9.4928,9.3913,9.3084,9.2574,9.2393,9.2412,9.2397,9.2365,9.2326,9.2439,9.2397,9.2401,9.2819,9.3242,9.3627,9.4042,9.4783,9.5315,9.4916,9.5211,9.5806,9.6656,9.6869,9.7031,9.746,9.7611,9.7645,9.7577,9.7578,9.7578,9.75,9.7539,9.7539,9.755,9.7554,9.7589,9.7659,9.7622,9.7583,9.755,9.7583,9.7565,9.7457,9.7504,9.7527,9.7465,9.7481,9.7496,9.7496,9.7496,9.7496,9.7457,9.7496,9.7465,9.7433,9.7442,9.7408,9.7405,9.7343,9.7343,9.7368,9.7304,9.7836,9.8683,9.863,9.9123,9.9795,9.888,9.8274,9.7867,9.6809,9.6953,9.6979,9.6841,9.687,9.6859,9.6648,9.6812,9.6851,9.6426,9.6919,9.7102,9.6654,9.6812,9.6926,9.6982,9.6305,9.58,9.5723,9.4296,9.3392,9.3243,9.2713,9.2323,9.2048,9.2412,9.2619,9.2655,9.2444,9.2834,9.3718,9.3759,9.4263,9.5035,9.4991,9.5455,9.6195,9.6177,9.6565,9.7255,9.7286,9.7253,9.7112,9.6512,9.6079,9.5586,9.4254,9.3162,9.2369,9.2326,9.2266,9.2263,9.2268,9.2284,9.2272,9.2284,9.2393,9.2639,9.3327,9.3687,9.4067,9.4716,9.5554,9.6249,9.6352,9.6392,9.6596,9.726,9.7466,9.7524,9.7409,9.7481,9.753,9.7409,9.7466,9.7555,9.7555,9.7604,9.7617,9.7611,9.7623,9.7656,9.768,9.7695,9.7695,9.7606,9.7654,9.7648,9.7503,9.7577,9.7603,9.7511,9.7496,9.7511,9.7511,9.7511,9.7486,9.7472,9.7577,9.7539,9.7496,9.75,9.7466,9.7394,9.7382,9.7364,9.729,9.7369,9.7783,9.845,9.8374,9.886,9.9518,9.8931,9.817,9.7432,9.6967,9.7006,9.7006,9.6979,9.6979,9.6708,9.5972,9.6514,9.6437,9.4925,9.6088,9.6476,9.4951,9.4846,9.4894,9.4894,9.4924,9.4535,9.3752,9.3458,9.2976,9.2244,9.2165,9.2182,9.2182,9.2964,9.3315,9.3258,9.3348,9.3864,9.4723,9.464,9.5132,9.5988,9.582,9.6254,9.713,9.7071,9.7104,9.7225,9.7277,9.6848,9.6174,9.6215,9.5268,9.3934,9.3718,9.3048,9.2287,9.2222,9.221,9.2221,9.221,9.2151,9.213,9.2263,9.276,9.3299,9.3438,9.4539,9.561,9.5723,9.6405,9.703,9.7051,9.7104,9.7174,9.7291,9.7344,9.7355,9.7394,9.7409,9.7415,9.7401,9.7377,9.7357,9.7357,9.7316,9.7262,9.7252,9.741,9.752,9.7524,9.7617,9.7701,9.7694,9.7689,9.768,9.7594,9.7659,9.7639,9.75,9.7511,9.7525,9.7589,9.7525,9.746,9.7415,9.7533,9.7511,9.7418,9.7526,9.7533,9.7407,9.741,9.7368,9.7277,9.7266,9.7281,9.7398,9.7376,9.792,9.8753,9.9374,9.9063,9.8325,9.5699,9.6034,9.6189,9.5674,9.5984,9.6009,9.5106,9.53,9.5261,9.4486,9.5067,9.5286,9.4535,9.4568,9.459,9.459,9.4224,9.3819,9.3387,9.2882,9.248,9.213,9.2588,9.2923,9.2937,9.3794,9.4395,9.4815,9.4418,9.4666,9.5522,9.5498,9.5978,9.6847,9.6756,9.6927,9.7286,9.7227,9.7245,9.7264,9.7271,9.6795,9.5952,9.5612,9.4646,9.3414,9.2947,9.2536,9.2222,9.216,9.213,9.2151,9.2131,9.211,9.2208,9.2752,9.3143,9.3607,9.4601,9.5359,9.6033,9.6499,9.6927,9.7199,9.7199,9.7206,9.7227,9.7227,9.7277,9.7301,9.7271,9.7305,9.7331,9.7286,9.7282,9.7305,9.7305,9.7324,9.7362,9.7376,9.7433,9.7494,9.7511,9.7533,9.7574,9.7598,9.7616,9.7648,9.7617,9.7662,9.7671,9.7538,9.7565,9.7577,9.76,9.7485,9.7454,9.7494,9.7563,9.752,9.7359,9.7516,9.75,9.733,9.7348,9.7316,9.7227,9.7204,9.7199,9.7199,9.7199,9.7743,9.8558,9.8947,9.9141,9.918]},{"header":{"parameterUnit":"m.s-1","parameterCategory":1,"la1":30.6,"la2":28.766,"lo1":-90.7593,"lo2":-88.6598,"dx":0.0162,"dy":0.0183,"nx":116,"ny":114,"refTime":"2022-11-20T18:00:00:Z","depth":0,"parameterNumber":3,"parameterNumberName":"V-component_of_WINDS"},"data":[0.0,0.0,0.0,0.0,0.0,0.0,0.0,0.0,0.0,0.0,0.0,0.0,0.0,0.0,0.0,0.0,0.0,0.0,0.0,0.0,0.0,0.0,0.0,0.0,0.0,0.0,0.0,0.0,0.0,0.0,0.0,0.0,0.0,0.0,0.0,0.0,0.0,0.0,0.0,0.0,0.0,0.0,0.0,0.0,0.0,0.0,0.0,0.0,0.0,0.0,0.0,0.0,0.0,0.0,0.0,0.0,0.0,0.0,0.0,0.0,0.0,0.0,0.0,0.0,0.0,0.0,0.0,0.0,0.0,0.0,0.0,0.0,0.0,0.0,0.0,0.0,0.0,0.0,0.0,0.0,0.0,0.0,0.0,0.0,0.0,0.0,0.0,0.0,0.0,0.0,0.0,0.0,0.0,0.0,0.0,0.0,0.0,0.0,0.0,0.0,0.0,0.0,0.0,0.0,0.0,0.0,0.0,0.0,0.0,0.0,0.0,0.0,0.0,0.0,0.0,0.0,0.0,0.0,0.0,0.0,0.0,0.0,0.0,0.0,0.0,0.0,0.0,0.0,0.0,0.0,0.0,0.0,0.0,0.0,0.0,0.0,0.0,0.0,0.0,0.0,0.0,0.0,0.0,0.0,0.0,0.0,0.0,0.0,0.0,0.0,0.0,0.0,0.0,0.0,0.0,0.0,0.0,0.0,0.0,0.0,0.0,0.0,0.0,0.0,0.0,0.0,0.0,0.0,0.0,0.0,0.0,0.0,0.0,0.0,0.0,0.0,0.0,0.0,0.0,0.0,0.0,0.0,0.0,0.0,0.0,0.0,0.0,0.0,0.0,0.0,0.0,0.0,0.0,0.0,0.0,0.0,0.0,0.0,0.0,0.0,0.0,0.0,0.0,0.0,0.0,0.0,0.0,0.0,0.0,0.0,0.0,0.0,0.0,0.0,0.0,0.0,0.0,0.0,0.0,0.0,0.0,0.0,0.0,0.0,0.0,0.0,0.0,0.0,0.0,0.0,0.0,0.0,0.0,0.0,0.0,0.0,0.0,0.0,0.0,0.0,0.0,0.0,0.0,0.0,0.0,0.0,0.0,0.0,0.0,0.0,0.0,0.0,0.0,0.0,0.0,0.0,0.0,0.0,0.0,0.0,0.0,0.0,0.0,0.0,0.0,0.0,0.0,0.0,0.0,0.0,0.0,0.0,0.0,0.0,0.0,0.0,0.0,0.0,0.0,0.0,0.0,0.0,0.0,0.0,0.0,0.0,0.0,0.0,0.0,0.0,0.0,0.0,0.0,0.0,0.0,0.0,0.0,0.0,0.0,0.0,0.0,0.0,0.0,0.0,0.0,0.0,0.0,0.0,0.0,0.0,0.0,0.0,0.0,0.0,0.0,0.0,0.0,0.0,0.0,0.0,0.0,0.0,0.0,0.0,0.0,0.0,0.0,0.0,0.0,0.0,0.0,0.0,0.0,0.0,0.0,0.0,0.0,0.0,0.0,0.0,0.0,0.0,0.0,0.0,0.0,0.0,0.0,0.0,0.0,0.0,0.0,0.0,0.0,0.0,0.0,0.0,0.0,0.0,0.0,0.0,0.0,0.0,0.0,0.0,0.0,0.0,0.0,0.0,0.0,0.0,0.0,0.0,0.0,0.0,0.0,0.0,0.0,0.0,0.0,0.0,0.0,0.0,0.0,0.0,0.0,0.0,0.0,0.0,0.0,0.0,0.0,0.0,0.0,0.0,0.0,0.0,0.0,0.0,0.0,0.0,0.0,0.0,0.0,0.0,0.0,0.0,0.0,0.0,0.0,0.0,0.0,0.0,0.0,0.0,0.0,0.0,0.0,0.0,0.0,0.0,0.0,0.0,0.0,0.0,0.0,0.0,0.0,0.0,0.0,0.0,0.0,0.0,0.0,0.0,0.0,0.0,0.0,0.0,0.0,0.0,0.0,0.0,0.0,0.0,0.0,0.0,0.0,0.0,0.0,0.0,0.0,0.0,0.0,0.0,0.0,0.0,0.0,0.0,0.0,0.0,0.0,0.0,0.0,0.0,0.0,0.0,0.0,0.0,0.0,0.0,0.0,0.0,0.0,0.0,0.0,0.0,0.0,0.0,0.0,0.0,0.0,0.0,0.0,0.0,0.0,0.0,0.0,0.0,0.0,0.0,0.0,0.0,0.0,0.0,0.0,0.0,0.0,0.0,0.0,0.0,0.0,0.0,0.0,0.0,0.0,0.0,0.0,0.0,0.0,0.0,0.0,0.0,0.0,0.0,0.0,0.0,0.0,0.0,0.0,0.0,0.0,0.0,0.0,0.0,0.0,0.0,0.0,0.0,0.0,0.0,0.0,0.0,0.0,0.0,0.0,0.0,0.0,0.0,0.0,0.0,0.0,0.0,0.0,0.0,0.0,0.0,0.0,0.0,0.0,0.0,0.0,0.0,0.0,0.0,0.0,0.0,0.0,0.0,0.0,0.0,0.0,0.0,0.0,0.0,0.0,0.0,0.0,0.0,0.0,0.0,0.0,0.0,0.0,0.0,0.0,0.0,0.0,0.0,0.0,0.0,0.0,0.0,0.0,0.0,0.0,0.0,0.0,0.0,0.0,0.0,0.0,0.0,0.0,0.0,0.0,0.0,0.0,0.0,0.0,0.0,0.0,0.0,0.0,0.0,0.0,0.0,0.0,0.0,0.0,0.0,0.0,0.0,0.0,0.0,0.0,0.0,0.0,0.0,0.0,0.0,0.0,0.0,0.0,0.0,0.0,0.0,0.0,0.0,0.0,0.0,0.0,0.0,0.0,0.0,0.0,0.0,0.0,0.0,0.0,0.0,0.0,0.0,0.0,0.0,0.0,0.0,0.0,0.0,0.0,0.0,0.0,0.0,0.0,0.0,0.0,0.0,0.0,0.0,0.0,0.0,0.0,0.0,0.0,0.0,0.0,0.0,0.0,0.0,0.0,0.0,0.0,0.0,0.0,0.0,0.0,0.0,0.0,0.0,0.0,0.0,0.0,0.0,0.0,0.0,0.0,0.0,0.0,0.0,0.0,0.0,0.0,0.0,0.0,0.0,0.0,0.0,0.0,0.0,0.0,0.0,0.0,0.0,0.0,0.0,0.0,0.0,0.0,0.0,0.0,0.0,0.0,0.0,0.0,0.0,0.0,0.0,0.0,0.0,0.0,0.0,0.0,0.0,0.0,0.0,0.0,0.0,0.0,0.0,0.0,0.0,0.0,0.0,0.0,0.0,0.0,0.0,0.0,0.0,0.0,0.0,0.0,0.0,0.0,0.0,0.0,0.0,0.0,0.0,0.0,0.0,0.0,0.0,0.0,0.0,0.0,0.0,0.0,0.0,0.0,0.0,0.0,0.0,0.0,0.0,0.0,0.0,0.0,0.0,0.0,0.0,0.0,0.0,0.0,0.0,0.0,0.0,0.0,0.0,0.0,0.0,0.0,0.0,0.0,0.0,0.0,0.0,0.0,0.0,0.0,0.0,0.0,0.0,0.0,0.0,0.0,0.0,0.0,0.0,0.0,0.0,0.0,0.0,0.0,0.0,0.0,0.0,0.0,0.0,0.0,0.0,0.0,0.0,0.0,0.0,0.0,0.0,0.0,0.0,0.0,0.0,0.0,0.0,0.0,0.0,0.0,0.0,0.0,0.0,0.0,0.0,0.0,0.0,0.0,0.0,0.0,0.0,0.0,0.0,0.0,0.0,0.0,0.0,0.0,0.0,0.0,0.0,0.0,0.0,0.0,0.0,0.0,0.0,0.0,0.0,0.0,0.0,0.0,0.0,0.0,0.0,0.0,0.0,0.0,0.0,0.0,0.0,0.0,0.0,0.0,0.0,0.0,0.0,0.0,0.0,0.0,0.0,0.0,0.0,0.0,0.0,0.0,0.0,0.0,0.0,0.0,0.0,0.0,0.0,0.0,0.0,0.0,0.0,0.0,0.0,0.0,0.0,0.0,0.0,0.0,0.0,0.0,0.0,0.0,0.0,0.0,0.0,0.0,0.0,0.0,0.0,0.0,0.0,0.0,0.0,0.0,0.0,0.0,0.0,0.0,0.0,0.0,0.0,0.0,0.0,0.0,0.0,0.0,0.0,0.0,0.0,0.0,0.0,0.0,0.0,0.0,0.0,0.0,0.0,0.0,0.0,0.0,0.0,0.0,0.0,0.0,0.0,0.0,0.0,0.0,0.0,0.0,0.0,0.0,0.0,0.0,0.0,0.0,0.0,0.0,0.0,0.0,0.0,0.0,0.0,0.0,0.0,0.0,0.0,0.0,0.0,0.0,0.0,0.0,0.0,0.0,0.0,0.0,0.0,0.0,0.0,0.0,0.0,0.0,0.0,0.0,0.0,0.0,0.0,0.0,0.0,0.0,0.0,0.0,0.0,0.0,0.0,0.0,0.0,0.0,0.0,0.0,0.0,0.0,0.0,0.0,0.0,0.0,0.0,0.0,0.0,0.0,0.0,0.0,0.0,0.0,0.0,0.0,0.0,0.0,0.0,0.0,0.0,0.0,0.0,0.0,0.0,0.0,0.0,0.0,0.0,0.0,0.0,0.0,0.0,0.0,0.0,0.0,0.0,0.0,0.0,0.0,0.0,0.0,0.0,0.0,0.0,0.0,0.0,0.0,0.0,0.0,0.0,0.0,0.0,0.0,0.0,0.0,0.0,0.0,0.0,0.0,0.0,0.0,0.0,0.0,0.0,0.0,0.0,0.0,0.0,0.0,0.0,0.0,0.0,0.0,0.0,0.0,0.0,0.0,0.0,0.0,0.0,0.0,0.0,0.0,0.0,0.0,0.0,0.0,0.0,0.0,0.0,0.0,0.0,0.0,0.0,0.0,0.0,0.0,0.0,0.0,0.0,0.0,0.0,0.0,0.0,0.0,0.0,0.0,0.0,0.0,0.0,0.0,0.0,0.0,0.0,0.0,0.0,0.0,0.0,0.0,0.0,0.0,0.0,0.0,0.0,0.0,0.0,0.0,0.0,0.0,0.0,0.0,0.0,0.0,0.0,0.0,0.0,0.0,0.0,0.0,0.0,0.0,0.0,0.0,0.0,0.0,0.0,0.0,0.0,0.0,0.0,0.0,0.0,0.0,0.0,0.0,0.0,0.0,0.0,0.0,0.0,0.0,0.0,0.0,0.0,0.0,0.0,0.0,0.0,0.0,0.0,0.0,0.0,0.0,0.0,0.0,0.0,0.0,0.0,0.0,0.0,0.0,0.0,0.0,0.0,0.0,0.0,0.0,0.0,0.0,0.0,0.0,0.0,0.0,0.0,0.0,0.0,0.0,0.0,0.0,0.0,0.0,0.0,0.0,0.0,0.0,0.0,0.0,0.0,0.0,0.0,0.0,0.0,0.0,0.0,0.0,0.0,0.0,0.0,0.0,0.0,0.0,0.0,0.0,0.0,0.0,0.0,0.0,0.0,0.0,0.0,0.0,0.0,0.0,0.0,0.0,0.0,0.0,0.0,0.0,0.0,0.0,0.0,0.0,0.0,0.0,0.0,0.0,0.0,0.0,0.0,0.0,0.0,0.0,0.0,0.0,0.0,0.0,0.0,0.0,0.0,0.0,0.0,0.0,0.0,0.0,0.0,0.0,0.0,0.0,0.0,0.0,0.0,0.0,0.0,0.0,0.0,0.0,0.0,0.0,0.0,0.0,0.0,0.0,0.0,0.0,0.0,0.0,0.0,0.0,0.0,0.0,0.0,0.0,0.0,0.0,0.0,0.0,0.0,0.0,0.0,0.0,0.0,0.0,0.0,0.0,0.0,0.0,0.0,0.0,0.0,0.0,0.0,0.0,0.0,0.0,0.0,0.0,0.0,0.0,0.0,0.0,0.0,0.0,0.0,0.0,0.0,0.0,0.0,0.0,0.0,0.0,0.0,0.0,0.0,0.0,0.0,0.0,0.0,0.0,0.0,0.0,0.0,0.0,0.0,0.0,0.0,0.0,0.0,0.0,0.0,0.0,0.0,0.0,0.0,0.0,0.0,0.0,0.0,0.0,0.0,0.0,0.0,0.0,0.0,0.0,0.0,0.0,0.0,0.0,0.0,0.0,0.0,0.0,0.0,0.0,0.0,0.0,0.0,-0.4565,-0.5222,0.0,0.0,0.0,0.0,0.0,0.0,0.0,0.0,0.0,0.0,0.0,0.0,0.0,0.0,0.0,0.0,0.0,0.0,0.0,0.0,0.0,0.0,0.0,-0.6776,-0.6702,-0.6237,-0.6054,0.0,0.0,0.0,0.0,0.0,0.0,0.0,-0.5828,-0.5912,-0.6027,-0.6109,-0.6228,-0.6706,-0.7594,-0.7309,-0.7024,-0.6705,0.0,0.0,0.0,0.0,0.0,0.0,0.0,0.0,0.0,0.0,0.0,0.0,0.0,0.0,0.0,0.0,0.0,0.0,0.0,0.0,0.0,0.0,0.0,0.0,0.0,0.0,0.0,0.0,0.0,0.0,0.0,0.0,0.0,0.0,0.0,0.0,0.0,0.0,0.0,0.0,0.0,0.0,0.0,0.0,0.0,0.0,0.0,0.0,0.0,0.0,0.0,0.0,0.0,0.0,0.0,0.0,0.0,0.0,0.0,0.0,0.0,0.0,0.0,0.0,0.0,0.0,0.0,0.0,0.0,0.0,-0.4188,-0.4811,0.0,0.0,0.0,0.0,0.0,0.0,0.0,0.0,0.0,0.0,0.0,0.0,0.0,0.0,0.0,0.0,0.0,0.0,0.0,0.0,0.0,-0.7194,-0.7055,-0.7413,-0.7384,-0.6765,-0.6656,-0.6435,-0.5988,-0.5956,0.0,0.0,0.0,0.0,-0.6385,-0.6514,-0.646,-0.6215,-0.711,-0.7747,-0.8231,-0.8234,-0.7826,-0.6882,-0.5908,0.0,0.0,0.0,0.0,0.0,0.0,0.0,0.0,0.0,0.0,0.0,0.0,0.0,0.0,0.0,0.0,0.0,0.0,0.0,0.0,0.0,0.0,0.0,0.0,0.0,0.0,0.0,0.0,0.0,0.0,0.0,0.0,0.0,0.0,0.0,0.0,0.0,0.0,0.0,0.0,0.0,0.0,0.0,0.0,0.0,0.0,0.0,0.0,0.0,0.0,0.0,0.0,0.0,0.0,0.0,0.0,0.0,0.0,0.0,0.0,0.0,0.0,0.0,-0.2754,-0.25,-0.2709,-0.2814,-0.3013,-0.3273,-0.3758,-0.4281,-0.4734,-0.5735,0.0,0.0,0.0,0.0,0.0,0.0,0.0,0.0,0.0,0.0,0.0,0.0,0.0,0.0,0.0,0.0,0.0,0.0,0.0,-0.8172,-0.8048,-0.8183,-0.8066,-0.7584,-0.7287,-0.697,-0.6614,-0.6578,0.0,0.0,0.0,-0.6637,-0.6637,-0.6411,-0.6662,-0.744,-0.8362,-0.8657,-0.833,-0.8437,-0.8429,-0.8296,-0.7998,-0.7725,-0.7522,0.0,0.0,0.0,0.0,0.0,0.0,0.0,0.0,0.0,0.0,0.0,0.0,0.0,0.0,0.0,0.0,0.0,0.0,0.0,0.0,0.0,0.0,0.0,0.0,0.0,0.0,0.0,0.0,0.0,0.0,0.0,0.0,0.0,0.0,0.0,0.0,0.0,0.0,0.0,0.0,0.0,-0.7143,-0.735,0.0,0.0,0.0,0.0,0.0,0.0,0.0,0.0,0.0,0.0,0.0,0.0,0.0,-0.5373,-0.3457,-0.397,-0.4008,-0.3535,-0.3649,-0.3664,-0.3714,-0.3762,-0.3775,-0.3759,-0.3888,0.0,-0.4736,-0.4866,0.0,0.0,0.0,0.0,0.0,0.0,0.0,0.0,0.0,0.0,0.0,0.0,0.0,0.0,0.0,0.0,0.0,0.0,0.0,0.0,0.0,-0.9203,-0.9274,-0.9674,-0.9232,-0.8682,-0.8042,-0.7744,0.0,0.0,-0.7146,-0.7295,-0.7305,-0.7592,-0.8091,-0.8847,-0.919,-0.94,-0.9348,-0.973,-0.9755,-0.9534,-0.9423,-0.8765,-0.776,-0.77,0.0,0.0,0.0,0.0,0.0,0.0,0.0,0.0,0.0,0.0,0.0,0.0,0.0,0.0,0.0,0.0,0.0,0.0,0.0,0.0,0.0,0.0,0.0,0.0,0.0,0.0,0.0,0.0,0.0,0.0,0.0,0.0,0.0,0.0,0.0,0.0,0.0,0.0,0.0,-0.7855,-0.7939,-0.7639,-0.761,-0.7604,0.0,0.0,0.0,0.0,0.0,0.0,0.0,0.0,0.0,-0.6947,-0.6987,-0.6095,-0.4145,-0.4511,-0.4263,-0.3252,-0.3247,-0.3326,-0.3761,-0.3653,-0.3781,-0.4153,-0.4177,-0.4336,-0.4498,-0.479,-0.5268,-0.5809,0.0,0.0,0.0,0.0,-0.6237,-0.5945,0.0,0.0,0.0,0.0,0.0,0.0,0.0,0.0,0.0,0.0,0.0,0.0,-1.0328,-1.0462,-1.0753,-1.1324,-1.0975,-1.045,-0.9723,-0.94,-0.9069,-0.8651,-0.8529,-0.8604,-0.8875,-0.927,-0.9504,-0.9601,-0.9949,-1.0255,-1.0478,-1.0983,-1.1,-1.0757,-1.065,-0.9606,-0.8015,-0.8043,-0.7788,-0.7269,0.0,0.0,0.0,0.0,0.0,0.0,0.0,0.0,0.0,0.0,0.0,0.0,0.0,0.0,0.0,0.0,0.0,0.0,0.0,0.0,0.0,0.0,0.0,0.0,0.0,0.0,0.0,0.0,0.0,0.0,0.0,0.0,0.0,0.0,0.0,0.0,0.0,-0.8563,-0.8503,-0.8171,-0.8288,-0.844,0.0,0.0,0.0,0.0,0.0,0.0,-0.9946,-0.9408,-0.8815,-0.7998,-0.8232,-0.7303,-0.5157,-0.5224,-0.4778,-0.3539,-0.3049,-0.3088,-0.3537,-0.3399,-0.3537,-0.408,-0.407,-0.4065,-0.4176,-0.4592,-0.4756,-0.4805,-0.5639,-0.5836,-0.5569,-0.5514,-0.5374,-0.5009,0.0,0.0,0.0,0.0,0.0,0.0,0.0,0.0,0.0,0.0,0.0,-1.11,-1.1078,-1.2041,-1.2462,-1.1673,-1.1792,-1.1809,-1.1505,-1.1776,-1.2092,-1.2578,-1.12,-1.0911,-1.1864,-1.1364,-1.051,-0.9419,-1.0682,-1.1338,-1.138,-1.1898,-1.21,-1.2091,-1.1748,-1.0682,-0.9083,-0.9255,-0.9074,-0.8558,-0.7844,0.0,0.0,0.0,0.0,0.0,0.0,0.0,0.0,0.0,0.0,0.0,0.0,0.0,0.0,0.0,0.0,0.0,0.0,0.0,0.0,0.0,0.0,0.0,0.0,0.0,0.0,0.0,0.0,0.0,0.0,0.0,0.0,0.0,0.0,0.0,0.0,0.0,0.0,-0.868,-0.8773,0.0,0.0,0.0,0.0,-0.9862,-0.9681,-0.9871,-1.0277,-0.9788,-0.9149,-0.8441,-0.9398,-0.8813,-0.6539,-0.6156,-0.5665,-0.4922,-0.3698,-0.3176,-0.3357,-0.3357,-0.3357,-0.3357,-0.3326,-0.345,-0.3445,-0.364,-0.4299,-0.5133,-0.487,-0.5218,-0.5869,-0.4739,-0.4282,-0.4155,0.0,0.0,0.0,-0.6457,-0.6745,-0.7183,-0.7802,-0.8184,-0.8803,-0.9863,-1.0687,-1.1601,-1.2745,-1.3156,-1.3623,-1.432,-1.396,-1.3737,-1.3792,-1.3859,-1.3346,-1.2005,-1.2351,-1.2404,-1.2059,-1.1198,-1.065,-1.0558,-1.1402,-1.171,-1.1591,-1.2133,-1.2267,-1.2153,-1.2168,-1.1846,-1.1095,-1.08,-1.0419,-0.9813,-0.9555,-0.8932,0.0,0.0,0.0,0.0,0.0,0.0,0.0,0.0,0.0,0.0,0.0,0.0,0.0,0.0,0.0,0.0,0.0,0.0,0.0,0.0,0.0,0.0,0.0,0.0,0.0,0.0,0.0,0.0,0.0,0.0,0.0,0.0,0.0,0.0,0.0,0.0,0.0,-0.9415,-1.0004,0.0,-1.0029,-1.0364,-1.0839,-1.1371,-1.1452,-1.1819,-1.2631,-1.1977,-1.1434,-1.1157,-1.1149,-1.0315,-0.8362,-0.8298,-0.7085,-0.4843,-0.4416,-0.3859,-0.3022,-0.3057,-0.3214,-0.3498,-0.3512,-0.352,-0.3518,-0.3352,-0.3569,-0.4021,-0.3882,-0.3847,-0.3939,-0.3465,-0.3248,-0.3169,0.0,0.0,0.0,-0.6971,-0.7222,-0.7637,-0.8281,-0.8528,-0.913,-1.065,-1.1722,-1.2841,-1.4183,-1.4864,-1.5466,-1.6095,-1.595,-1.5727,-1.5293,-1.5279,-1.4468,-1.2799,-1.379,-1.3707,-1.2318,-1.2035,-1.1809,-1.1492,-1.2038,-1.2371,-1.2492,-1.2864,-1.3107,-1.3093,-1.2924,-1.2724,-1.2522,-1.2164,-1.1604,-1.1034,-1.0779,-1.0173,-0.9261,0.0,0.0,0.0,0.0,0.0,0.0,0.0,0.0,0.0,0.0,0.0,0.0,0.0,0.0,0.0,0.0,0.0,0.0,0.0,0.0,0.0,0.0,0.0,0.0,0.0,0.0,0.0,0.0,0.0,0.0,0.0,0.0,0.0,0.0,-1.1075,-1.1189,-1.0184,-1.0826,-1.1202,-1.0997,-1.1419,-1.1954,-1.2569,-1.28,-1.3189,-1.3831,-1.2988,-1.2531,-1.2361,-1.1767,-1.0959,-0.9947,-0.9474,-0.8377,-0.6654,-0.6065,-0.5185,-0.4011,-0.3926,-0.3645,-0.3184,-0.3208,-0.3218,-0.3222,-0.294,-0.2927,-0.3192,-0.3142,-0.2975,-0.2825,-0.2825,-0.269,-0.2716,0.0,0.0,-0.7425,-0.7087,-0.7656,-0.8245,-0.8398,-0.875,-0.9429,-1.0622,-1.309,-1.4928,-1.5255,-1.7167,-1.8026,-1.6763,-1.7548,-1.7462,-1.6036,-1.5936,-1.5743,-1.5388,-1.5617,-1.4904,-1.2967,-1.4088,-1.3849,-1.2052,-1.249,-1.314,-1.3884,-1.4286,-1.4548,-1.481,-1.4105,-1.3523,-1.3321,-1.3321,-1.2882,-1.2065,-1.1419,-1.1287,-1.1344,0.0,0.0,0.0,0.0,0.0,0.0,0.0,0.0,0.0,0.0,0.0,0.0,0.0,0.0,0.0,0.0,0.0,0.0,0.0,0.0,0.0,0.0,0.0,0.0,0.0,0.0,0.0,0.0,0.0,0.0,0.0,0.0,0.0,-1.1057,-1.107,-1.1037,-1.0854,-1.1151,-1.1599,-1.1786,-1.2923,-1.3491,-1.3234,-1.3584,-1.3789,-1.3789,-1.2885,-1.2153,-1.1869,-1.1348,-1.1141,-1.141,-0.9991,-0.95,-1.0258,-0.8431,-0.7064,-0.6005,-0.5929,-0.4711,-0.2358,-0.2517,-0.2518,-0.2522,-0.2579,-0.2616,-0.2626,-0.2517,-0.2474,-0.2473,-0.2626,-0.2626,-0.3254,-0.7924,-0.8056,-0.8005,-0.7588,-0.7837,-0.8232,-0.8556,-0.8757,-0.9676,-1.1998,-1.3755,-1.5272,-1.6526,-1.7456,-1.8079,-1.7944,-1.7508,-1.6937,-1.6365,-1.6548,-1.6692,-1.6663,-1.5959,-1.5258,-1.45,-1.4651,-1.395,-1.2613,-1.267,-1.307,-1.3686,-1.4095,-1.4432,-1.4971,-1.5208,-1.505,-1.4716,-1.4716,-1.429,-1.35,-1.3133,-1.265,-1.2077,0.0,0.0,0.0,0.0,0.0,0.0,0.0,0.0,0.0,0.0,0.0,0.0,0.0,0.0,0.0,0.0,0.0,0.0,0.0,0.0,0.0,0.0,0.0,0.0,0.0,0.0,0.0,0.0,0.0,0.0,0.0,-1.4199,-1.4128,-1.2098,-1.1994,-1.1989,-1.1753,-1.225,-1.2631,-1.2969,-1.3552,-1.421,-1.4477,-1.4728,-1.4871,-1.4871,-1.4474,-1.4083,-1.3945,-1.3357,-1.3006,-1.3079,-1.2238,-1.139,-1.0409,-0.9887,-0.8141,-0.5387,-0.5468,-0.4344,-0.2548,-0.2568,-0.259,-0.2612,-0.2628,-0.2664,-0.2701,-0.262,-0.2578,-0.2723,-0.3965,-0.6191,-0.8473,-0.8404,-0.843,-0.8332,-0.8047,-0.811,-0.8354,-0.8639,-0.873,-0.9723,-1.2445,-1.4084,-1.5557,-1.7149,-1.786,-1.838,-1.8802,-1.751,-1.661,-1.6458,-1.6045,-1.6197,-1.7225,-1.6778,-1.631,-1.5746,-1.5625,-1.4735,-1.3059,-1.3059,-1.3325,-1.3984,-1.4268,-1.4595,-1.4979,-1.5292,-1.5266,-1.4962,-1.5097,-1.4778,-1.4335,-1.436,-1.3788,-1.2777,-1.248,-1.1964,-1.1348,-1.09,-1.01,-0.9301,-0.9311,0.0,0.0,0.0,0.0,0.0,0.0,0.0,0.0,0.0,0.0,0.0,0.0,0.0,0.0,0.0,0.0,0.0,0.0,0.0,0.0,0.0,0.0,0.0,0.0,-1.6031,-1.5721,-1.4175,-1.3483,-1.3029,-1.2978,-1.331,-1.355,-1.3688,-1.4156,-1.4657,-1.4921,-1.556,-1.5678,-1.5525,-1.5337,-1.5027,-1.4547,-1.3868,-1.3504,-1.3476,-1.2908,-1.2372,-1.1726,-1.174,-1.0623,-0.8747,-0.6673,-0.5507,-0.4967,-0.3336,-0.3358,-0.4221,-0.4052,-0.3403,-0.2751,0.0,0.0,0.0,0.0,-0.7215,-0.9763,-0.8347,-0.8371,-0.8391,-0.8352,-0.834,-0.8419,-0.8639,-0.8646,-0.9614,-1.2287,-1.4132,-1.5779,-1.745,-1.8203,-1.8834,-1.9332,-1.7632,-1.6399,-1.6257,-1.5096,-1.5256,-1.7384,-1.7994,-1.7712,-1.6583,-1.6947,-1.586,-1.3465,-1.3441,-1.3768,-1.4576,-1.4567,-1.4728,-1.5175,-1.4973,-1.4911,-1.4724,-1.4955,-1.4964,-1.4916,-1.5147,-1.4576,-1.3629,-1.2961,-1.2501,-1.2171,-1.1198,-1.0481,-1.0131,-1.0572,0.0,0.0,0.0,0.0,0.0,0.0,0.0,0.0,0.0,0.0,0.0,0.0,0.0,0.0,0.0,0.0,0.0,0.0,0.0,0.0,0.0,0.0,0.0,0.0,-1.7587,-1.685,-1.6837,-1.5334,-1.413,-1.4288,-1.4341,-1.437,-1.442,-1.4776,-1.5026,-1.5214,-1.6019,-1.6268,-1.594,-1.5701,0.0,0.0,0.0,-1.3027,-1.315,-1.2612,-1.2762,-1.3451,-1.3459,-1.3389,-1.2917,-0.8461,-0.7094,-0.7626,-0.4342,-0.4001,-0.6088,-0.5556,-0.4342,-0.2781,-0.2754,-0.2914,-0.3592,-0.5243,-0.7113,-0.9045,-0.8301,-0.8328,-0.8262,-0.788,-0.7909,-0.8108,-0.8415,-0.8385,-0.9254,-1.1921,-1.4218,-1.6287,-1.8141,-1.8984,-1.9242,-1.8932,-1.7094,-1.5683,-1.5308,-1.5792,-1.6685,-1.8141,-1.9506,-1.9262,-1.7321,-1.7529,-1.6382,-1.4026,-1.3872,-1.4058,-1.4703,-1.4993,-1.5377,-1.5975,-1.5773,-1.5874,-1.6248,-1.5772,-1.5514,-1.5725,-1.5564,-1.5177,-1.4657,-1.4279,-1.3873,-1.3509,-1.4142,-1.3649,-1.2705,-1.3561,-1.3692,-1.3521,-1.2955,-1.3137,0.0,0.0,0.0,0.0,0.0,0.0,0.0,0.0,0.0,0.0,0.0,0.0,0.0,0.0,0.0,0.0,0.0,0.0,0.0,-2.0605,-1.9759,-1.9228,-1.9735,-1.7488,-1.5525,-1.4828,-1.4941,-1.5302,-1.5528,-1.5411,-1.5699,-1.6384,-1.6111,-1.6155,-1.6608,-1.6145,-1.5622,-1.5441,-1.4655,-1.4259,-1.4288,-1.3617,-1.3432,-1.3756,-1.3797,0.0,-0.9339,-0.8309,-0.6413,-0.3823,-0.313,-0.3147,-0.352,-0.3315,-0.313,-0.2782,-0.2777,-0.4673,-0.7252,-0.7582,-0.9816,-1.2588,-0.8233,-0.8216,-0.8229,-0.8077,-0.7925,-0.7979,-0.8515,-0.8436,-0.9156,-1.1502,-1.3041,-1.4576,-1.6314,-1.6473,-1.6665,-1.732,-1.6232,-1.5408,-1.5218,-1.6289,-1.7556,-1.9292,-1.9601,-1.9028,-1.7534,-1.6984,-1.5942,-1.418,-1.3993,-1.4131,-1.457,-1.4711,-1.5069,-1.5613,-1.5659,-1.6008,-1.6489,-1.6285,-1.628,-1.632,-1.6226,-1.5793,-1.5236,-1.4837,-1.4938,-1.5238,-1.5625,-1.5585,-1.5655,-1.5881,-1.6092,-1.602,-1.4973,-1.5083,-1.5244,0.0,0.0,0.0,0.0,0.0,0.0,0.0,0.0,0.0,0.0,0.0,0.0,0.0,0.0,-1.7901,-1.9724,0.0,-2.1713,-2.2978,-2.2428,-2.1909,-2.2029,-1.9872,-1.7699,-1.5815,-1.579,-1.5949,-1.5742,-1.5616,-1.5957,-1.6616,-1.6564,-1.6581,-1.6643,-1.636,-1.5983,-1.5634,-1.4825,-1.4543,-1.4623,-1.3004,-1.2393,-1.246,-1.1485,-1.0121,-0.8383,-0.7381,-0.652,-0.5646,-0.3728,-0.3383,-0.4091,-0.3188,-0.3367,-0.4267,-0.3187,-0.4034,-0.5729,-0.6628,-0.8209,-0.9783,-0.8269,-0.8233,-0.8272,-0.8245,-0.7939,-0.7917,-0.8665,-0.8574,-0.9163,-1.1106,-1.1868,-1.2837,-1.4321,-1.4001,-1.4131,-1.532,-1.5358,-1.5317,-1.5464,-1.6755,-1.8237,-2.0067,-1.9575,-1.8853,-1.7937,-1.7046,-1.598,-1.4703,-1.4542,-1.4491,-1.4531,-1.4596,-1.4935,-1.5388,-1.5537,-1.5972,-1.6407,-1.6664,-1.6802,-1.6802,-1.7096,-1.6739,-1.6084,-1.5824,-1.5968,-1.6478,-1.6676,-1.7314,-1.8185,-1.8059,-1.8452,-1.8666,-1.7227,-1.7111,-1.6954,-1.4656,-1.4536,0.0,0.0,0.0,0.0,0.0,0.0,0.0,0.0,-1.6292,-1.6535,-1.8673,-1.8883,-1.9442,-2.1598,-2.248,-2.3261,-2.5018,-2.4323,-2.3546,-2.3344,-2.1323,-1.9047,-1.695,-1.6779,-1.6563,-1.6095,-1.6094,-1.6316,-1.6623,-1.6802,-1.6973,-1.6691,-1.6673,-1.6435,-1.5648,-1.4937,-1.4585,-1.4572,-1.2146,-1.1123,-1.1145,-0.9315,-0.8309,-0.7799,-0.6439,-0.6287,-0.7363,-0.4173,-0.3803,-0.502,-0.3597,-0.3784,-0.5044,-0.3406,-0.283,-0.2962,-0.4943,-0.603,-0.6393,-0.8578,-0.8495,-0.8397,-0.7881,-0.7636,-0.7795,-0.8665,-0.8696,-0.9183,-1.0893,-1.2147,-1.3256,-1.4224,-1.4716,-1.4655,-1.3779,-1.4587,-1.5233,-1.5461,-1.7332,-1.8798,-1.98,-2.0292,-2.0221,-1.9566,-1.9456,-1.8505,-1.6481,-1.6442,-1.5988,-1.5223,-1.5563,-1.5878,-1.6328,-1.6028,-1.6319,-1.6908,-1.6425,-1.6499,-1.6949,-1.7956,-1.8352,-1.828,-1.8702,-1.777,-1.65,-1.8696,-1.9398,-1.948,-2.0387,-2.0777,-2.0711,-2.0526,-1.9508,-1.813,-1.7034,-1.5538,-1.4001,-1.2777,-1.3701,-1.5405,-1.7029,-1.7163,-1.7795,0.0,-2.0174,-1.9636,-2.2326,-2.2613,-2.28,-2.3882,-2.4316,-2.4848,-2.5698,-2.3585,-2.2181,-2.279,-2.0131,-1.787,-1.7545,-1.7736,-1.7846,-1.7702,-1.7412,-1.7284,-1.7328,-1.6992,-1.6896,-1.7399,-1.7101,-1.686,-1.6511,-1.6026,-1.5436,-1.4743,-1.2463,-1.1291,-1.14,-0.9455,-0.7717,-0.616,-0.5804,-0.4903,-0.3456,-0.3097,-0.3081,-0.3234,-0.2901,-0.3045,-0.3148,-0.2812,-0.2804,-0.2966,-0.5022,-0.688,-0.8155,-0.8551,-0.8551,-0.8495,-0.8033,-0.7744,-0.7917,-0.8867,-0.8867,-0.9188,-1.0453,-1.1089,-1.1663,-1.219,-1.2753,-1.2923,-1.2434,-1.3888,-1.5072,-1.549,-1.7401,-1.8811,-1.9519,-1.9235,-1.9299,-1.946,-1.868,-1.8123,-1.7897,-1.7892,-1.7379,-1.6183,-1.6471,-1.6407,-1.5727,-1.5694,-1.6035,-1.6619,-1.6536,-1.6655,-1.6949,-1.8102,-1.8311,-1.8197,-2.0101,-1.9404,-1.7562,-1.8628,-1.9724,0.0,-2.0499,-2.0601,-2.0535,-2.0201,-1.9479,-1.837,-1.6446,-1.5872,-1.6046,-1.6773,-1.6826,-1.7078,-1.8945,-1.9426,-1.984,-2.1323,-2.1136,-2.1195,-2.2822,-2.3457,-2.38,-2.4066,-2.4848,-2.5249,-2.4905,-2.397,-2.3191,-2.25,-2.0561,-1.9209,-1.9243,-1.8779,-1.8128,-1.7521,-1.7456,-1.7363,-1.7363,-1.7295,-1.7225,-1.7311,-1.7246,-1.7053,-1.6722,-1.6559,-1.6129,-1.5257,-1.2061,-1.0347,-0.9738,-0.6684,-0.4894,-0.4187,-0.4212,-0.3675,-0.2941,-0.2906,-0.2894,-0.2898,-0.2894,-0.2879,-0.286,-0.2851,-0.2853,-0.3039,-0.3746,-0.4639,-0.5189,-0.8606,-0.8634,-0.8578,-0.8213,-0.8004,-0.8208,-0.9103,-0.9127,-0.9328,-1.0226,-1.0407,-1.0567,-1.0838,-1.1388,-1.179,-1.195,-1.3697,-1.4959,-1.5456,-1.7218,-1.8469,-1.9092,-1.8707,-1.8742,-1.9493,-1.8735,-1.8506,-1.8955,-1.9243,-1.8754,-1.748,-1.7394,-1.7039,-1.6057,-1.5976,-1.6066,-1.6352,-1.6655,-1.6802,-1.6949,-1.8112,-1.8446,-1.8555,-2.059,-2.033,-1.9123,-1.9123,-1.9598,-2.0199,-1.9893,-1.9628,-1.9575,-1.9345,-1.8758,-1.7836,-1.5979,-1.5965,-1.6941,-1.8771,-1.8905,-1.8891,-2.0414,-2.1269,-2.1737,-2.1817,-2.1951,-2.2271,-2.3198,-2.3883,-2.4336,-2.4553,-2.5468,-2.587,-2.5144,-2.4555,-2.3843,-2.2773,-2.1112,-1.9978,-1.9943,-1.9134,-1.8312,-1.7563,-1.759,-1.7607,-1.7278,-1.7443,-1.7406,-1.6961,-1.7256,-1.7245,-1.7083,-1.7083,-1.68,-1.5881,-1.2485,-1.0049,-0.8533,-0.5273,-0.3466,-0.2928,-0.2942,-0.2953,-0.2958,-0.2911,-0.29,-0.2915,-0.2897,-0.2896,-0.2902,-0.2882,-0.2893,-0.2915,-0.2863,-0.2848,-0.2857,-0.8915,-0.8778,-0.8606,-0.8347,-0.8326,-0.8581,-0.9193,-0.9446,-0.9755,-1.034,-1.0619,-1.088,-1.1084,-1.1699,-1.2214,-1.2559,-1.4022,-1.5105,-1.5571,-1.6693,-1.7691,-1.845,-1.9078,-1.9666,-2.0133,-2.0704,-2.0501,-1.9505,-2.0414,-2.0122,-1.8687,-1.8304,-1.8195,-1.8062,-1.7146,-1.6802,-1.6802,-1.6802,-1.6802,-1.6949,-1.8102,-1.9257,-2.0101,-1.97,-2.0119,-2.0969,-2.0969,-1.976,-1.8223,-1.8433,-1.8433,-1.8249,-1.8738,-1.7742,-1.6393,-1.6593,-1.5885,-1.5284,-1.6486,-1.825,-1.996,-2.0869,-2.2191,-2.334,-2.3621,-2.3474,-2.3447,-2.4467,-2.4616,-2.4952,-2.5959,-2.6532,-2.6794,-2.7093,-2.4827,-2.3164,-2.3512,-2.0727,-1.8806,-1.8689,-1.8575,-1.8497,-1.8181,-1.8202,-1.7978,-1.7144,-1.7138,-1.7153,-1.6828,-1.7181,-1.7611,-1.7805,-1.7797,-1.7271,-1.6401,-1.3912,-1.1303,-0.8533,-0.6722,-0.4755,-0.2958,-0.293,-0.2934,-0.296,-0.2941,-0.2926,-0.2916,-0.2927,-0.2909,-0.2875,-0.2874,-0.2898,-0.2932,-0.2931,-0.2923,-0.2917,-0.8887,-0.8937,-0.8933,-0.8572,-0.8712,-0.8945,-0.9187,-0.9292,-0.9627,-1.0487,-1.0856,0.0,0.0,0.0,0.0,0.0,-1.35,-1.4292,-1.487,-1.6521,-1.7529,-1.7484,-1.8863,-1.9679,-1.9933,-2.0334,-2.0473,-2.0602,-2.1146,-2.0722,-1.9338,-1.8562,-1.7809,-1.6879,-1.6015,-1.5634,-1.5763,-1.6037,-1.6264,-1.652,-1.749,-1.7938,-1.8097,-1.8734,-1.8262,-1.7368,0.0,-1.7543,-1.6964,-1.6985,-1.7171,-1.7226,-1.7145,-1.6786,-1.6183,-1.5325,-1.5761,-1.6764,-1.8156,-1.9693,-2.1269,-2.2552,-2.3394,-2.3928,-2.4035,-2.4275,-2.4489,-2.4636,-2.4327,-2.4133,-2.4355,-2.4786,-2.5077,-2.458,-2.3606,-2.2618,-2.2155,-2.0242,-1.8763,-1.8393,-1.8876,-1.8694,-1.7863,-1.811,-1.8093,-1.8044,-1.8218,-1.813,-1.8078,-1.8541,-1.8698,-1.8503,-1.8392,-1.7924,-1.6753,-1.4276,-1.1721,-0.8708,-0.5531,-0.3687,-0.296,-0.2911,-0.2915,-0.2958,-0.2913,-0.2902,-0.2915,-0.29,-0.2886,-0.2878,-0.2916,-0.2932,-0.2936,-0.2962,-0.2961,-0.2947,-0.9128,-0.9182,-0.9178,-0.8878,-0.9015,0.0,0.0,0.0,0.0,0.0,0.0,0.0,0.0,0.0,0.0,0.0,0.0,-1.3526,-1.4144,-1.5675,-1.6661,-1.6758,-1.7901,-1.8669,-1.8992,-1.9414,-1.971,-1.9786,-2.0781,-2.0672,-1.9356,-1.8617,-1.7729,-1.6834,-1.5529,-1.4999,-1.5109,-1.5338,-1.5643,-1.6126,-1.6291,-1.6549,-1.7019,-1.696,-1.6264,0.0,-1.5231,-1.5272,-1.5311,-1.5431,-1.5549,-1.5704,-1.5631,-1.5655,-1.573,-1.5429,-1.6377,-1.8105,-2.0147,-2.1537,-2.2752,-2.3821,-2.4302,-2.4516,-2.4516,-2.481,-2.509,-2.5104,-2.4396,-2.3829,-2.3827,-2.4214,-2.4181,-2.3313,-2.3003,-2.2638,-2.1726,-2.0159,-1.897,-1.8753,-1.8864,-1.8831,-1.8052,-1.82,-1.8244,-1.8427,-1.8618,-1.8787,-1.8532,-1.8805,-1.876,-1.8503,-1.8276,-1.7695,-1.6766,-1.443,-1.1468,-0.7863,-0.4475,-0.2977,-0.2976,-0.2927,-0.2926,-0.296,-0.2921,-0.2912,-0.292,-0.3068,-0.2886,-0.2909,-0.2956,-0.2973,-0.2977,-0.2992,-0.2996,-0.2991,-0.9579,-0.9499,-0.9369,0.0,0.0,0.0,0.0,0.0,0.0,0.0,0.0,0.0,0.0,0.0,0.0,0.0,0.0,0.0,-1.349,-1.4156,-1.508,-1.6381,-1.6359,-1.6719,-1.7549,-1.8245,-1.8241,-1.7331,-1.9374,-1.9903,-1.8771,-1.8093,-1.7805,-1.7701,-1.5792,-1.4909,-1.4862,-1.4659,-1.5032,-1.5687,-1.4564,-1.5332,-1.672,-1.4497,-1.4339,-1.503,-1.3667,-1.32,-1.3395,-1.3878,-1.3952,-1.3913,-1.4542,-1.4757,-1.5139,-1.6898,-1.8039,-1.9312,-2.2178,-2.3541,-2.4315,-2.4596,-2.4863,-2.5064,-2.5064,-2.5077,-2.5237,-2.5718,-2.4676,-2.3741,-2.3941,-2.4296,-2.4255,-2.3281,-2.3261,-2.3079,-2.24,-2.0754,-1.9503,-1.9395,-1.9031,-1.8894,-1.8761,-1.8646,-1.8444,-1.8279,-1.8818,-1.8927,-1.855,-1.8182,-1.7822,-1.7797,-1.7468,-1.6931,-1.6189,-1.399,-1.0557,-0.6,-0.3943,-0.3006,-0.3003,-0.2975,-0.2962,-0.2964,-0.2964,-0.2953,-0.2935,-0.3079,-0.2915,-0.2965,-0.2987,-0.3018,-0.3048,-0.302,-0.3028,-0.3044,0.0,0.0,0.0,0.0,0.0,0.0,0.0,0.0,0.0,0.0,0.0,0.0,0.0,0.0,0.0,0.0,0.0,0.0,-1.2506,-1.4017,-1.5005,-1.5233,-1.6657,-1.7383,-1.7219,-1.7534,-1.7632,-1.7528,-1.7612,-1.756,-1.7341,-1.6266,-1.5817,-1.5707,-1.4808,-1.4439,-1.46,-1.4571,-1.4647,-1.4755,-1.4134,-1.3868,-1.3836,-1.3076,-1.28,-1.2772,-1.2839,-1.2906,-1.2975,-1.3574,-1.4542,-1.5856,-1.7147,-1.7672,-1.7877,-1.8433,-1.9942,-2.1608,-2.2686,-2.3834,-2.4877,-2.4943,-2.4863,-2.4756,-2.4756,-2.509,-2.513,-2.4195,-2.3166,-2.2124,-2.1109,-2.176,-2.2538,-2.3089,-2.3943,-2.4768,-2.5702,-2.3165,-2.1108,-2.0958,-2.0133,-1.9241,-1.8752,-1.9606,-1.9931,-1.9589,-1.969,-1.9697,-1.9804,-1.9035,-1.8627,-1.8164,-1.7182,-1.6453,-1.6189,-1.2146,-0.959,-0.824,-0.4691,-0.2995,-0.2972,-0.2965,-0.2973,-0.2995,-0.2988,-0.2986,-0.2988,-0.3002,-0.2998,-0.2988,-0.3024,-0.3043,-0.3051,-0.3043,-0.3046,-0.305,0.0,0.0,0.0,0.0,0.0,0.0,0.0,0.0,0.0,0.0,0.0,0.0,0.0,0.0,0.0,0.0,0.0,0.0,0.0,-1.3319,-1.4103,-1.4496,-1.5638,-1.6211,-1.6201,-1.6722,-1.6684,-1.6088,-1.6748,-1.6739,-1.5945,-1.5521,-1.5032,-1.4539,-1.3823,-1.3487,-1.3588,-1.3435,-1.3648,0.0,0.0,-1.3028,-1.3035,-1.2581,-1.2235,-1.1931,-1.2385,-1.2726,-1.3209,-1.4917,-1.6313,-1.7317,-1.7401,-1.7995,-1.8868,-1.9876,-2.1241,-2.2658,-2.3981,-2.4917,-2.5598,-2.5331,-2.5144,-2.481,-2.4035,-2.4115,-2.3968,-2.2903,-2.1679,-2.0711,-1.9996,-2.0899,-2.1813,-2.2153,-2.3794,-2.5347,-2.5792,-2.3496,-2.1719,-2.1715,-2.0547,-1.955,-1.935,-1.9841,-2.0177,-2.0194,-2.0185,-2.0045,-2.01,-1.8857,-1.8144,-1.7932,-1.6583,-1.532,-1.4356,-1.1699,-0.9471,-0.7733,-0.5475,-0.3957,-0.3001,-0.3001,-0.301,-0.3026,-0.3021,-0.3022,-0.3028,-0.3046,-0.3039,-0.3021,-0.3043,-0.3052,-0.3052,-0.3052,-0.3052,-0.3054,0.0,0.0,0.0,0.0,0.0,0.0,0.0,0.0,0.0,-1.1618,-1.1872,-1.2004,0.0,0.0,0.0,0.0,0.0,0.0,0.0,0.0,-1.3065,-1.4041,-1.4168,-1.4478,-1.5037,-1.5855,-1.5636,-1.4344,-1.6193,-1.6251,-1.468,-1.4976,-1.4597,-1.3732,-1.2901,-1.251,-1.2312,-1.2164,-1.2523,-1.3179,-1.2352,-1.2411,-1.3014,0.0,-1.2024,-1.185,-1.2184,-1.277,-1.3874,-1.6742,-1.8026,-1.8411,-1.7189,-1.7873,-1.9509,-2.1463,-2.24,-2.3232,-2.5344,-2.6079,-2.6199,-2.5651,-2.5478,-2.4997,-2.326,-2.2859,-2.2593,-2.1685,-2.0346,-1.9367,-1.9777,-2.0808,-2.1464,-2.1218,-2.3433,-2.5119,-2.4882,-2.3285,-2.1996,-2.2256,-2.0647,-1.9713,-1.9902,-1.9949,-2.0044,-2.0242,-2.0431,-2.0374,-1.9977,-1.8397,-1.7266,-1.6931,-1.5773,-1.43,-1.2522,-1.2334,-1.0248,-0.6458,-0.6277,-0.495,-0.3046,-0.3051,-0.3052,-0.3052,-0.3052,-0.3052,-0.3052,-0.3052,-0.3052,-0.3052,-0.3052,-0.3055,-0.3058,-0.3058,-0.3061,-0.3067,0.0,0.0,0.0,0.0,0.0,0.0,0.0,0.0,0.0,0.0,-1.2295,-1.2077,0.0,0.0,0.0,0.0,0.0,0.0,0.0,0.0,0.0,-1.351,-1.4272,-1.4764,-1.492,-1.5199,-1.5214,-1.4928,-1.4598,-1.4181,-1.366,-1.3223,-1.2801,-1.2432,-1.2506,-1.2361,-1.2096,-1.253,-1.2417,-1.1979,-1.1682,-1.1544,-1.1452,-1.1503,-1.1543,0.0,-1.2104,-1.3319,-1.4838,-1.5621,-1.7153,-1.9222,-2.1288,-2.2242,-2.2589,-2.3567,-2.3917,-2.4316,-2.5064,-2.5625,-2.5945,-2.5598,-2.5331,-2.4756,-2.3207,-2.2859,-2.2243,-2.0178,-1.9312,-1.8816,-1.8337,-1.8918,-2.0066,-2.1956,-2.3899,-2.5688,-2.7692,-2.5525,-2.3686,-2.3901,-2.1536,-1.9873,-1.9921,-2.0072,-2.0261,-2.0469,-2.0516,-2.0431,-2.0185,-1.8716,-1.7141,-1.5617,-1.5307,-1.4966,-1.461,-1.3093,-1.0964,-0.8637,-0.6822,-0.4932,-0.3016,-0.304,-0.3052,-0.3052,-0.3052,-0.3052,-0.3052,-0.3052,-0.3052,-0.3052,-0.3052,-0.3067,-0.3089,-0.3089,-0.3106,-0.3127,0.0,0.0,0.0,0.0,0.0,0.0,0.0,-1.331,-1.3138,-1.3138,-1.2791,-1.2473,-1.233,-1.2437,-1.2401,0.0,0.0,0.0,0.0,0.0,0.0,0.0,-1.3702,-1.4029,-1.4152,-1.4689,-1.4984,-1.502,0.0,-1.4715,-1.4654,-1.3902,-1.3246,-1.2712,-1.2294,-1.2026,-1.1811,-1.1578,-1.1392,-1.1142,-1.0968,-1.0856,-1.0708,-1.1035,-1.1289,0.0,-1.1917,-1.2737,-1.3808,-1.4983,-1.6845,-1.9096,-2.1408,-2.2179,-2.2435,-2.3733,-2.4409,-2.477,-2.5371,-2.5852,-2.6186,-2.6199,-2.5865,-2.4903,-2.2498,-2.197,-2.1149,-1.8759,-1.8053,-1.7929,-1.7994,-1.8686,-1.9636,-2.1149,-2.3416,-2.5478,-2.713,-2.5296,-2.3675,-2.3985,-2.1642,-1.9873,-1.976,-2.0138,-2.0384,-2.0374,-2.0478,-2.0318,-1.967,-1.8116,-1.6681,-1.5181,-1.5262,-1.5262,-1.5181,-1.3216,-1.1121,-0.9056,-0.6986,-0.4914,-0.3031,-0.3046,-0.3052,-0.3052,-0.3052,-0.3052,-0.3052,-0.3052,-0.3062,-0.3076,-0.3076,-0.3095,-0.3122,-0.3122,-0.313,-0.3145,0.0,0.0,0.0,0.0,0.0,0.0,0.0,-1.348,-1.3344,-1.3412,-1.3207,-1.2965,-1.2615,-1.265,-1.2579,0.0,0.0,0.0,0.0,0.0,0.0,0.0,0.0,0.0,-1.3546,0.0,0.0,-1.4814,-1.5126,0.0,0.0,0.0,0.0,0.0,-1.2444,-1.1913,-1.1582,-1.1009,-1.0681,0.0,0.0,-1.0476,-1.0485,0.0,0.0,0.0,0.0,-1.2106,-1.2528,-1.463,-1.6238,-1.7661,-1.9842,-2.0749,-2.1395,-2.3192,-2.3848,-2.4315,-2.5464,-2.6066,-2.6453,-2.6747,-2.648,-2.5264,-2.1884,-2.1067,-2.0354,-1.7645,-1.6914,-1.7035,-1.7833,-1.8393,-1.9098,-2.0172,-2.2387,-2.4385,-2.5827,-2.4252,-2.3046,-2.362,-2.1452,-1.9883,-1.9618,-2.0129,-2.0422,-2.0299,-2.0346,-1.9943,-1.8845,-1.7592,-1.6248,-1.5187,-1.5296,-1.51,-1.4571,-1.2981,-1.0899,-0.8477,-0.6773,-0.4903,-0.3033,-0.3046,-0.3052,-0.3052,-0.3059,-0.3058,-0.3054,-0.3066,-0.3082,-0.3099,-0.3104,-0.3126,-0.3153,-0.3153,-0.3156,-0.3165,0.0,0.0,0.0,0.0,0.0,0.0,0.0,-1.3581,-1.3547,-1.348,-1.3641,-1.3506,-1.2931,-1.278,-1.2674,0.0,0.0,0.0,0.0,0.0,0.0,0.0,0.0,0.0,0.0,0.0,0.0,-1.4159,-1.4116,0.0,0.0,0.0,0.0,0.0,0.0,-1.2456,-1.1772,-1.2011,0.0,0.0,0.0,0.0,0.0,0.0,0.0,0.0,0.0,-1.2125,-1.2249,-1.4349,-1.444,-1.4237,-1.7728,-1.9787,-2.1248,-2.1697,-2.2004,-2.2659,-2.4623,-2.5758,-2.6453,-2.6747,-2.6787,-2.5758,-2.1977,-2.123,-2.0364,-1.7109,-1.6349,-1.6387,-1.7261,-1.7162,-1.7593,-1.969,-2.0667,-2.2226,-2.5144,-2.3606,-2.2478,-2.3117,-2.1428,-2.0034,-1.9637,-1.9996,-2.0318,-2.0497,-1.9961,-1.9242,-1.8313,-1.7234,-1.6321,-1.5181,-1.5194,-1.4377,-1.2365,-1.2273,-1.0115,-0.623,-0.6196,-0.5084,-0.2972,-0.3026,-0.3052,-0.3054,-0.3081,-0.3078,-0.3056,-0.3112,-0.3119,-0.31,-0.3127,-0.3157,-0.3185,-0.3185,-0.32,-0.3227,0.0,0.0,0.0,0.0,0.0,0.0,-1.3708,-1.3648,-1.3615,-1.3674,-1.3607,-1.3472,-1.3207,-1.2965,-1.2815,-1.2709,0.0,0.0,0.0,0.0,0.0,0.0,0.0,0.0,0.0,0.0,-1.387,-1.465,-1.4516,0.0,0.0,0.0,0.0,0.0,0.0,-1.2513,-1.1918,-1.1536,0.0,0.0,0.0,0.0,0.0,0.0,0.0,0.0,0.0,0.0,-1.1784,-1.2959,-1.3913,-1.4651,-1.5338,-1.678,-1.8637,-2.0895,-2.2004,-2.2926,-2.4823,-2.5985,-2.672,-2.7014,-2.5892,-2.4088,-2.1527,-2.001,-1.8702,-1.6627,-1.6173,-1.6395,-1.7174,-1.6981,-1.7096,-1.809,-1.9496,-2.0985,-2.2577,-2.1885,-2.1313,-2.1825,-2.0796,-1.9841,-1.9312,-1.9915,-2.0092,-1.9626,-1.8966,-1.8239,-1.7421,-1.7049,-1.6503,-1.5187,-1.5269,-1.4336,-1.2188,-1.1023,-0.8936,-0.6101,-0.4954,-0.3812,-0.3052,-0.3077,-0.3088,-0.3089,-0.3114,-0.3118,-0.3108,-0.3133,-0.3146,-0.3153,-0.3165,-0.32,-0.324,-0.324,-0.326,-0.3287,0.0,0.0,0.0,0.0,0.0,-1.3506,-1.3708,-1.3708,-1.3674,-1.3708,-1.3607,-1.3472,-1.3276,-1.3207,-1.3035,-1.2745,-1.265,0.0,0.0,0.0,0.0,0.0,0.0,0.0,0.0,0.0,-1.3729,-1.469,-1.4786,-1.5168,0.0,0.0,-1.4799,-1.4491,0.0,0.0,0.0,0.0,0.0,0.0,0.0,0.0,0.0,0.0,0.0,0.0,0.0,0.0,0.0,0.0,0.0,-1.4742,-1.383,-1.4502,-1.6278,-1.9219,-2.0922,-2.2365,-2.4222,-2.5692,-2.6787,-2.7175,-2.5478,-2.3233,-2.1275,-1.9347,-1.7694,-1.612,-1.58,-1.6007,-1.6766,-1.6731,-1.6673,-1.6967,-1.8544,-1.9986,-2.0686,-2.0161,-1.9916,-2.0463,-1.9582,-1.8758,-1.8575,-1.9499,-1.9662,-1.8984,-1.8251,-1.7667,-1.6673,-1.6897,-1.6342,-1.5187,-1.5289,-1.4,-1.1317,-0.9941,-0.789,-0.5278,-0.3875,-0.3108,-0.3146,-0.3134,-0.3129,-0.313,-0.3148,-0.3152,-0.3144,-0.3161,-0.3182,-0.3201,-0.321,-0.3245,-0.3288,-0.3288,-0.3302,-0.3322,0.0,0.0,0.0,0.0,0.0,0.0,-1.3581,-1.3708,-1.3708,-1.3514,-1.3674,-1.3573,-1.2965,-1.3438,-1.3506,-1.2745,-1.2826,0.0,0.0,0.0,0.0,0.0,0.0,0.0,0.0,0.0,-1.3384,-1.39,-1.4515,-1.4849,-1.492,-1.55,-1.5485,-1.4988,0.0,0.0,0.0,0.0,0.0,0.0,0.0,0.0,-1.0624,0.0,0.0,0.0,0.0,0.0,0.0,0.0,0.0,0.0,0.0,-1.3654,-1.4504,-1.59,-1.7996,-2.0281,-2.2338,-2.4609,-2.6533,-2.7121,-2.5932,-2.3928,-2.1283,-1.9652,-1.81,-1.5836,-1.5333,-1.5289,-1.5705,-1.6118,-1.638,-1.666,-1.7716,-1.9011,-2.0468,-1.8875,-1.7981,-1.9215,-1.7743,-1.6996,-1.7796,-1.8468,-1.8984,-1.8626,-1.8441,-1.7803,-1.6681,-1.6681,-1.6306,-1.5181,-1.5181,-1.3287,-0.9122,-0.9212,-0.7153,-0.3112,-0.315,-0.319,-0.3027,-0.3189,-0.317,-0.3171,-0.3183,-0.3171,-0.3148,-0.3205,-0.323,-0.3232,-0.3264,-0.3294,-0.3321,-0.3321,-0.3321,-0.3325,0.0,0.0,0.0,0.0,0.0,0.0,0.0,-1.3775,-1.3801,-1.3708,-1.3404,-1.3104,-1.2931,-1.2896,-1.2896,-1.2826,-1.2861,0.0,0.0,0.0,0.0,0.0,0.0,0.0,0.0,0.0,-1.3706,-1.4607,-1.483,-1.4855,-1.4639,-1.4801,-1.456,-1.3912,-1.4012,-1.3688,0.0,0.0,0.0,0.0,0.0,-1.0579,-1.058,0.0,0.0,0.0,0.0,0.0,0.0,0.0,0.0,0.0,0.0,0.0,0.0,-1.549,-1.6773,-1.8507,-2.0618,-2.1862,-2.2525,-2.2712,-2.1269,-1.9599,-1.8546,-1.6901,-1.5368,-1.4824,-1.4888,-1.5171,-1.5599,-1.6142,-1.666,-1.6967,-1.7849,-1.8718,-1.9386,-1.8912,-1.8595,-1.8866,-1.8465,-1.8298,-1.8918,-1.891,-1.844,-1.7164,-1.715,-1.6681,-1.5744,-1.5744,-1.5556,-1.5181,-1.5282,-1.3269,-0.9301,-0.9196,-0.7307,-0.3193,-0.3205,-0.3217,-0.323,-0.3217,-0.3212,-0.3212,-0.3215,-0.3212,-0.3205,-0.3245,-0.3261,-0.3265,-0.3295,-0.3325,-0.3352,-0.3352,-0.3366,-0.3385,0.0,0.0,0.0,0.0,0.0,0.0,0.0,-1.3708,-1.3708,-1.3607,-1.3242,-1.2965,-1.2756,-1.2685,-1.265,-1.2615,-1.2685,0.0,0.0,0.0,0.0,0.0,0.0,0.0,0.0,-1.3517,-1.4129,-1.4868,-1.5061,-1.5079,-1.4935,-1.4956,-1.4603,-1.4033,-1.4134,-1.379,0.0,0.0,0.0,0.0,-1.0903,-1.0678,-1.0835,0.0,0.0,0.0,0.0,0.0,0.0,0.0,0.0,0.0,0.0,0.0,0.0,0.0,-1.6049,-1.7023,-1.943,-2.0676,-2.1091,-2.1091,-1.9488,-1.7903,-1.7582,-1.6016,-1.4636,-1.4847,-1.4865,-1.5034,-1.5701,-1.5994,-1.642,-1.7048,-1.7809,-1.8387,-1.8751,-1.8534,-1.8195,-1.7949,-1.8436,-1.8795,-1.8801,-1.8527,-1.777,-1.6413,-1.6343,-1.5995,-1.5187,-1.5235,-1.4884,-1.4121,-1.4203,-1.2576,-0.9188,-0.8489,-0.6584,-0.323,-0.323,-0.323,-0.323,-0.323,-0.323,-0.323,-0.323,-0.3236,0.0,-0.3268,-0.329,-0.3311,-0.333,-0.3356,-0.3384,-0.3384,-0.3396,-0.3412,0.0,0.0,0.0,0.0,0.0,0.0,0.0,-1.3589,-1.3514,-1.3285,-1.3216,-1.301,-1.2579,-1.272,-1.265,-1.2186,0.0,0.0,0.0,0.0,0.0,0.0,0.0,0.0,0.0,-1.414,-1.4693,-1.4878,-1.5356,-1.5563,-1.5574,-1.5612,-1.5442,-1.5008,-1.5204,-1.4399,0.0,0.0,0.0,0.0,-1.1001,-1.0877,0.0,0.0,0.0,0.0,0.0,0.0,0.0,0.0,0.0,0.0,0.0,0.0,0.0,0.0,0.0,0.0,0.0,-2.0345,-2.141,-2.1533,-1.9932,-1.8196,-1.7916,-1.654,0.0,-1.5528,-1.5014,-1.4838,-1.5832,-1.5749,-1.5899,-1.6981,-1.7689,-1.8255,-1.868,-1.8011,-1.7266,-1.6722,-1.7815,-1.8264,-1.7588,-1.7453,-1.7157,-1.6145,-1.5616,-1.5357,-1.5208,-1.5337,-1.4444,-1.2324,-1.2138,-1.1042,-0.9001,-0.712,-0.5195,-0.323,-0.323,-0.323,-0.323,-0.323,-0.323,-0.323,-0.3232,-0.325,-0.3276,-0.328,-0.3315,-0.3367,-0.3369,-0.3386,-0.3412,-0.3412,-0.3412,-0.3412,0.0,0.0,0.0,0.0,0.0,0.0,0.0,0.0,0.0,0.0,-1.3242,-1.2931,-1.2826,-1.2508,-1.233,0.0,0.0,0.0,0.0,0.0,0.0,0.0,0.0,0.0,0.0,-1.5105,-1.5544,-1.5791,-1.6137,-1.5836,-1.5079,-1.5075,-1.5063,-1.4988,-1.4367,-1.3691,0.0,0.0,0.0,0.0,-1.1567,-1.1344,0.0,0.0,0.0,0.0,-1.213,-1.2869,0.0,0.0,0.0,0.0,0.0,0.0,0.0,0.0,-1.6199,-1.6499,-1.7823,0.0,-1.7176,-1.7566,-1.694,-1.6195,0.0,-1.5613,-1.4763,-1.5102,-1.5174,-1.5231,-1.5548,-1.641,-1.7088,-1.7141,-1.8036,-1.8711,-1.8741,-1.8821,-1.8704,-1.7993,-1.8997,-1.9048,-1.7104,-1.7491,-1.7281,-1.5938,-1.5588,-1.552,-1.5364,-1.5391,-1.4444,-1.2324,-1.067,-0.9005,-0.6925,-0.6595,-0.5231,-0.323,-0.323,-0.323,-0.323,-0.323,-0.323,-0.3231,-0.3254,-0.3269,-0.3279,-0.3326,-0.3354,-0.3369,-0.3392,-0.3405,-0.3412,-0.3412,-0.3412,-0.3412,0.0,0.0,0.0,0.0,0.0,0.0,0.0,0.0,0.0,0.0,0.0,-1.3,-1.2826,-1.2508,0.0,0.0,0.0,0.0,0.0,0.0,0.0,0.0,0.0,0.0,0.0,-1.5787,-1.6193,-1.6554,-1.6713,-1.6342,-1.5471,-1.5471,-1.5279,-1.4857,-1.3992,-1.3607,0.0,0.0,0.0,-1.2547,-1.1623,0.0,0.0,0.0,0.0,0.0,-1.2345,-1.2996,0.0,-1.3442,-1.3458,-1.3682,0.0,0.0,0.0,0.0,-1.5858,-1.6327,-1.687,-1.6627,-1.6286,-1.6624,-1.6339,-1.5993,-1.5945,-1.5714,-1.5599,-1.5443,-1.5484,-1.5765,-1.6299,-1.6535,-1.6959,-1.7676,-1.8244,-1.8489,-1.8206,-1.8207,-1.7969,-1.7611,-1.8415,-1.8427,-1.6946,-1.725,-1.7034,-1.5904,-1.5676,-1.5574,-1.5418,-1.5479,-1.4155,-1.0859,-0.9789,-0.8289,-0.6156,-0.5418,-0.4438,-0.323,-0.323,-0.323,-0.323,-0.323,-0.323,-0.3232,-0.3262,-0.3284,-0.33,-0.3347,-0.3375,-0.3389,-0.3405,-0.3412,-0.3412,-0.3412,-0.3412,-0.3412,0.0,0.0,0.0,0.0,0.0,0.0,0.0,0.0,0.0,0.0,0.0,0.0,0.0,0.0,0.0,0.0,0.0,0.0,0.0,0.0,0.0,0.0,0.0,0.0,0.0,0.0,-1.6853,-1.7153,-1.7296,-1.69,-1.6172,-1.6172,-1.5703,-1.4844,-1.3956,-1.3758,0.0,0.0,-1.2192,-1.238,-1.1398,0.0,0.0,0.0,0.0,0.0,0.0,0.0,0.0,-1.366,-1.3498,-1.3411,-1.3364,0.0,0.0,0.0,0.0,0.0,-1.6174,-1.6753,-1.7249,-1.7022,-1.6773,-1.6435,-1.5903,-1.6271,-1.6512,-1.6007,-1.5925,-1.6215,-1.7174,-1.6722,-1.6654,-1.8104,-1.8186,-1.8159,-1.793,-1.7294,-1.6886,-1.6811,-1.7383,-1.7587,-1.6696,-1.6785,-1.64,-1.6055,-1.5778,-1.5642,-1.5486,-1.5215,-1.332,-0.9403,-0.9087,-0.7943,-0.5774,-0.4019,-0.323,-0.323,-0.323,-0.323,-0.323,-0.323,-0.3232,-0.3239,-0.3269,-0.3299,-0.333,-0.336,-0.3388,-0.3412,-0.3412,-0.3412,-0.3412,-0.3412,-0.3412,-0.3412,0.0,0.0,0.0,0.0,0.0,0.0,0.0,0.0,0.0,0.0,0.0,0.0,0.0,0.0,0.0,0.0,0.0,0.0,0.0,0.0,0.0,0.0,0.0,0.0,0.0,0.0,0.0,-1.7535,-1.7981,-1.7634,-1.6641,-1.6641,-1.6152,-1.5293,-1.4336,-1.3588,-1.3066,-1.1867,-1.151,-1.1681,-1.1096,0.0,0.0,0.0,0.0,0.0,0.0,0.0,0.0,-1.3755,-1.3656,-1.3913,-1.3427,0.0,0.0,0.0,0.0,0.0,-1.6411,-1.7532,-1.8213,-1.7249,-1.6339,-1.579,-1.6619,-1.6058,-1.5456,-1.6059,-1.6406,-1.6521,-1.6234,-1.7366,-1.8199,-1.7469,-1.7984,-1.8485,-1.8578,-1.8284,-1.7978,-1.746,-1.7915,-1.7628,-1.5948,-1.6641,-1.6803,-1.6029,-1.6029,-1.5947,-1.5791,-1.403,-1.187,-0.9501,-0.7537,-0.5784,-0.3624,-0.343,-0.323,-0.323,-0.323,-0.323,-0.323,-0.323,-0.3245,-0.327,-0.33,-0.3332,-0.3362,-0.3392,-0.3408,-0.3412,-0.3412,-0.3412,-0.3412,-0.3412,-0.3412,-0.3412,0.0,0.0,0.0,0.0,0.0,0.0,0.0,0.0,0.0,0.0,0.0,0.0,0.0,0.0,0.0,0.0,0.0,0.0,0.0,0.0,0.0,0.0,0.0,0.0,0.0,0.0,0.0,0.0,-1.8277,-1.7881,-1.709,-1.6836,-1.6523,-1.6033,-1.5427,-1.4697,-1.3857,-1.3095,-1.2572,-1.2219,0.0,0.0,0.0,0.0,0.0,0.0,0.0,0.0,0.0,0.0,-1.3582,-1.3635,-1.3461,0.0,0.0,0.0,0.0,0.0,-1.6237,-1.6728,-1.7365,-1.8081,-1.854,-1.8791,-1.8902,-1.903,-1.8836,-1.7754,-1.7956,-1.8026,-1.7043,-1.723,-1.7651,-1.7589,-1.7749,-1.809,-1.837,-1.7414,-1.6613,-1.6557,-1.6593,-1.6408,-1.5533,-1.6088,-1.6504,-1.6069,-1.6001,-1.5526,-1.4275,-1.3082,-1.1106,-0.7741,-0.6786,-0.5217,-0.323,-0.3246,-0.3254,-0.3254,-0.3238,-0.3239,-0.3254,-0.3254,-0.3262,-0.3279,-0.3325,-0.3354,-0.3369,-0.3399,-0.3412,-0.3412,-0.3412,-0.3412,-0.3412,-0.3412,-0.3412,-0.3412,0.0,0.0,0.0,0.0,0.0,0.0,0.0,0.0,0.0,0.0,0.0,0.0,0.0,0.0,0.0,0.0,0.0,0.0,0.0,0.0,0.0,0.0,0.0,0.0,0.0,0.0,-1.7997,-1.8312,-1.8405,-1.8112,-1.7519,-1.709,-1.6836,-1.6636,-1.603,-1.5429,-1.4733,-1.3942,-1.3296,-1.28,0.0,0.0,0.0,0.0,0.0,0.0,0.0,0.0,0.0,0.0,0.0,0.0,0.0,0.0,0.0,-1.4436,-1.5095,-1.556,-1.6126,-1.6514,-1.715,-1.8815,-1.9676,-2.0287,-2.0887,-2.1341,-2.13,-1.9676,-1.9535,-1.9309,-1.7746,-1.6986,-1.6748,-1.7503,-1.7835,-1.8007,-1.8054,-1.6759,-1.5772,-1.6129,-1.5558,-1.5251,-1.5398,-1.573,-1.5954,-1.6076,-1.6172,-1.5112,-1.293,-1.2331,-1.0347,-0.6578,-0.6024,-0.4839,-0.323,-0.326,-0.3276,-0.3276,-0.3251,-0.3257,-0.3285,-0.3279,-0.3283,-0.3299,-0.3347,-0.337,-0.338,-0.3401,-0.3412,-0.3412,-0.3419,-0.3422,-0.3422,-0.3415,-0.3412,-0.3412,0.0,0.0,0.0,0.0,0.0,0.0,0.0,0.0,0.0,0.0,0.0,0.0,0.0,0.0,0.0,0.0,0.0,0.0,0.0,0.0,0.0,0.0,0.0,0.0,0.0,-1.7688,-1.8034,-1.7637,-1.8393,-1.8489,-1.7949,-1.7539,-1.7129,-1.6636,-1.5279,-1.4765,-1.4693,-1.2841,-1.2395,-1.2824,-1.1903,0.0,0.0,0.0,0.0,0.0,0.0,0.0,0.0,0.0,0.0,0.0,0.0,0.0,-1.3614,-1.4728,-1.5358,-1.5825,-1.6508,-1.8087,-1.939,-1.9034,-1.7162,-1.672,-2.1652,-2.0738,-1.9305,-2.1323,-2.0655,-1.9236,-1.7467,-1.6763,-1.6661,-1.6904,-1.8319,-1.9111,-1.8156,-1.772,-1.7222,-1.671,-1.5913,-1.5554,-1.5615,-1.5893,-1.6069,-1.6083,-1.6467,-1.5857,-1.3661,-1.1644,-0.9644,-0.7248,-0.4839,-0.3431,-0.323,-0.326,-0.3276,-0.3276,-0.3273,-0.3288,-0.3317,-0.3288,-0.3306,-0.336,-0.3365,-0.3382,-0.3408,-0.3411,-0.3412,-0.3415,-0.3442,-0.3454,-0.345,-0.3422,-0.3412,-0.3412,0.0,0.0,0.0,0.0,0.0,0.0,0.0,0.0,0.0,0.0,0.0,0.0,0.0,0.0,0.0,0.0,0.0,0.0,0.0,0.0,0.0,0.0,0.0,-1.3933,-1.5493,-1.6411,-1.713,-1.7575,-1.8041,-1.8212,-1.8008,-1.7852,-1.7402,-1.6675,-1.6471,-1.5927,-1.5119,-1.411,-1.3678,-1.3563,-1.2346,-1.1868,0.0,0.0,0.0,0.0,0.0,0.0,0.0,0.0,-1.3561,-1.3458,-1.3933,-1.38,-1.3629,-1.4909,-1.5451,-1.581,-1.6397,-1.6987,-1.7657,-1.8972,-1.7436,-1.6686,-2.0811,-2.1171,-2.033,-1.9511,-1.9424,-1.8681,-1.6412,-1.6959,-1.7534,-1.6775,-1.7846,-1.8768,-1.8548,-1.7346,-1.6712,-1.6785,-1.5997,-1.5567,-1.5757,-1.5961,-1.6083,-1.6083,-1.5273,-1.4071,-1.1864,-0.9657,-0.7452,-0.5246,-0.3835,-0.3239,-0.3258,-0.3288,-0.3313,-0.3332,-0.3313,-0.332,-0.335,-0.3337,-0.3344,-0.3367,-0.3386,-0.3401,-0.3412,-0.3412,-0.3412,-0.3412,-0.3425,-0.3441,-0.3453,-0.3423,-0.3624,-0.405,0.0,0.0,0.0,0.0,0.0,0.0,0.0,0.0,0.0,0.0,0.0,0.0,0.0,0.0,0.0,0.0,0.0,0.0,0.0,0.0,0.0,0.0,0.0,-1.3331,-1.4873,-1.5259,-1.6093,-1.7346,-1.7777,-1.8008,-1.8008,-1.8008,-1.7559,-1.6675,-1.7051,-1.6602,-1.5586,0.0,0.0,-1.3988,-1.2786,-1.2077,0.0,0.0,0.0,0.0,0.0,0.0,0.0,0.0,-1.3338,-1.3184,-1.4112,-1.3894,-1.3561,-1.4984,-1.5503,-1.5742,-1.6357,-1.6545,-1.6863,-1.8197,-1.764,-1.7248,-1.9239,-2.0329,-2.0709,-1.9511,-1.9096,-1.84,-1.6204,-1.7142,-1.7936,-1.6748,-1.7604,-1.8356,-1.8066,-1.6962,-1.6302,-1.6503,-1.5834,-1.5581,-1.5825,-1.5995,-1.6083,-1.6275,-1.4875,-1.3068,-1.1059,-0.8657,-0.645,-0.424,-0.3635,-0.3245,-0.3276,-0.3306,-0.3336,-0.3366,-0.3355,-0.336,-0.3381,-0.3371,-0.3371,-0.3382,-0.3403,-0.3412,-0.3412,-0.3412,-0.3423,-0.3441,-0.3654,-0.3675,-0.3699,-0.3883,-0.4292,-0.4494,0.0,0.0,0.0,0.0,0.0,0.0,0.0,0.0,0.0,0.0,0.0,0.0,0.0,0.0,0.0,0.0,0.0,0.0,-1.0888,-1.0926,-1.1478,0.0,0.0,-1.3037,-1.4873,-1.4407,-1.4943,-1.6675,-1.7578,-1.8008,-1.8008,-1.8008,-1.7559,-1.6675,-1.6719,-1.6484,0.0,0.0,0.0,-1.3904,-1.3037,-1.2109,-1.115,0.0,0.0,0.0,0.0,0.0,0.0,0.0,-1.3018,-1.2533,-1.3948,-1.3824,-1.3408,-1.4984,-1.546,-1.5699,-1.6393,-1.7175,-1.7579,-1.6646,-1.7371,-1.8011,-1.7049,-1.8176,-1.9924,-2.2162,-2.0372,-1.8179,-1.7083,-1.7261,-1.7208,-1.6862,-1.782,-1.8211,-1.6582,-1.6576,-1.6365,-1.5588,-1.5547,-1.5696,-1.5839,-1.5995,-1.6275,-1.6864,-1.5466,-1.386,-1.2258,-0.9452,-0.705,-0.4847,-0.3836,-0.3245,-0.3276,-0.3306,-0.3337,-0.3367,-0.3397,-0.3412,-0.3411,-0.3381,-0.3384,-0.3412,-0.3412,-0.3412,-0.3412,-0.3412,-0.3448,-0.3502,-0.4155,-0.4396,-0.4427,-0.5047,-0.5223,-0.5182,0.0,0.0,0.0,0.0,0.0,0.0,0.0,0.0,0.0,0.0,0.0,0.0,0.0,0.0,0.0,0.0,0.0,0.0,-1.0544,-1.0544,-1.0863,-1.1614,-1.1729,0.0,0.0,0.0,-1.5586,-1.6675,-1.7305,-1.7715,-1.8008,-1.7715,-1.7266,-1.6719,-1.6406,0.0,0.0,0.0,0.0,0.0,-1.3196,-1.216,-1.1368,0.0,0.0,0.0,0.0,0.0,0.0,0.0,0.0,0.0,-1.3395,-1.352,-1.3567,-1.4851,-1.5449,-1.5727,-1.6225,-1.67,-1.6986,-1.6619,-1.7241,-1.7782,-1.7582,-1.7521,-1.7718,-1.8421,-1.83,-1.7882,-1.7109,-1.8311,-1.8831,-1.6965,-1.7513,-1.7778,-1.6612,-1.6119,-1.5779,-1.5554,-1.5703,-1.5852,-1.6001,-1.6446,-1.6672,-1.6864,-1.4265,-1.2663,-1.2058,-0.8457,-0.6052,-0.545,-0.447,-0.3891,-0.3929,-0.3547,-0.3369,-0.3399,-0.3408,-0.3412,-0.3411,-0.3403,-0.3403,-0.3412,-0.3412,-0.3412,-0.3414,-0.3863,-0.4129,-0.4193,-0.4822,-0.5057,-0.5088,-0.5266,-0.5439,-0.5827,0.0,0.0,0.0,0.0,0.0,0.0,0.0,0.0,-0.9572,-0.9965,-1.0487,-1.0774,0.0,0.0,0.0,-1.0351,-1.039,0.0,-1.039,-1.039,-1.0587,-1.1022,-1.1194,-1.1841,-1.2852,-1.4375,-1.5508,-1.6211,-1.6816,-1.7246,-1.75,-1.7246,-1.6894,-1.6445,-1.6191,-1.6037,0.0,0.0,0.0,-1.3793,-1.304,-1.1939,-1.0812,0.0,0.0,0.0,0.0,0.0,0.0,0.0,0.0,0.0,-1.3131,-1.351,-1.384,-1.4844,-1.4979,-1.4999,-1.6025,-1.6231,-1.6296,-1.6803,-1.7448,-1.7993,-1.8137,-1.7864,-1.7656,-1.7759,-1.798,-1.8226,-1.7933,-1.8894,-1.9009,-1.7215,-1.7226,-1.7188,-1.6153,-1.5633,-1.5466,-1.5622,-1.5764,-1.611,-1.646,-1.6672,-1.6665,-1.6268,-1.3661,-1.1858,-1.1259,-0.7657,-0.5652,-0.5652,-0.4888,-0.4319,-0.4152,-0.3771,-0.3594,-0.3412,-0.3412,-0.3412,-0.3412,-0.3412,-0.3412,-0.3412,-0.3412,-0.3631,-0.386,-0.4326,-0.4594,-0.4871,-0.553,-0.5762,-0.5787,-0.5974,-0.6141,-0.651,0.0,0.0,0.0,0.0,0.0,0.0,0.0,-0.877,-0.918,-0.9592,-1.0039,-1.0273,0.0,0.0,0.0,-1.039,-1.0428,-1.0408,-1.0428,-1.0428,-1.0567,-1.0881,-1.0879,-1.1523,-1.2852,-1.4023,-1.4863,-1.5352,-1.623,-1.6636,-1.6675,-1.668,-1.6445,-1.6115,-1.6076,-1.5781,0.0,0.0,0.0,-1.2636,-1.2709,-1.161,-0.9948,-1.026,0.0,0.0,0.0,0.0,0.0,0.0,0.0,0.0,-1.3068,-1.3588,-1.4088,-1.4723,-1.4351,-1.4035,-1.5756,-1.601,-1.5989,-1.7025,-1.7992,-1.8646,-1.8614,-1.8903,-1.894,-1.894,-1.8882,-1.8964,-1.9337,-1.9103,-1.8259,-1.7348,-1.718,-1.6695,-1.5368,-1.5337,-1.5486,-1.5642,-1.5784,-1.6321,-1.685,-1.7062,-1.6467,-1.5459,-1.3262,-1.1459,-0.9861,-0.7257,-0.5853,-0.5853,-0.5299,-0.4732,-0.4358,-0.4193,-0.4019,-0.3411,-0.3412,-0.3412,-0.3412,-0.3412,-0.3412,-0.3412,-0.3415,-0.3862,-0.4326,-0.4364,-0.4841,-0.5547,-0.6039,-0.6277,-0.65,-0.6951,-0.7098,-0.6992,0.0,0.0,0.0,0.0,0.0,0.0,-0.875,-0.8945,-0.9277,-1.0039,-1.0215,-1.0273,-1.0273,-1.0351,0.0,-1.039,-1.0582,-1.0659,-1.0544,-1.0544,-1.0584,-1.0684,-1.0944,-1.161,-1.2852,-1.3145,-1.3828,-1.4922,-1.5781,-1.6387,-1.6655,-1.6367,-1.6152,-1.6096,-1.5703,-1.5508,0.0,0.0,-1.4234,-1.351,-1.3055,-1.2103,-1.0974,-1.108,-1.0867,0.0,0.0,0.0,0.0,0.0,0.0,0.0,-1.2367,-1.3131,-1.4159,-1.4562,-1.487,-1.5357,-1.6525,-1.7012,-1.7154,-1.7624,-1.8337,-1.9066,-1.9507,-1.9709,-1.9498,-1.9141,-1.9039,-1.9147,-1.9487,-1.9177,-1.8655,-1.7333,-1.7289,-1.6876,-1.5526,-1.5493,-1.5642,-1.5791,-1.6328,-1.6828,-1.6864,-1.7665,-1.7459,-1.5459,-1.3661,-1.1858,-0.9861,-0.7462,-0.6259,-0.6259,-0.595,-0.5593,-0.5395,-0.4638,-0.4255,-0.4048,-0.3624,-0.3412,-0.3412,-0.3412,-0.3412,-0.3414,-0.3437,-0.3897,-0.4365,-0.4843,-0.5547,-0.6039,-0.6724,-0.6922,-0.6895,-0.7161,-0.7071,-0.6935,0.0,0.0,0.0,0.0,0.0,0.0,0.0,0.0,-0.9531,-1.0195,-1.0273,-1.0312,-1.0351,-1.039,0.0,0.0,-1.0697,-1.0659,-1.039,-1.0582,-1.076,-1.0845,-1.1203,-1.1717,-1.2273,-1.2704,-1.3301,-1.418,-1.5039,-1.5664,-1.6094,-1.5859,-1.5742,-1.5742,-1.5214,-1.5001,0.0,-1.435,-1.3703,-1.3159,-1.283,-1.2093,-1.1233,-1.1288,-1.1123,-1.0846,-1.0846,0.0,0.0,0.0,0.0,0.0,0.0,0.0,-1.3824,-1.4102,-1.4179,-1.4578,-1.6192,-1.654,-1.7008,-1.8365,-1.9025,-1.9572,-1.9746,-1.9737,-1.9563,-1.9563,-1.9388,-1.9296,-1.9597,-1.9024,-1.8093,-1.7435,-1.7002,-1.6365,-1.5581,-1.554,-1.5689,-1.5839,-1.6574,-1.707,-1.7268,-1.8061,-1.7253,-1.4458,-1.3461,-1.1463,-0.8263,-0.7062,-0.6474,-0.6504,-0.6386,-0.6029,-0.5847,-0.5292,-0.4902,-0.4261,-0.405,-0.3624,-0.3412,-0.3412,-0.3412,-0.3414,-0.3874,-0.4341,-0.4818,-0.552,-0.6231,-0.6724,-0.7175,-0.7139,-0.7098,-0.7153,-0.7063,-0.6921,0.0,0.0,0.0,0.0,0.0,0.0,0.0,0.0,0.0,-1.0215,-1.0312,-1.0351,-1.039,-1.0428,-1.0544,0.0,0.0,0.0,-1.0079,-1.0467,-1.0784,-1.0981,-1.1439,-1.1657,-1.1606,-1.2363,-1.2969,-1.3398,-1.4258,-1.4883,-1.5312,-1.5371,-1.541,-1.5352,-1.4765,-1.4529,-1.4588,-1.3752,-1.3083,-1.2546,-1.2403,-1.19,-1.1184,0.0,0.0,-1.1027,-1.11,-1.113,-1.1178,-1.1436,0.0,0.0,0.0,0.0,-1.3508,-1.3692,-1.3484,-1.353,-1.5587,-1.6141,-1.6698,-1.9142,-1.9643,-1.9746,-1.9921,-1.9388,-1.9186,-1.9653,-1.9342,-1.9156,-1.9733,-1.8527,-1.7547,-1.7375,-1.6501,-1.5814,-1.5425,-1.556,-1.5897,-1.6069,-1.6595,-1.7268,-1.7863,-1.7833,-1.6623,-1.3057,-1.2642,-1.0645,-0.6662,-0.6461,-0.6491,-0.6551,-0.6608,-0.6457,-0.6098,-0.5943,-0.5543,-0.4687,-0.4474,-0.405,-0.3412,-0.3412,-0.3415,-0.3634,-0.4097,-0.4785,-0.5488,-0.5974,-0.6686,-0.7175,-0.7175,-0.7134,-0.7085,-0.7147,-0.7063,-0.6927,0.0,0.0,0.0,0.0,0.0,0.0,0.0,0.0,0.0,0.0,-1.0351,-1.039,-1.039,-1.0621,-1.0621,-1.0409,-1.0428,-1.0273,-0.9862,0.0,0.0,-1.0586,-1.1059,-1.1424,-1.165,-1.2116,-1.2567,-1.3047,-1.3809,-1.4508,-1.5051,-1.5292,-1.541,-1.5352,-1.4765,-1.4529,-1.4469,-1.3373,-1.2854,-1.27,-1.2104,-1.1722,0.0,0.0,0.0,-1.13,-1.1596,-1.1676,-1.1781,-1.2254,-1.2519,0.0,0.0,0.0,-1.366,-1.3955,-1.4077,-1.4386,-1.5658,-1.6926,-1.8108,-1.9819,-1.972,-1.9223,-1.9746,-1.9039,-1.8244,-1.8758,-1.8277,-1.8285,-1.9554,-1.8262,-1.7089,-1.7359,-1.6494,-1.5842,-1.5567,-1.6008,-1.6321,-1.68,-1.7253,-1.7863,-1.8259,-1.6736,-1.4928,-1.3051,-1.1173,-0.8982,-0.6659,-0.6461,-0.6491,-0.6551,-0.6608,-0.6665,-0.6515,-0.6155,-0.5969,-0.5756,-0.4689,-0.405,-0.3412,-0.3412,-0.364,-0.4313,-0.435,-0.5047,-0.6195,-0.625,-0.6724,-0.7175,-0.7175,-0.7104,-0.7027,-0.7134,-0.7063,-0.6927,0.0,0.0,0.0,0.0,0.0,0.0,0.0,0.0,0.0,0.0,0.0,-1.0196,-1.0235,-1.0157,-1.0021,-0.9903,-0.9981,-0.9981,-0.9804,-1.013,-1.0492,-1.0884,-1.1374,-1.1539,-1.1362,-1.17,-1.1865,-1.1958,-1.2875,-1.3768,-1.4561,-1.4619,-1.4827,-1.5059,-1.3914,-1.3554,-1.3752,-1.272,-1.2413,-1.2674,-1.2243,-1.2694,-1.359,0.0,0.0,0.0,0.0,0.0,-1.2011,-1.2241,-1.235,-1.2413,-1.2476,0.0,0.0,0.0,-1.3633,-1.3937,-1.5459,-1.7039,-1.8469,-1.9278,-1.9305,-1.9022,-1.9247,-1.845,-1.775,-1.8166,-1.7648,-1.7563,-1.832,-1.7558,-1.6695,-1.6584,-1.5917,-1.566,-1.5973,-1.6022,-1.6328,-1.7232,-1.7474,-1.743,-1.6736,-1.6069,-1.4275,-1.1367,-1.0141,-0.8776,-0.6659,-0.6461,-0.6504,-0.6597,-0.6624,-0.6681,-0.6777,-0.6594,-0.6395,-0.5969,-0.4902,-0.4261,-0.3837,-0.3837,-0.4069,-0.4321,-0.4794,-0.5498,-0.6207,-0.6704,-0.6951,-0.7175,-0.7139,-0.7098,-0.7055,-0.7112,-0.7055,-0.6976,0.0,0.0,0.0,0.0,0.0,0.0,0.0,0.0,0.0,0.0,0.0,-0.9939,-1.0073,0.0,0.0,0.0,-0.9758,-0.9758,-0.9635,-0.9956,-1.0374,-1.0864,-1.1421,-1.1445,-1.099,-1.1426,-1.1443,-1.1066,-1.2368,-1.3276,-1.3886,-1.4023,-1.4259,-1.4469,-1.3191,-1.2826,-1.3147,-1.229,-1.2182,-1.2553,-1.3003,-1.4133,-1.5423,0.0,0.0,0.0,0.0,-1.3127,-1.3097,-1.2546,-1.2319,-1.2383,-1.2445,-1.2445,0.0,0.0,0.0,-1.336,-1.5076,-1.6312,-1.7418,-1.836,-1.842,-1.8157,-1.8479,-1.7948,-1.7631,-1.7855,-1.7307,-1.682,-1.676,-1.675,-1.6393,-1.5975,-1.5514,-1.5465,-1.6301,-1.5994,-1.6314,-1.7575,-1.7246,-1.6418,-1.5309,-1.4636,-1.2852,-0.9951,-0.9123,-0.8158,-0.6659,-0.6461,-0.6515,-0.6632,-0.6635,-0.6695,-0.6818,-0.6818,-0.6605,-0.5969,-0.5115,-0.4687,-0.4474,-0.4485,-0.4727,-0.4768,-0.5236,-0.5945,-0.6449,-0.6937,-0.7175,-0.7166,-0.7112,-0.709,-0.709,-0.7076,-0.7041,-0.7014,0.0,0.0,0.0,0.0,0.0,0.0,0.0,0.0,0.0,0.0,0.0,-0.9672,-0.9969,-1.0089,-1.0148,-1.0169,-0.9917,-0.9662,-0.9251,-0.9542,-0.9831,-1.0058,-1.0576,0.0,-1.0642,-1.1398,-1.1509,-1.0989,-1.2828,-1.3495,-1.2967,-1.3678,-1.3855,-1.3571,-1.313,-1.3009,-1.3009,-1.2474,-1.2305,-1.2539,-1.482,-1.5755,-1.6133,-1.826,-1.9022,-1.8636,-1.6594,-1.5963,-1.576,-1.366,-1.3003,-1.306,-1.306,-1.2838,-1.2631,0.0,0.0,0.0,-1.4801,-1.454,-1.4621,-1.7146,-1.6888,-1.6376,-1.7952,-1.7871,-1.7554,-1.7504,-1.7354,-1.6787,-1.5691,-1.5742,-1.6022,-1.5704,-1.5459,-1.5423,-1.6152,-1.6309,-1.6659,-1.7411,-1.5777,-1.4856,-1.5254,-1.1471,-0.9276,-0.964,-0.7728,-0.6533,-0.6455,-0.6461,-0.6515,-0.6632,-0.6635,-0.6695,-0.6818,-0.6818,-0.6605,-0.5969,-0.5969,-0.5543,-0.5117,-0.516,-0.5419,-0.6117,-0.6122,-0.6399,-0.7166,-0.7175,-0.7175,-0.7166,-0.7112,-0.709,-0.7085,-0.7027,-0.7,-0.7,0.0,0.0,0.0,0.0,0.0,0.0,0.0,0.0,0.0,0.0,0.0,0.0,0.0,-0.9213,-0.9056,-0.9063,-0.9251,0.0,0.0,-0.9076,-0.9321,-0.9217,-0.9821,-0.9991,-0.9717,-1.047,-1.0565,-0.9955,-1.1167,-1.1885,-1.2146,-1.2552,-1.2865,-1.3008,-1.2623,-1.2536,-1.2752,-1.2664,-1.2569,-1.2542,-1.4251,-1.5562,-1.6343,-1.5563,-1.6548,-1.8068,-1.5063,-1.4581,-1.5205,-1.4131,-1.3755,-1.3711,-1.3357,-1.3122,-1.2885,-1.2833,-1.3273,-1.3709,-1.3556,-1.3688,-1.3953,-1.4971,-1.5363,-1.5761,-1.6643,-1.7173,-1.7579,-1.7636,-1.6994,-1.6231,-1.5579,-1.555,-1.5521,-1.4855,-1.5128,-1.5638,-1.6124,-1.6209,-1.6537,-1.7381,-1.5493,-1.3941,-1.3342,-1.0895,-0.8697,-0.7524,-0.6733,-0.6357,-0.6401,-0.6442,-0.6515,-0.6632,-0.6635,-0.6695,-0.6818,-0.6818,-0.6605,-0.6608,-0.6182,-0.5969,-0.5756,-0.5774,-0.5827,-0.6122,-0.6561,-0.6848,-0.7175,-0.7175,-0.7153,-0.7112,-0.7055,-0.7055,-0.7076,-0.6978,-0.6989,-0.7055,0.0,0.0,0.0,0.0,0.0,0.0,0.0,0.0,0.0,-0.9492,0.0,0.0,0.0,0.0,-0.8465,-0.8379,-0.8754,-0.8849,-0.8446,-0.8681,-0.8866,-0.8822,-0.9122,-0.9249,-0.9099,-0.953,-0.9684,-0.9487,-1.0286,-1.0927,-1.1424,-1.2084,-1.2431,-1.2513,-1.2332,-1.2367,-1.2583,-1.2679,-1.2626,-1.2668,-1.4376,-1.5628,-1.6341,-1.5906,-1.683,-1.7911,-1.5688,-1.5245,-1.572,-1.5047,-1.4838,-1.4656,-1.3613,-1.2999,-1.2788,-1.2994,-1.3167,-1.316,-1.2852,-1.2552,-1.2495,-1.3274,-1.3892,-1.4587,-1.5572,-1.6599,-1.7207,-1.7382,-1.7002,-1.6575,-1.5902,-1.5503,-1.5027,-1.414,-1.5018,-1.5725,-1.5974,-1.6095,-1.6436,-1.6838,-1.4801,-1.2689,-1.1698,-0.9724,-0.7939,-0.6539,-0.636,-0.6379,-0.6401,-0.6439,-0.6515,-0.6632,-0.6676,-0.6736,-0.6818,-0.6818,-0.6818,-0.6818,-0.6395,-0.6182,-0.6182,-0.6202,-0.6258,-0.6342,-0.68,-0.7085,-0.7175,-0.7153,-0.7134,-0.7112,-0.7027,-0.7049,-0.7104,-0.6984,-0.7006,-0.709,0.0,0.0,0.0,0.0,0.0,0.0,0.0,0.0,-0.861,-0.8944,0.0,0.0,0.0,0.0,0.0,-0.8348,-0.8631,-0.8786,-0.8707,-0.837,-0.84,-0.8854,0.0,0.0,-0.8838,-0.8773,-0.9012,-0.9671,-1.0511,-1.0847,-1.0779,-1.2247,-1.258,-1.1953,-1.2393,-1.2567,-1.2599,-1.2552,-1.2512,-1.2796,-1.5506,-1.6151,-1.5992,-1.997,-2.0203,-1.8582,-1.8626,-1.8288,-1.7433,-1.6384,-1.6138,-1.5864,-1.3751,-1.2527,-1.226,-1.3548,-1.282,-1.1727,0.0,0.0,0.0,-1.2046,-1.2298,-1.2552,-1.4524,-1.5868,-1.6733,-1.7008,-1.7504,-1.7639,-1.6617,-1.5466,-1.4597,-1.3905,-1.4929,-1.5682,-1.5689,-1.596,-1.6152,-1.6152,-1.3114,-1.1102,-1.0914,-0.835,-0.6395,-0.6455,-0.6406,-0.6398,-0.6455,-0.6463,-0.6518,-0.6632,-0.6752,-0.6815,-0.6818,-0.6818,-0.6818,-0.6818,-0.6818,-0.6818,-0.682,-0.688,-0.694,-0.7,-0.7063,-0.7117,-0.7166,-0.7117,-0.7125,-0.7161,-0.7049,-0.7071,-0.7161,-0.7041,-0.7041,-0.7085,0.0,0.0,0.0,0.0,0.0,-0.8165,-0.8429,-0.8551,-0.873,0.0,0.0,0.0,0.0,0.0,-0.8623,-0.8595,-0.8868,-0.8882,-0.849,-0.8343,-0.8155,-0.7884,-0.7745,-0.7783,-0.8012,-0.8386,-0.8761,-0.9173,-0.981,-1.0049,-0.9986,-1.1019,-1.1402,-1.1145,-1.1738,-1.2195,-1.2567,-1.2922,-1.3218,-1.355,-1.5159,-1.5893,-1.6121,-1.6797,-1.7457,-1.8026,-1.7097,-1.656,-1.6501,-1.6848,-1.5632,-1.3761,-1.2518,-1.189,-1.1652,-1.1967,-1.144,-1.0837,-1.0832,0.0,0.0,0.0,0.0,0.0,-1.3056,-1.5471,-1.7353,-1.7288,-1.7504,-1.7629,-1.7366,-1.5926,-1.47,-1.4149,-1.4792,-1.5276,-1.495,-1.5704,-1.6061,-1.5605,-1.368,-1.2115,-1.1097,-0.9138,-0.7566,-0.6595,-0.642,-0.6425,-0.6398,-0.648,-0.6561,-0.6635,-0.6711,-0.6774,-0.6818,-0.6818,-0.6818,-0.6818,-0.6818,-0.6818,-0.6818,-0.6834,-0.6899,-0.7,-0.7022,-0.7085,-0.7175,-0.7161,-0.7139,-0.7112,-0.7076,-0.7085,-0.7104,-0.7027,-0.7041,-0.709,0.0,0.0,-0.7237,-0.7674,-0.7888,-0.8146,-0.8721,-0.8844,-0.8997,0.0,0.0,0.0,0.0,0.0,0.0,-0.8741,-0.8908,-0.8853,-0.8564,-0.8399,-0.8215,-0.799,-0.7639,-0.7559,-0.7874,-0.796,-0.8309,-0.8864,-0.9156,-0.9489,-0.9833,-1.0513,-1.0825,-1.0916,-1.1509,-1.2,-1.2395,-1.2923,-1.3079,-1.3195,-1.4504,-1.4939,-1.4912,-1.5531,-1.616,-1.6717,-1.675,-1.6678,-1.6606,-1.7398,-1.5773,-1.3413,-1.3427,-1.2422,-1.1295,-1.1673,-1.1152,0.0,0.0,0.0,-0.9211,-0.9331,0.0,0.0,-1.2499,-1.4656,-1.6464,-1.6799,-1.734,-1.7773,-1.7379,-1.6458,-1.567,-1.5704,-1.5565,-1.5269,-1.4516,-1.5272,-1.5845,-1.5265,-1.3895,-1.2335,-1.0769,-0.9256,-0.7721,-0.6167,-0.6001,-0.6217,-0.6409,-0.6499,-0.6578,-0.6635,-0.6695,-0.6755,-0.6818,-0.6818,-0.6818,-0.6818,-0.6818,-0.6818,-0.6818,-0.6818,-0.6869,-0.6962,-0.6989,-0.7055,-0.7139,-0.7166,-0.7153,-0.7125,-0.7098,-0.7104,-0.7117,-0.7085,-0.7098,-0.7125,0.0,0.0,-0.7161,-0.7736,-0.7847,-0.8259,-0.924,-0.9214,-0.9343,0.0,-0.9846,-0.9593,0.0,0.0,0.0,0.0,-0.8911,-0.8896,-0.8816,-0.8636,-0.8536,-0.8604,-0.7953,-0.7774,-0.8105,-0.7643,-0.7842,-0.8689,-0.867,-0.9134,-1.0002,-1.0321,-1.0581,-1.0838,-1.1276,-1.1639,-1.1983,-1.2473,-1.2444,-1.2293,-1.371,-1.381,-1.3434,-1.5893,-1.6158,-1.5583,-1.7458,-1.7699,-1.7189,-1.7673,-1.6286,-1.4379,-1.5252,-1.3621,-1.1436,-1.205,-1.1422,0.0,0.0,0.0,0.0,-0.9438,-0.9795,0.0,-1.2543,-1.3616,-1.4475,-1.5669,-1.6877,-1.756,-1.7132,-1.6828,-1.6734,-1.6919,-1.6207,-1.5242,-1.4251,-1.4875,-1.5308,-1.4903,-1.3734,-1.2356,-1.0572,-0.8931,-0.7456,-0.5955,-0.5767,-0.5797,-0.6458,-0.6512,-0.6567,-0.6624,-0.6687,-0.6747,-0.6594,-0.6815,-0.6818,-0.6818,-0.6818,-0.6818,-0.6818,-0.6818,-0.685,-0.691,-0.6965,-0.7027,-0.7098,-0.7147,-0.7166,-0.7166,-0.7117,-0.7134,-0.7175,-0.7175,-0.7175,-0.7175,-0.6361,-0.672,-0.7167,-0.7789,-0.8279,-0.8655,-0.8883,-0.8916,-0.9138,-0.9717,-0.9744,-0.9753,-0.9927,0.0,0.0,0.0,0.0,-0.9543,-0.9489,-0.9205,-0.8938,-0.8748,-0.84,-0.8228,-0.825,-0.8208,-0.8358,-0.8714,-0.8954,-0.9201,-0.9356,-0.9398,-0.9453,-0.9614,-0.9568,-0.9867,-1.0471,-1.0973,-1.1758,-1.2628,-1.3478,-1.4665,-1.5836,-1.6331,-1.7294,-1.8484,-1.8932,-1.8379,-1.7237,-1.6081,-1.6062,-1.614,-1.4033,-1.3498,-1.3202,-1.1069,-1.0731,-1.0824,-0.9601,-0.9275,-0.9198,-0.9349,-0.9785,0.0,-1.0615,-1.2149,-1.3448,-1.3286,-1.4615,-1.5682,-1.5082,-1.5,-1.4841,-1.3929,-1.4901,-1.5658,-1.5418,-1.5355,-1.5111,-1.4597,-1.4368,-1.3814,-1.2356,-1.0497,-0.886,-0.7459,-0.6338,-0.5797,-0.6458,-0.6472,-0.6507,-0.6567,-0.6624,-0.6476,-0.6115,-0.6581,-0.6605,-0.6182,-0.6605,-0.6818,-0.6818,-0.6818,-0.685,-0.691,-0.6921,-0.6989,-0.709,-0.7104,-0.7134,-0.7175,-0.7161,-0.7166,-0.7175,-0.7175,-0.7175,-0.7175,-0.6075,-0.6487,-0.6979,-0.7522,-0.7918,-0.8238,-0.8657,-0.894,-0.9319,-0.9854,-1.0273,-1.0608,-1.0755,-1.0635,0.0,0.0,0.0,0.0,-1.0127,-0.9846,-0.9552,-0.9259,-0.8965,-0.8723,-0.8564,-0.8561,-0.8561,-0.8564,-0.8865,-0.8964,-0.8877,-0.8957,-0.9436,-1.0205,-0.9457,-0.9956,-1.1258,-1.0886,-1.1155,-1.2027,-1.3702,-1.5278,-1.6698,-1.736,-1.8369,-1.9448,-1.9108,-1.8606,-1.7882,-1.7344,-1.6814,-1.6002,-1.5159,-1.4385,-1.358,-1.187,-1.1547,-1.1413,-0.9857,-0.9479,-0.9482,-0.9446,-0.9675,0.0,0.0,-1.1567,-1.2427,-1.2604,-1.3685,-1.4341,-1.4094,-1.4397,-1.4604,-1.4014,-1.5072,-1.5641,-1.5025,-1.5379,-1.5406,-1.5227,-1.4826,-1.4061,-1.2331,-1.0525,-0.8372,-0.6024,-0.5722,-0.5784,-0.6011,-0.6243,-0.6491,-0.6551,-0.6402,-0.6252,-0.6308,-0.6364,-0.6395,-0.6395,-0.6605,-0.6818,-0.6818,-0.6818,-0.6834,-0.6867,-0.6897,-0.6943,-0.7006,-0.7063,-0.7104,-0.7134,-0.7161,-0.7161,-0.7139,-0.7166,-0.7153,-0.7134,-0.5949,-0.6374,-0.6834,-0.7396,-0.7554,-0.7835,-0.855,-0.8935,-0.9336,-1.0062,-1.1019,-1.1676,-1.1728,-1.1877,-1.1917,-1.1917,0.0,0.0,-1.1015,-1.0756,-1.0549,-1.0461,-0.9715,-0.9284,-0.9381,-0.8835,-0.8485,-0.8255,-0.8485,-0.8565,-0.8563,-0.8563,-0.9299,-1.0571,-0.9798,-1.0304,-1.1732,-1.1186,-1.1191,-1.1802,-1.4207,-1.5519,-1.629,-1.7548,-1.8569,-1.9335,-1.9103,-1.8985,-1.8936,-1.9204,-1.7713,-1.5922,-1.6475,-1.5549,-1.4023,-1.2849,-1.2685,-1.2541,-1.0584,-0.9967,-0.9848,-0.9785,-0.9721,-1.0031,0.0,0.0,0.0,-1.2144,-1.2552,-1.2995,-1.3068,-1.3644,-1.3976,-1.4123,-1.4817,-1.5026,-1.4159,-1.4952,-1.5496,-1.5496,-1.5098,-1.4256,-1.2281,-1.0422,-0.7849,-0.4628,-0.5259,-0.5703,-0.5568,-0.6227,-0.6482,-0.6534,-0.618,-0.6029,-0.6499,-0.6349,-0.6382,-0.6605,-0.6818,-0.6818,-0.6818,-0.6818,-0.6818,-0.682,-0.6869,-0.6897,-0.6916,-0.7014,-0.7068,-0.7098,-0.7153,-0.7147,-0.7112,-0.7161,-0.7139,-0.709,-0.6605,-0.6839,-0.7041,-0.7622,-0.8153,-0.8561,-0.8792,-0.8559,-0.8722,-0.9768,-1.1478,-1.2695,-1.3009,-1.3419,-1.3691,-1.3691,-1.3865,-1.3546,-1.2549,-1.2395,-1.2671,-1.3134,-1.0779,-1.0055,-1.1366,-0.8965,-0.7746,-0.7666,-0.7746,-0.7958,-0.8332,-0.7727,-0.7782,-0.8419,-0.9471,-0.9414,-0.874,-1.082,-1.2555,-1.3977,-1.5157,-1.4866,-1.4088,-1.5615,-1.7067,-1.839,-1.9512,-2.0112,-2.0083,-1.9151,-1.8497,-1.7854,-1.5466,-1.5947,-1.6755,-1.2777,-1.3164,-1.427,-1.1226,-1.0545,-1.0688,-1.0278,-1.0315,-1.0408,-1.028,0.0,-1.0227,-1.0109,0.0,-1.0689,-1.0724,0.0,0.0,-1.1091,-1.2436,-1.3527,-1.3245,-1.388,-1.4286,-1.3707,-1.4969,-1.5272,-1.3915,-1.1827,-0.9523,-0.6725,-0.6556,-0.6213,-0.5556,-0.6227,-0.6466,-0.6472,-0.6529,-0.6178,-0.5819,-0.629,-0.6344,-0.6182,-0.6605,-0.6818,-0.6818,-0.6818,-0.6818,-0.6818,-0.6826,-0.6858,-0.691,-0.6924,-0.6992,-0.7098,-0.7153,-0.7166,-0.7166,-0.7175,-0.7139,-0.709,-0.6156,-0.6377,-0.6672,-0.731,-0.7757,-0.8045,-0.8205,-0.8573,-0.9406,-1.103,-1.1466,-1.1866,-1.2726,-1.2422,-1.2597,-1.3275,-1.3631,-1.3434,-1.2422,-1.2631,0.0,-1.1135,-0.9995,-0.948,-0.9706,-0.8601,-0.7854,-0.7607,-0.7607,-0.7602,-0.7509,-0.7394,-0.7844,-0.8809,-0.9605,-1.0578,-1.1594,-1.2643,-1.3232,-1.3733,-1.5032,-1.4714,-1.387,-1.7301,-1.9032,-1.977,-2.0318,-2.0636,-2.0894,-2.0062,-1.9013,-1.77,-1.7752,-1.6991,-1.5893,-1.4447,-1.4326,-1.4152,-1.1754,-1.1726,-1.2115,-1.1072,-1.1381,-1.1719,-1.0581,-1.0316,-1.0158,-0.981,0.0,0.0,0.0,0.0,0.0,0.0,-1.1837,-1.2776,-1.2019,-1.3608,-1.4518,-1.4006,-1.4244,-1.385,-1.2598,-1.2638,-1.1046,-0.669,-0.7539,-0.7226,-0.4735,-0.5606,-0.6055,-0.6055,-0.6111,-0.6152,-0.6178,-0.6231,-0.6287,-0.6344,-0.6555,-0.6782,-0.6818,-0.6818,-0.6818,-0.6818,-0.6818,-0.6831,-0.6858,-0.6894,-0.6937,-0.6992,-0.709,-0.7125,-0.7134,-0.7161,-0.7117,-0.7036,-0.591,0.0,-0.6319,-0.6929,-0.7242,-0.7521,-0.7706,-0.8675,-0.9856,-1.1339,-1.1229,-1.1566,-1.2618,-1.2443,-1.2581,-1.3367,-1.4053,-1.4045,-1.3042,-1.2967,-1.2579,-1.1839,-1.02,-0.9501,-0.9896,-0.8706,-0.7807,-0.7345,-0.7338,-0.7202,-0.6913,-0.7095,-0.7771,-0.8861,-0.9766,-1.1313,-1.3324,-1.3897,-1.3917,-1.3776,-1.5511,-1.5444,-1.4483,-1.7785,-1.9446,-2.0015,-1.941,-1.9345,-1.944,-1.9057,-1.7604,-1.6361,-1.7383,-1.6554,-1.5127,-1.4556,-1.4578,-1.4077,-1.1948,-1.2096,-1.2551,-1.1616,-1.202,-1.2398,-1.1042,-1.0663,-1.0467,-1.0088,-0.9975,0.0,0.0,0.0,-1.036,0.0,0.0,-1.1837,-1.0833,-1.2597,-1.3726,-1.3541,-1.3231,-1.2721,-1.1987,-1.3591,-1.2403,-0.7233,-0.8703,-0.8102,-0.4122,-0.4983,-0.5637,-0.5652,-0.5878,-0.6101,-0.6526,-0.616,-0.6213,-0.6703,-0.6719,-0.6758,-0.6818,-0.6818,-0.6818,-0.6818,-0.6818,-0.6818,-0.682,-0.6867,-0.6894,-0.6918,-0.7006,-0.7049,-0.7071,-0.7134,-0.7085,-0.7,-0.6061,-0.6262,-0.6335,-0.6552,-0.7034,-0.7416,-0.7685,-0.8708,-0.9538,-0.9643,-1.1132,-1.2417,-1.3287,-1.4638,-1.5289,-1.4903,-1.6098,-1.6429,-1.5236,-1.3988,-1.4728,-1.8014,-1.2449,-1.0741,-1.3922,-0.959,-0.7146,-0.6736,-0.6747,-0.6728,-0.6736,-0.6857,-0.7035,-0.739,-0.9562,-1.0851,-1.1723,-1.3701,-1.4692,-1.4967,-1.7087,-1.717,-1.6077,-1.5782,-1.6607,-1.7763,-1.5889,-1.533,-1.5395,-1.4242,-1.3782,-1.3317,-1.1899,-1.354,-1.53,-1.1837,-1.2964,-1.4736,-1.1927,-1.1167,-1.124,-1.1681,-1.184,-1.1763,-1.1411,-1.1206,-1.1021,-1.0852,-1.034,-1.0112,-1.0426,0.0,0.0,0.0,0.0,0.0,0.0,-1.0301,-1.0747,-1.1335,-1.209,-1.2853,-1.3544,-1.4648,-1.3415,-0.899,-1.0107,-0.8836,-0.4113,-0.4951,-0.5599,-0.5649,-0.6204,-0.6403,-0.6463,-0.6466,-0.6526,-0.664,-0.6698,-0.6758,-0.6818,-0.6818,-0.6818,-0.6818,-0.6818,-0.6818,-0.6818,-0.682,-0.6856,-0.691,-0.6913,-0.6951,-0.7006,-0.7068,-0.7055,-0.6992,-0.5791,-0.5892,-0.6157,-0.6864,-0.7104,-0.7406,-0.7983,-0.8495,-0.934,-1.0733,-1.0808,-1.1265,-1.2891,-1.2963,-1.3149,-1.3882,-1.4826,-1.5018,-1.408,-1.362,-1.37,-1.4697,-1.0887,-0.9777,-1.2,-0.9018,-0.733,-0.7049,-0.6933,-0.6912,-0.6912,-0.697,-0.7128,-0.7501,-0.9449,-1.1513,-1.3688,-1.5312,-1.5311,-1.4106,-1.2677,-1.3405,-1.5213,-1.3657,-1.355,-1.433,-1.4431,-1.4641,-1.4693,-1.4928,-1.4492,-1.3688,-1.3732,-1.3649,-1.342,-1.2833,-1.3012,-1.3224,-1.1321,-1.1438,-1.1914,-1.1279,-1.1681,-1.215,-1.1666,-1.1548,-1.141,-1.1051,-1.0852,-1.0681,-1.0651,0.0,0.0,0.0,0.0,0.0,0.0,-1.0263,-1.0285,-1.0685,-1.1545,-1.2427,-1.2958,-1.3789,-1.2809,-0.8809,-0.9082,-0.7602,-0.3501,-0.4145,-0.4585,-0.46,-0.5383,-0.5762,-0.5745,-0.6143,-0.6401,-0.6521,-0.6583,-0.6662,-0.6758,-0.6799,-0.6818,-0.6818,-0.6818,-0.6818,-0.6818,-0.6818,-0.6828,-0.6853,-0.6894,-0.6729,-0.6561,-0.68,-0.6992,-0.6932,-0.5825,-0.588,-0.6115,-0.6708,-0.6985,-0.7358,-0.8006,-0.8236,-0.8925,-1.0607,-1.0372,-1.0688,-1.2449,-1.2543,-1.2619,-1.3356,-1.4237,-1.4454,-1.3511,-1.3375,-1.3483,-1.3763,-1.1305,-1.0707,-1.2325,-0.9888,-0.8505,-0.817,-0.7567,-0.7161,-0.7023,-0.7017,-0.7204,-0.7606,-0.9069,-1.0923,-1.3071,-1.4314,-1.3899,-1.1839,-0.8813,-0.9293,-1.1937,-0.9532,-1.0315,-1.2262,-1.1605,-1.1456,-1.1639,-1.2463,-1.2217,-1.1708,-1.2444,-1.2297,-1.1794,-1.1769,-1.1742,-1.1544,-1.0133,-1.0427,-1.0872,-1.0417,-1.0789,-1.1354,-1.1465,-1.1432,-1.1273,-1.1183,-1.1202,-1.0975,-1.0394,-1.0741,0.0,0.0,0.0,0.0,0.0,-1.0289,-1.0236,-1.0404,-1.1084,-1.1655,-1.1629,-1.3148,-1.2281,-0.7733,-0.8596,-0.7496,-0.3289,-0.372,-0.4145,-0.4159,-0.5133,-0.5698,-0.5661,-0.6051,-0.6308,-0.6431,-0.6491,-0.6591,-0.6728,-0.6769,-0.6799,-0.6818,-0.6818,-0.6818,-0.6818,-0.6818,-0.6818,-0.682,-0.6623,-0.6451,-0.6071,-0.6522,-0.6494,-0.6226,-0.6259,-0.6194,-0.6093,-0.6191,-0.6662,-0.7281,-0.7923,-0.7949,-0.8309,-0.9469,-1.013,-1.0919,-1.2298,-1.3397,-1.3785,-1.3479,-1.4346,-1.46,-1.3677,-1.3376,-1.4032,-1.5499,-1.3626,-1.3428,-1.4952,-1.2243,-1.0425,-0.9925,-0.8463,-0.7539,-0.7009,-0.7179,-0.7358,-0.7614,-0.8356,-0.9272,-1.0162,-1.1067,-1.04,-0.8493,-0.5521,-0.5421,-0.6933,-0.424,-0.6816,-1.1502,-0.7725,-0.6373,-0.6665,-0.7068,-0.7211,-0.7352,-0.8235,-0.944,-1.0312,-0.8778,-0.915,-1.0082,-0.8653,-0.8276,-0.8349,-0.9076,-0.916,-0.9478,-1.0738,-1.0667,-1.0565,-1.1173,-1.1256,-1.0839,-0.9658,-1.028,-1.065,0.0,0.0,0.0,0.0,-1.0386,-1.0491,-1.0378,-1.0697,-1.0626,-0.9797,-1.2588,-1.2052,-0.6196,-0.8641,-0.8117,-0.3278,-0.3663,-0.4258,-0.4706,-0.5054,-0.5606,-0.6185,-0.6185,-0.6245,-0.6368,-0.6428,-0.6551,-0.6722,-0.6725,-0.676,-0.6818,-0.6818,-0.6818,-0.6818,-0.6815,-0.6812,-0.6594,-0.6118,-0.5919,-0.5971,-0.6021,-0.5581,-0.5115,-0.6318,-0.6381,-0.651,-0.7013,-0.7375,-0.7629,-0.7667,-0.8473,-0.9446,-1.0472,-1.131,-1.2148,-1.3221,-1.3589,-1.3791,-1.3659,-1.4152,-1.4291,-1.4131,-1.3528,-1.4059,-1.6097,-1.3476,-1.3009,-1.4983,-1.1594,-0.9716,-0.9723,-0.8504,-0.7789,-0.7509,-0.8037,-0.8316,-0.8338,-0.8887,-0.9665,-1.0561,-1.0772,-0.9563,-0.7344,-0.4538,-0.4685,-0.6198,-0.3966,-0.5289,-0.8252,-0.6499,-0.6226,-0.66,-0.766,-0.8043,-0.7977,-0.8294,-0.8735,-0.9132,-0.8622,-0.896,-0.9269,-0.8061,-0.7631,-0.7691,-0.7489,-0.7408,-0.7694,-0.8393,-0.8509,-0.842,-0.8698,-0.8506,-0.8633,-0.9496,-0.9705,-1.0082,-1.1164,0.0,0.0,0.0,0.0,-1.0532,-1.0491,-0.9776,-0.9809,-1.1027,-1.0052,-0.8698,-0.7341,-0.7088,-0.5856,-0.3243,-0.4397,-0.4949,-0.407,-0.4616,-0.4976,-0.555,-0.5932,-0.6183,-0.6303,-0.6365,-0.6488,-0.6662,-0.6706,-0.676,-0.6818,-0.6818,-0.6818,-0.6815,-0.6769,-0.6542,-0.6115,-0.5852,-0.5446,-0.465,-0.5115,-0.5339,-0.5115,-0.6471,-0.6675,-0.6993,-0.74,-0.8133,-0.866,-0.8459,-0.8804,-0.9531,-1.0941,-1.1586,-1.2291,-1.3315,-1.3797,-1.4095,-1.4224,-1.4312,-1.4265,-1.4021,-1.3973,-1.4354,-1.5162,-1.3967,-1.3929,-1.5379,-1.2866,-1.1173,-1.076,-0.9442,-0.8375,-0.7628,-0.7963,-0.8227,-0.8319,-0.9147,-0.9453,-0.9307,-0.8544,-0.7489,-0.6053,-0.3972,-0.4004,0.0,-0.3958,-0.4774,-0.6482,-0.6048,-0.5897,-0.6024,-0.6893,-0.7101,-0.7271,-0.777,-0.7689,-0.7624,-0.7922,-0.7888,-0.7851,-0.7118,-0.689,-0.681,-0.6662,-0.6555,-0.6638,-0.7539,-0.7605,-0.7409,-0.7656,-0.772,-0.7582,-0.7955,-0.8999,-1.0215,-1.1647,-1.168,-1.1297,0.0,0.0,0.0,-1.0984,-1.0436,-1.0524,-1.1754,-0.9175,-0.7473,-0.7677,-0.7072,-0.5998,-0.4032,-0.5202,-0.5467,-0.4088,-0.4367,-0.4978,-0.572,-0.5769,-0.6032,-0.6319,-0.6354,-0.6477,-0.6676,-0.6711,-0.676,-0.6818,-0.679,-0.6777,-0.6774,-0.6505,-0.6063,-0.5854,-0.5221,-0.4597,-0.3771,-0.4244,-0.4476,-0.4902,-0.6844,-0.7163,-0.7482,-0.7658,-0.8886,-0.9856,-0.9869,-0.9415,-0.9693,-1.143,-1.1742,-1.2203,-1.3261,-1.3966,-1.4462,-1.4719,-1.476,-1.4502,-1.3871,-1.4584,-1.4685,-1.3926,-1.4833,-1.542,-1.5575,-1.4536,-1.331,-1.2051,-1.0688,-0.9145,-0.7556,-0.7707,-0.7781,-0.7953,-0.9266,-0.8922,-0.7344,-0.5743,-0.5,-0.4827,-0.3755,-0.3513,-0.3948,-0.422,-0.4882,-0.5759,-0.5895,-0.5678,-0.52,-0.5862,-0.5869,-0.6063,-0.7035,-0.6805,-0.6591,-0.6971,-0.6749,-0.6502,-0.6327,-0.6286,-0.6267,-0.6158,-0.5905,-0.6173,-0.7314,-0.6945,-0.6686,-0.7241,-0.7355,-0.708,-0.6094,-0.8092,-1.0424,-1.1372,-1.1599,-1.1428,-1.1078,-1.1289,0.0,0.0,0.0,0.0,-1.2046,-0.938,-0.7824,-0.7996,-0.8321,-0.7481,-0.5361,-0.6243,-0.5986,-0.4448,-0.4498,-0.5183,-0.612,-0.5631,-0.5713,-0.6395,-0.6379,-0.6496,-0.6728,-0.6719,-0.6749,-0.6801,-0.6741,-0.6714,-0.6711,-0.6029,-0.5797,-0.559,-0.4603,-0.3763,-0.3328,-0.3389,-0.3837,-0.4474,-0.7597,-0.7678,-0.7821,-0.8106,-0.9184,-1.0297,-1.1138,-1.1782,-1.2386,-1.2969,-1.3587,-1.4095,-1.4428,-1.4584,-1.4685,-1.4733,-1.4855,-1.4923,-1.4909,-1.5174,-1.5316,-1.5289,-1.5167,-1.5362,-1.5519,-1.3919,-1.2776,-1.1681,-1.0652,-0.9384,-0.8037,-0.8559,-0.8769,-0.8752,-0.9316,-0.8476,-0.6639,-0.563,-0.4493,-0.3558,-0.4254,-0.4354,-0.4023,-0.4677,-0.5134,-0.58,-0.5828,-0.6061,-0.651,-0.6565,-0.6542,-0.6489,-0.6684,-0.6548,-0.6393,-0.6586,-0.636,-0.6324,-0.6289,-0.6316,-0.6349,-0.5732,-0.5722,-0.569,-0.5404,-0.5144,-0.508,-0.5004,-0.512,-0.5373,-0.6537,-0.8269,-0.9391,-0.8922,-0.9591,-0.9877,-0.8845,-0.896,0.0,0.0,0.0,-0.9227,-1.1801,-1.039,0.0,0.0,0.0,-0.8853,-0.5596,-0.7429,-0.7363,-0.4629,-0.4843,-0.549,-0.6245,-0.6169,-0.6066,-0.6518,-0.642,-0.6496,-0.6725,-0.6676,-0.6684,-0.6739,-0.6679,-0.6651,-0.6649,-0.6386,-0.5721,-0.488,-0.3927,-0.3325,-0.3328,-0.4023,-0.4474,-0.4902,-0.8018,-0.8106,-0.819,-0.8142,-0.9142,-1.0327,-1.1504,-1.2415,-1.3184,-1.3412,-1.3831,-1.4143,-1.4367,-1.474,-1.5004,-1.5079,-1.5153,-1.5262,-1.5411,-1.5337,-1.5398,-1.5628,-1.5276,-1.5106,-1.5181,-1.4333,-1.3139,-1.1907,-1.108,-0.9961,-0.845,-0.8568,-0.8576,-0.8585,-0.862,-0.8261,-0.7793,-0.6244,-0.5202,-0.4532,-0.4608,-0.4751,-0.4814,-0.5264,-0.5738,-0.6224,-0.6224,-0.6468,-0.6728,-0.6725,-0.6698,-0.6665,-0.6665,-0.6586,-0.6496,-0.6496,-0.648,-0.6458,-0.6428,-0.642,-0.6406,-0.6167,-0.593,-0.5902,-0.5717,-0.5308,-0.5074,-0.5009,-0.4804,-0.5061,-0.6541,-0.7263,-0.7902,-0.8697,-0.8918,-0.9081,-0.8715,-0.8923,-0.9066,0.0,0.0,0.0,0.0,0.0,0.0,0.0,0.0,-0.8911,-0.5796,-0.7697,-0.7533,-0.482,-0.5018,-0.553,-0.6185,-0.5805,-0.5904,-0.6504,-0.6447,-0.6526,-0.6725,-0.6698,-0.6681,-0.6676,-0.6619,-0.6386,-0.6175,-0.5508,-0.4866,-0.4249,-0.3504,-0.3321,-0.3328,-0.4023,-0.4687,-0.5115,-0.8201,-0.8368,-0.8244,-0.7872,-0.8754,-0.9744,-1.0656,-1.2041,-1.3269,-1.4008,-1.4055,-1.4129,-1.4333,-1.4882,-1.5269,-1.5357,-1.5036,-1.493,-1.5628,-1.5083,-1.4885,-1.5087,-1.4931,-1.4532,-1.4126,-1.398,-1.3032,-1.1392,-1.1214,-1.0181,-0.8347,-0.8357,-0.8347,-0.8196,-0.7961,-0.8081,-0.8308,-0.6682,-0.5903,-0.5657,-0.516,-0.5347,-0.5597,-0.5861,-0.6144,-0.6635,-0.6635,-0.666,-0.6681,-0.6635,-0.6635,-0.6654,-0.6654,-0.6646,-0.6635,-0.6621,-0.6619,-0.6605,-0.6548,-0.6507,-0.6466,-0.6409,-0.6346,-0.6316,-0.6379,-0.5981,-0.5755,-0.57,-0.5289,-0.5342,-0.6295,-0.6208,-0.6503,-0.8007,-0.8116,-0.8094,-0.8229,-0.85,-0.8577,0.0,0.0,0.0,-1.032,-1.0692,0.0,0.0,0.0,-0.9038,-0.6515,-0.7587,-0.7326,-0.4812,-0.5146,-0.5503,-0.5871,-0.5614,-0.5945,-0.6499,-0.6474,-0.6553,-0.6725,-0.6714,-0.6676,-0.6616,-0.6559,-0.6328,-0.5711,-0.4859,-0.424,-0.4047,-0.371,-0.3528,-0.3536,-0.4234,-0.4902,-0.5328,-0.8189,-0.8166,-0.7887,-0.6993,-0.7795,-0.8436,-0.8066,-1.0545,-1.3372,-1.5096,-1.5452,-1.5411,-1.5296,-1.535,-1.5337,-1.5215,-1.371,-1.3474,-1.5442,-1.4072,-1.3353,-1.3863,-1.3709,-1.2797,-1.1352,-1.1052,-1.0354,-0.9269,-0.9813,-0.9098,-0.7145,-0.8327,-0.8581,-0.8073,-0.8049,-0.7425,-0.6346,-0.6553,-0.5853,-0.4793,-0.5904,-0.5999,-0.5654,-0.637,-0.6627,-0.6635,-0.6635,-0.6608,-0.6567,-0.6561,-0.663,-0.6719,-0.6719,-0.6681,-0.6627,-0.6575,-0.6559,-0.6545,-0.6485,-0.6507,-0.6545,-0.6556,-0.6551,-0.6548,-0.6556,-0.6502,-0.6217,-0.6303,-0.6234,-0.5892,-0.5528,-0.5878,-0.5781,-0.4924,-0.601,-0.6582,-0.5237,-0.5424,-0.5982,-0.6773,0.0,0.0,-0.9002,-1.1466,-1.1811,0.0,-1.0115,-1.0257,-0.8523,-0.7465,-0.6261,-0.4566,-0.4972,-0.5238,-0.5379,-0.5919,-0.6338,-0.6619,-0.6512,-0.6553,-0.6725,-0.667,-0.6613,-0.6556,-0.6496,-0.6469,-0.6469,-0.5856,-0.5248,-0.4653,-0.4123,-0.4152,-0.4161,-0.4871,-0.5328,-0.5969,-0.7282,-0.711,-0.6788,-0.6101,-0.635,-0.6777,-0.734,-0.8566,-0.993,-1.1733,-1.4244,-1.5676,-1.5438,-1.5567,-1.5028,-1.3722,-1.2909,-1.2417,-1.1829,-1.1197,-1.0792,-1.1006,-1.0849,-1.0687,-1.0147,-1.0105,-0.9715,-0.9127,-0.9613,-0.931,-0.797,-0.8588,-0.8329,-0.7599,-0.6742,-0.6221,-0.5939,-0.552,-0.5416,-0.5268,-0.6061,-0.6164,-0.6109,-0.6526,-0.6575,-0.6632,-0.6597,-0.6591,-0.6597,-0.6564,-0.6559,-0.6567,-0.6567,-0.6551,-0.6526,-0.6504,-0.6499,-0.6502,-0.6512,-0.6507,-0.651,-0.6567,-0.6545,-0.651,-0.651,-0.6521,-0.6504,-0.6409,-0.6281,-0.6123,-0.5726,-0.5447,-0.5432,-0.5349,-0.5678,-0.5697,-0.5503,-0.569,-0.5967,-0.6284,0.0,0.0,0.0,-0.9402,-1.0628,-1.1763,-1.3952,-1.2842,-0.739,-0.8861,-0.8169,-0.4455,-0.5362,-0.5718,-0.5461,-0.6082,-0.6376,-0.6531,-0.6556,-0.6586,-0.6621,-0.6632,-0.6586,-0.6496,-0.6068,-0.6259,-0.6461,-0.5248,-0.4659,-0.4689,-0.3924,-0.3958,-0.4193,-0.4881,-0.5541,-0.6182,-0.6802,-0.6431,-0.5998,-0.5396,-0.5115,-0.5225,-0.5917,-0.6575,-0.7383,-0.8584,-1.1753,-1.4238,-1.4597,-1.4743,-1.4214,-1.2515,-1.1437,-1.0312,-0.9522,-0.8844,-0.8405,-0.8802,-0.8499,-0.836,-0.8199,-0.8196,-0.7982,-0.789,-0.8371,-0.8234,-0.758,-0.7815,-0.758,-0.6957,-0.5784,-0.5496,-0.5963,-0.5211,-0.5206,-0.5688,-0.6074,-0.6382,-0.6548,-0.6523,-0.6564,-0.6632,-0.6591,-0.6591,-0.6605,-0.6564,-0.6512,-0.6469,-0.6502,-0.6512,-0.651,-0.6493,-0.6488,-0.6493,-0.6518,-0.6493,-0.6474,-0.6531,-0.6504,-0.6461,-0.6461,-0.6485,-0.6491,-0.6422,-0.6292,-0.6164,-0.6079,-0.5647,-0.5388,-0.5905,-0.5498,-0.5391,-0.5866,-0.5845,-0.576,-0.5657,-0.5149,0.0,-0.6686,-0.771,-0.9467,-1.1918,-1.5421,-1.4492,-0.8184,-0.8965,-0.8087,-0.471,-0.5475,-0.5828,-0.5511,-0.6148,-0.6401,-0.6463,-0.6564,-0.6591,-0.6553,-0.6575,-0.654,-0.6461,-0.6057,-0.6068,-0.6488,-0.5271,-0.4892,-0.4935,-0.4152,-0.3974,-0.4422,-0.4886,-0.5541,-0.6395,-0.6906,-0.6599,-0.5951,-0.4842,-0.4346,-0.378,-0.3386,-0.5013,-0.6403,-0.6289,-0.836,-1.0423,-1.2497,-1.2689,-1.264,-1.232,-0.8682,-0.7147,-0.9324,-0.7608,-0.6592,-0.7058,-0.7049,-0.6406,-0.4766,-0.4573,-0.4549,-0.45,-0.5398,-0.5538,-0.5066,-0.5547,-0.592,-0.6044,-0.5376,-0.5467,-0.609,-0.5527,-0.5592,-0.6289,-0.6409,-0.6496,-0.6559,-0.6613,-0.6635,-0.6635,-0.6635,-0.66,-0.6553,-0.6551,-0.6512,-0.6482,-0.6597,-0.6635,-0.6621,-0.6567,-0.6551,-0.6537,-0.648,-0.6463,-0.6461,-0.6463,-0.6463,-0.6461,-0.6461,-0.6401,-0.6333,-0.6292,-0.6232,-0.6188,-0.6185,-0.6087,-0.5879,-0.5471,-0.5649,-0.5707,-0.5316,-0.5061,-0.5065,-0.4753,-0.406,-0.3941,-0.4808,-0.7464,-0.8869,-0.8177,-1.2858,-1.4607,-1.2525,-0.7401,-0.4859,-0.5182,-0.5367,-0.5369,-0.5372,-0.6027,-0.6401,-0.6463,-0.6523,-0.6553,-0.6551,-0.6491,-0.6463,-0.6461,-0.6461,-0.6496,-0.6551,-0.6551,-0.5967,-0.4982,-0.5027,-0.5046,-0.5054,-0.5099,-0.5754,-0.6818,-0.4874,-0.4565,-0.405,-0.3721,-0.3563,-0.3386,-0.3189,-0.3812,-0.4227,-0.4202,-0.6024,-0.7644,-0.8218,-0.9815,-0.9977,-0.8303,-0.6979,-0.6019,-0.5217,-0.4604,-0.4188,-0.4361,-0.4333,-0.4279,-0.4007,-0.4006,-0.4176,-0.4508,-0.5309,-0.5639,-0.5412,-0.5541,-0.5368,-0.4905,-0.442,-0.4683,-0.5151,-0.5029,-0.531,-0.6004,-0.6243,-0.6521,-0.6611,-0.663,-0.6635,-0.6632,-0.6591,-0.6567,-0.6545,-0.6504,-0.6477,-0.6469,-0.6504,-0.6518,-0.6512,-0.6496,-0.6491,-0.6485,-0.6466,-0.6491,-0.6523,-0.6523,-0.6493,-0.6472,-0.6512,-0.6439,-0.6322,-0.6183,-0.6139,-0.6115,-0.6076,-0.6006,-0.5997,-0.5942,-0.5821,-0.5929,-0.5839,-0.5564,-0.5678,-0.5686,-0.5364,-0.5399,-0.5773,-0.6917,-0.8244,-0.9437,-0.9252,-0.9179,-0.8888,-0.8896,-0.7678,-0.4916,-0.5621,-0.5932,-0.5609,-0.6264,-0.6482,-0.6463,-0.6561,-0.6589,-0.6551,-0.6531,-0.6523,-0.6526,-0.6564,-0.6591,-0.6608,-0.6198,-0.5816,-0.5655,-0.5251,-0.5277,-0.5733,-0.5749,-0.6157,-0.676,-0.4514,-0.4156,-0.3778,-0.3755,-0.3384,-0.32,-0.3388,-0.3412,-0.3227,-0.3216,-0.4429,-0.5242,-0.5242,-0.6447,-0.7032,-0.6393,-0.5623,-0.464,-0.323,-0.3213,-0.32,-0.3189,-0.317,-0.3333,-0.3474,-0.3472,-0.3653,-0.4011,-0.4608,-0.4894,-0.4724,-0.4682,-0.477,-0.4586,-0.4063,-0.4467,-0.5236,-0.5105,-0.5386,-0.6088,-0.6293,-0.6564,-0.6668,-0.6643,-0.6621,-0.66,-0.6564,-0.6537,-0.6512,-0.6474,-0.6461,-0.6466,-0.6488,-0.6463,-0.6436,-0.6482,-0.6496,-0.6499,-0.6521,-0.6523,-0.6518,-0.6518,-0.6472,-0.6431,-0.6447,-0.639,-0.6292,-0.6131,-0.6098,-0.6087,-0.6052,-0.5997,-0.5987,-0.6082,-0.6,-0.5943,-0.6006,-0.5929,-0.5883,-0.5742,-0.5715,-0.5739,-0.5853,-0.6311,-0.7096,-0.8542,-0.7194,-0.6522,-0.6994,-0.8146,-0.7808,-0.5461,-0.6182,-0.6293,-0.5957,-0.6333,-0.651,-0.6496,-0.6591,-0.6619,-0.6583,-0.6583,-0.6583,-0.6586,-0.6621,-0.6649,-0.667,-0.6254,-0.6081,-0.5919,-0.5497,-0.5715,-0.594,-0.594,-0.6338,-0.715,-0.5504,-0.5147,-0.4778,-0.4776,-0.4009,-0.3418,-0.3987,-0.3612,-0.3221,-0.3194,-0.3215,-0.323,-0.323,-0.323,-0.4035,-0.6045,-0.4438,-0.323,-0.323,-0.323,-0.3219,-0.3193,-0.3191,-0.3178,-0.3146,-0.3146,-0.3145,-0.3142,-0.3504,-0.3665,-0.325,-0.3663,-0.4086,-0.4712,-0.4125,-0.4936,-0.6371,-0.5774,-0.6037,-0.6545,-0.6551,-0.6616,-0.6709,-0.6651,-0.6597,-0.6551,-0.6548,-0.651,-0.6461,-0.6461,-0.6461,-0.6472,-0.6523,-0.6461,-0.6395,-0.6515,-0.6545,-0.6551,-0.6608,-0.6545,-0.6461,-0.6461,-0.642,-0.636,-0.6289,-0.6278,-0.6245,-0.6128,-0.6104,-0.6104,-0.6104,-0.606,-0.6041,-0.609,-0.6006,-0.5954,-0.6006,-0.5965,-0.5686,-0.5169,-0.5157,-0.5201,-0.5308,-0.5317,-0.5626,-0.6322,-0.6341,-0.6368,-0.6433,-0.5735,-0.5732,-0.6458,-0.6461,-0.6461,-0.6461,-0.6461,-0.6493,-0.6553,-0.6605,-0.6632,-0.6635,-0.664,-0.6643,-0.6649,-0.6649,-0.6684,-0.6739,-0.6736,-0.6346,-0.5969,-0.5969,-0.5938,-0.589,-0.589,-0.6725,-0.7767,-0.4962,-0.497,-0.477,-0.4733,-0.4567,-0.4391,-0.3984,-0.3814,-0.3632,-0.3221,-0.3225,-0.323,-0.323,-0.323,-0.3431,-0.3833,-0.3431,-0.323,-0.323,-0.323,-0.3227,-0.322,-0.322,-0.3206,-0.3178,-0.3178,-0.3363,-0.373,-0.3917,-0.4104,-0.4485,-0.4104,-0.4113,-0.4712,-0.4747,-0.4966,-0.5774,-0.5616,-0.6052,-0.6488,-0.6534,-0.657,-0.6591,-0.6578,-0.6564,-0.6545,-0.6499,-0.6474,-0.6461,-0.6461,-0.6461,-0.6455,-0.6422,-0.6393,-0.6395,-0.6515,-0.6485,-0.6425,-0.6485,-0.6482,-0.6461,-0.6461,-0.645,-0.6401,-0.6245,-0.6245,-0.6259,-0.6183,-0.6166,-0.6166,-0.6166,-0.6155,-0.6136,-0.6104,-0.6074,-0.6046,-0.6016,-0.6,-0.5992,-0.5805,-0.5845,-0.5919,-0.6037,-0.6048,-0.6202,-0.6106,-0.6055,-0.6074,-0.6177,-0.5924,-0.6003,-0.6452,-0.6461,-0.6461,-0.6461,-0.6461,-0.6493,-0.6551,-0.6564,-0.6594,-0.6638,-0.6684,-0.673,-0.6774,-0.6774,-0.6809,-0.6861,-0.6815,-0.6804,-0.6605,-0.6605,-0.6571,-0.6518,-0.6518,-0.6907,-0.7698,-0.5614,-0.5614,-0.5404,-0.5178,-0.4994,-0.481,-0.4808,-0.4427,-0.4038,-0.3836,-0.3635,-0.3635,-0.3635,-0.3849,-0.3859,-0.3658,-0.344,-0.323,-0.323,-0.323,-0.323,-0.323,-0.323,-0.3223,-0.3208,-0.3408,-0.3799,-0.4376,-0.4376,-0.4575,-0.4774,-0.4376,-0.4585,-0.5204,-0.5209,-0.5423,-0.605,-0.6055,-0.6275,-0.6507,-0.654,-0.6551,-0.6551,-0.6551,-0.6534,-0.6507,-0.6474,-0.648,-0.6499,-0.6472,-0.648,-0.6493,-0.6431,-0.6393,-0.639,-0.6482,-0.6463,-0.6431,-0.6518,-0.6502,-0.6455,-0.6428,-0.642,-0.6393,-0.6294,-0.6297,-0.6305,-0.6243,-0.6229,-0.6229,-0.6229,-0.6229,-0.6218,-0.6185,-0.609,-0.6036,-0.6087,-0.6,-0.5981,-0.6123,-0.6194,-0.6267,-0.6363,-0.6395,-0.6357,-0.6229,-0.6213,-0.6226,-0.6262,-0.6262,-0.6335,-0.6499,-0.6477,-0.6461,-0.6461,-0.6515,-0.6559,-0.6591,-0.6646,-0.6676,-0.6679,-0.6741,-0.6788,-0.682,-0.6848,-0.6861,-0.6867,-0.6861,-0.6842,-0.6818,-0.6818,-0.6779,-0.6512,-0.5859,-0.6457,-0.767,-0.6063,-0.6063,-0.5861,-0.5657,-0.5253,-0.5251,-0.5654,-0.4845,-0.4442,-0.4847,-0.4449,-0.4047,-0.4047,-0.469,-0.4716,-0.4308,-0.3665,-0.3446,-0.3447,-0.3243,-0.3243,-0.3243,-0.3243,-0.3447,-0.3447,-0.4055,-0.4462,-0.4868,-0.4868,-0.507,-0.507,-0.507,-0.5291,-0.573,-0.5888,-0.6091,-0.6534,-0.6482,-0.6491,-0.6537,-0.6537,-0.6537,-0.6537,-0.6537,-0.6507,-0.6463,-0.6472,-0.6507,-0.6545,-0.6493,-0.651,-0.654,-0.6469,-0.6412,-0.6382,-0.6433,-0.6447,-0.6472,-0.6581,-0.6531,-0.6436,-0.6384,-0.6371,-0.6371,-0.6371,-0.6371,-0.6357,-0.6305,-0.6294,-0.6294,-0.6294,-0.6294,-0.6278,-0.6234,-0.6085,-0.6016,-0.6131,-0.6006,-0.5976,-0.6177,-0.6256,-0.6313,-0.6365,-0.6425,-0.6466,-0.6474,-0.6515,-0.6523,-0.6491,-0.6521,-0.6542,-0.6551,-0.6493,-0.6466,-0.6474,-0.6575,-0.6632,-0.6651,-0.6755,-0.6782,-0.6741,-0.6793,-0.6823,-0.6834,-0.6878,-0.6872,-0.6834,-0.6878,-0.6864,-0.6818,-0.6818,-0.6779,-0.651,-0.5202,-0.6221,-0.7867,-0.3635,-0.3635,-0.4242,-0.6063,-0.6262,-0.6262,-0.6264,-0.5856,-0.5248,-0.4847,-0.4878,-0.4696,-0.4696,-0.4941,-0.4968,-0.4968,-0.4755,-0.4547,-0.4134,-0.3514,-0.3307,-0.3307,-0.372,-0.4135,-0.4135,-0.496,-0.5579,-0.5579,-0.5579,-0.5785,-0.6402,-0.5785,-0.5974,-0.6346,-0.6338,-0.6515,-0.6474,-0.6466,-0.6466,-0.6474,-0.6474,-0.6474,-0.6474,-0.6474,-0.6469,-0.6469,-0.6518,-0.6545,-0.6551,-0.654,-0.6545,-0.6531,-0.642,-0.6379,-0.6373,-0.6382,-0.6384,-0.6401,-0.6469,-0.6439,-0.6382,-0.6373,-0.6371,-0.6371,-0.6371,-0.6371,-0.6368,-0.636,-0.6357,-0.6357,-0.6357,-0.6357,-0.6273,-0.6019,-0.6117,-0.6164,-0.5989,-0.6106,-0.6224,-0.6262,-0.6319,-0.636,-0.6371,-0.6425,-0.6482,-0.6534,-0.6499,-0.6515,-0.6605,-0.6523,-0.6499,-0.6551,-0.6493,-0.6485,-0.6537,-0.6556,-0.6616,-0.6714,-0.673,-0.6763,-0.6804,-0.6815,-0.6845,-0.6891,-0.685,-0.6856,-0.6891,-0.685,-0.6826,-0.6818,-0.6818,-0.6779,-0.6719,-0.6867,-0.7466,-0.8067,-0.1414,-0.1413,-0.1816,-0.2826,-0.4036,-0.5049,-0.6267,-0.6264,-0.607,-0.5697,-0.5106,-0.5128,-0.5773,-0.5823,-0.5643,-0.5435,-0.5671,-0.5687,-0.5266,-0.459,-0.4151,-0.4151,-0.4565,-0.4773,-0.4982,-0.5604,-0.6016,-0.6224,-0.6195,-0.6386,-0.6589,-0.6354,-0.6325,-0.6504,-0.6504,-0.6488,-0.6461,-0.6461,-0.6461,-0.6461,-0.6461,-0.6461,-0.6461,-0.6461,-0.6482,-0.6512,-0.6542,-0.6591,-0.6638,-0.6572,-0.6572,-0.657,-0.642,-0.6393,-0.6414,-0.6382,-0.6393,-0.6425,-0.6452,-0.6442,-0.642,-0.642,-0.642,-0.642,-0.642,-0.642,-0.642,-0.642,-0.642,-0.642,-0.642,-0.642,-0.6373,-0.6234,-0.6196,-0.6177,-0.6166,-0.6147,-0.6172,-0.6267,-0.6363,-0.642,-0.642,-0.6502,-0.6567,-0.6594,-0.657,-0.6564,-0.6589,-0.654,-0.6523,-0.6551,-0.6526,-0.6553,-0.6646,-0.6646,-0.669,-0.6777,-0.6777,-0.679,-0.6818,-0.6818,-0.6834,-0.6858,-0.6864,-0.6864,-0.6861,-0.6864,-0.6867,-0.6864,-0.7255,-0.7246,-0.7234,-0.6679,-0.746,-0.8063,0.0,0.0,0.0,0.0,-0.1413,-0.303,-0.4659,-0.5473,-0.5695,-0.575,-0.4941,-0.4753,-0.562,-0.5878,-0.5696,-0.5062,-0.6162,-0.64,-0.5541,-0.547,-0.5219,-0.5011,-0.5011,-0.5428,-0.6056,-0.6056,-0.6257,-0.666,-0.6616,-0.6589,-0.6572,-0.6526,-0.6496,-0.6482,-0.6482,-0.6474,-0.6461,-0.6461,-0.6463,-0.6463,-0.6463,-0.6463,-0.6463,-0.6477,-0.6512,-0.6556,-0.6583,-0.6643,-0.6695,-0.6605,-0.6594,-0.6591,-0.6442,-0.6425,-0.6452,-0.6406,-0.6425,-0.6461,-0.6461,-0.6461,-0.6461,-0.6461,-0.6461,-0.6461,-0.6461,-0.6461,-0.6461,-0.6461,-0.6461,-0.6461,-0.6461,-0.6461,-0.6442,-0.6387,-0.6281,-0.6232,-0.6316,-0.6229,-0.621,-0.6346,-0.6444,-0.6502,-0.6502,-0.6583,-0.664,-0.6657,-0.6632,-0.6602,-0.6572,-0.6559,-0.6564,-0.6591,-0.6578,-0.6621,-0.6725,-0.6728,-0.6758,-0.6818,-0.6818,-0.6818,-0.6818,-0.6818,-0.6818,-0.682,-0.6883,-0.6875,-0.6823,-0.6883,-0.6899,-0.6883,-0.726,-0.7699,-0.7506,-0.6272,-0.6836,-0.7644,0.0,0.0,0.0,0.0,-0.0202,-0.0202,-0.0408,-0.2249,-0.3489,-0.3521,-0.334,-0.3358,-0.3359,-0.3599,-0.3618,-0.3618,-0.5541,-0.5969,-0.3834,-0.5534,-0.6172,-0.5105,-0.5532,-0.5957,-0.6804,-0.6809,-0.6782,-0.6728,-0.6722,-0.6695,-0.6643,-0.6638,-0.6605,-0.6545,-0.6545,-0.6515,-0.6461,-0.6461,-0.6463,-0.6469,-0.6469,-0.6469,-0.6474,-0.6526,-0.6548,-0.6567,-0.6681,-0.669,-0.6649,-0.6853,-0.6605,-0.6548,-0.6482,-0.6461,-0.6461,-0.6455,-0.6458,-0.6461,-0.6461,-0.6461,-0.6461,-0.6461,-0.6461,-0.6461,-0.6461,-0.6461,-0.6461,-0.6461,-0.6461,-0.6461,-0.6461,-0.6461,-0.6387,-0.6161,-0.6346,-0.6444,-0.6232,-0.6425,-0.6594,-0.6608,-0.6619,-0.6624,-0.6624,-0.6632,-0.666,-0.6717,-0.6619,-0.6581,-0.6627,-0.6581,-0.6602,-0.6711,-0.666,-0.6662,-0.6725,-0.6728,-0.6758,-0.6818,-0.6818,-0.6818,-0.6818,-0.6818,-0.6818,-0.682,-0.6883,-0.6875,-0.6823,-0.6883,-0.6875,-0.6823,-0.682,-0.7246,-0.7444,-0.5634,-0.5593,-0.5577,0.0,0.0,0.0,0.0,0.0,0.0,0.0,-0.0617,-0.1244,-0.1255,-0.126,-0.1264,-0.1271,-0.1276,-0.1278,-0.1278,-0.4691,-0.5758,-0.3621,-0.4263,-0.5117,-0.6182,-0.6397,-0.5756,-0.4685,-0.615,-0.6123,-0.4625,-0.4785,-0.4749,-0.4528,-0.4504,-0.4481,-0.4466,-0.589,-0.6488,-0.6466,-0.5047,-0.4442,-0.4444,-0.4444,-0.4459,-0.4483,-0.4498,-0.5361,-0.667,-0.6717,-0.5876,-0.4599,-0.4785,-0.4745,-0.4906,-0.608,-0.5657,-0.4643,-0.606,-0.6466,-0.6466,-0.6466,-0.6463,-0.6461,-0.6461,-0.6461,-0.6461,-0.6461,-0.6461,-0.6461,-0.6461,-0.6461,-0.6461,-0.6461,-0.6493,-0.6488,-0.6395,-0.6507,-0.6572,-0.648,-0.6564,-0.6635,-0.6635,-0.667,-0.6692,-0.6692,-0.6728,-0.6744,-0.6728,-0.6651,-0.6597,-0.6586,-0.6597,-0.664,-0.6725,-0.7159,-0.739,-0.7417,-0.6994,-0.7005,-0.7456,-0.703,-0.6818,-0.6818,-0.6818,-0.6818,-0.682,-0.6842,-0.6861,-0.6875,-0.6899,-0.7131,-0.7356,-0.7745,-0.8372,-0.8569,-0.6728,-0.6244,-0.579,0.0,0.0,0.0,0.0,0.0,0.0,0.0,0.0,0.0,0.0,0.0,0.0,0.0,0.0,0.0,0.0,-0.3412,-0.4693,-0.2556,-0.2985,-0.4052,-0.5756,-0.6397,-0.5749,-0.3395,-0.4221,-0.4614,-0.438,-0.3089,-0.2249,-0.2242,-0.2228,-0.2221,-0.2221,-0.3836,-0.5253,-0.6469,-0.4847,-0.3433,-0.2221,-0.2228,-0.2239,-0.2253,-0.2266,-0.3121,-0.4629,-0.6123,-0.5685,-0.4185,-0.2912,-0.2265,-0.2646,-0.4859,-0.404,-0.2624,-0.4847,-0.5455,-0.5455,-0.5455,-0.5452,-0.5654,-0.6259,-0.6461,-0.6461,-0.6461,-0.6461,-0.6461,-0.6461,-0.6275,-0.6285,-0.669,-0.6741,-0.6578,-0.6786,-0.704,-0.7081,-0.6873,-0.7098,-0.7113,-0.7113,-0.715,-0.7176,-0.7176,-0.7217,-0.7226,-0.7179,-0.7118,-0.7063,-0.7023,-0.7058,-0.6901,-0.6963,-0.7217,-0.7453,-0.7665,-0.7243,-0.7243,-0.7453,-0.703,-0.6818,-0.6818,-0.6818,-0.6818,-0.6818,-0.705,-0.7072,-0.7098,-0.7137,-0.7382,-0.7834,-0.8216,-0.8197,-0.7963,-0.6127,-0.5017,-0.4152,0.0,0.0,0.0,0.0,0.0,0.0,0.0,0.0,0.0,0.0,0.0,0.0,0.0,0.0,0.0,0.0,-0.2132,-0.2345,-0.0213,-0.2131,-0.3411,-0.3408,-0.5545,-0.5735,-0.3363,-0.1052,-0.2295,-0.6763,-0.2252,0.0,0.0,0.0,0.0,0.0,0.0,-0.2422,-0.6469,-0.6469,-0.404,0.0,0.0,0.0,0.0,0.0,0.0,-0.0632,-0.5103,-0.6752,-0.6026,-0.1454,0.0,-0.0404,-0.2424,-0.1616,-0.0404,-0.2624,-0.323,-0.323,-0.323,-0.323,-0.3633,-0.5856,-0.6461,-0.6461,-0.6461,-0.6461,-0.6461,-0.6463,-0.6101,-0.6139,-0.7164,-0.7008,-0.6845,-0.7469,-0.7944,-0.8196,-0.7564,-0.8048,-0.8521,-0.8521,-0.8521,-0.8521,-0.8521,-0.8521,-0.8521,-0.8521,-0.845,-0.8406,-0.8409,-0.7983,-0.7595,-0.7662,-0.703,-0.703,-0.7665,-0.7665,-0.7453,-0.6818,-0.6818,-0.6818,-0.6818,-0.6818,-0.6818,-0.682,-0.7524,-0.7729,-0.7677,-0.7812,-0.7828,-0.7769,-0.7769,-0.6689,-0.4951,-0.3171,-0.147,0.0419,0.0,0.0,0.0,0.0,0.0,0.0,0.0,0.0,0.0,0.0,0.0,0.0,0.0,0.0,0.0,0.0,-0.0639,-0.0639,-0.0,-0.0636,-0.1056,-0.1056,-0.1691,-0.1689,-0.1052,-0.0416,-0.0618,-0.2049,-0.0611,0.0,0.0,0.0,0.0,0.0,0.0,-0.0808,-0.202,-0.2034,-0.1224,0.0,0.0,0.0,0.0,0.0,0.0,-0.0212,-0.1481,-0.2097,-0.1867,-0.0412,0.0,-0.0202,-0.0808,-0.0606,-0.0404,-0.2626,-0.3232,-0.303,-0.2222,-0.2626,-0.3434,-0.4038,-0.5049,-0.5657,-0.5657,-0.5452,-0.5464,-0.5704,-0.5313,-0.533,-0.5572,-0.562,-0.5446,-0.5655,-0.5909,-0.6367,-0.7002,-0.7231,-0.7243,-0.7243,-0.8096,-0.8096,-0.7456,-0.8096,-0.8498,-0.8447,-0.8372,-0.814,-0.7774,-0.7774,-0.7384,-0.7027,-0.724,-0.724,-0.703,-0.703,-0.7243,-0.7453,-0.703,-0.6818,-0.6818,-0.7243,-0.7453,-0.7456,-0.8116,-0.7497,-0.6019,-0.7778,-0.7376,-0.6093,-0.5871,-0.585,-0.5172,-0.0642,0.1061,0.1678,0.3075,0.268,0.2692,0.2707,0.2731,0.2747,0.2747,0.1061,0.0639,0.2554,0.1065,0.0,0.0,0.0,0.0,0.0,0.2557,0.2983,0.0213,0.0,0.1472,0.5052,0.1881,0.0,0.0,0.3296,0.3476,-0.0,-0.0405,0.1413,0.5051,0.2827,0.1817,0.1815,0.1816,0.2022,0.203,0.2042,0.205,0.2059,0.2078,0.0837,-0.0631,-0.0634,-0.0637,-0.0639,-0.0633,-0.0419,0.0,0.0,-0.0611,-0.1212,-0.0202,0.0,-0.0404,-0.2626,-0.3234,-0.2626,-0.0404,-0.0202,-0.0606,0.0,-0.222,-0.4649,-0.4872,-0.4874,-0.4886,-0.4933,-0.4749,-0.4767,-0.5209,-0.5253,-0.5074,-0.5283,-0.5519,-0.5964,-0.639,-0.6602,-0.6815,-0.6815,-0.7453,-0.7453,-0.6815,-0.7453,-0.8074,-0.8453,-0.8619,-0.8615,-0.8236,-0.7815,-0.7411,-0.724,-0.7243,-0.7243,-0.6818,-0.6818,-0.703,-0.7243,-0.703,-0.6818,-0.6818,-0.7453,-0.7665,-0.7665,-0.7665,-0.6834,-0.5581,-0.6029,-0.5199,-0.3929,-0.3491,-0.305,-0.1956,0.1727,0.3209,0.4027,0.8073,0.7304,0.7345,0.7351,0.7405,0.7444,0.7444,0.3826,0.2551,0.6379,0.3618,0.1065,0.0638,0.0639,0.0639,0.0426,0.6184,0.7252,0.149,0.0844,0.3985,1.1782,0.4541,0.0205,-0.0205,0.7575,0.775,0.0404,-0.1009,0.2824,1.1349,0.7279,0.5047,0.4638,0.5045,0.5275,0.5528,0.5531,0.5561,0.5607,0.5029,0.2524,-0.1263,-0.1698,-0.1917,-0.1914,-0.1686,-0.1045,-0.0207,0.0205,-0.0814,-0.2222,-0.0808,0.0,-0.0,-0.2424,-0.2828,-0.1616,0.2019,0.3231,0.3638,0.4845,0.1414,-0.2635,-0.3679,-0.4096,-0.4313,-0.394,-0.3765,-0.4209,-0.547,-0.5298,-0.5115,-0.5751,-0.5962,-0.5959,-0.5749,-0.5959,-0.6384,-0.6384,-0.66,-0.6812,-0.6812,-0.6812,-0.7237,-0.8087,-0.8734,-0.9162,-0.9371,-0.8306,-0.7668,-0.7665,-0.703,-0.6818,-0.6818,-0.6818,-0.6818,-0.6818,-0.6818,-0.6818,-0.703,-0.7456,-0.7665,-0.7665,-0.6382,-0.5742,-0.5322,-0.3218,-0.1946,-0.109,-0.0654,0.1314,0.3527,0.39,0.5385,0.7101,1.2137,1.1977,1.203,1.2113,1.2147,1.2161,1.2161,1.1303,0.98,0.7231,0.8946,0.9375,0.574,0.5315,0.4892,0.4042,0.5324,0.7011,0.8868,0.6478,0.5384,0.6581,0.4681,0.2226,-0.1215,-0.0202,0.1416,0.3833,0.0202,-0.101,0.0404,0.6875,0.7512,0.3674,0.7146,0.8829,0.8914,0.8972,0.9009,0.8821,0.5292,0.3185,0.1911,-0.1704,-0.2972,-0.295,-0.2924,-0.2691,-0.1847,0.2439,0.3439,0.2422,-0.1413,0.0403,0.3025,-0.0808,0.0605,0.3024,0.121,0.2838,0.4892,0.4074,0.3893,0.3085,0.0614,-0.0411,-0.0829,-0.0209,-0.063,-0.1475,-0.3608,-0.3832,-0.3837,-0.3837,-0.2555,-0.1702,-0.2551,-0.2764,-0.2763,-0.2763,-0.5747,-0.7246,-0.5967,-0.6392,-0.6602,-0.5962,-0.8312,-0.9811,-0.9162,-0.8312,-0.7884,-0.7665,-0.703,-0.6818,-0.6818,-0.6818,-0.703,-0.7453,-0.7453,-0.7668,-0.8096,-0.7881,-0.7665,-0.7665,-0.5101,-0.2974,-0.1275,-0.0851,0.0856,0.3024,0.3023,0.3474,0.437,0.7143,0.8193,0.8399,1.309,1.2906,1.2932,1.3418,1.3428,1.3216,1.364,1.3651,1.2787,1.0416,1.2151,1.2591,0.9788,0.9367,0.8734,0.7668,0.7426,0.8453,1.0744,0.935,0.7604,0.5719,0.4661,0.363,0.302,0.0202,0.0605,0.4036,0.3025,0.2222,0.1421,0.5487,0.5922,0.3705,0.6794,0.8283,0.8355,0.9655,0.9488,0.8467,0.595,0.4469,0.2977,-0.0424,-0.1055,-0.0419,-0.2486,-0.2459,-0.0609,0.2828,0.4438,0.4843,0.3428,0.3225,0.3224,0.2017,0.3428,0.5045,0.3647,0.4683,0.6137,0.637,0.642,0.5412,0.29,0.2078,0.1672,0.2109,0.1057,-0.0,-0.0213,-0.1065,-0.1491,-0.0426,0.0213,0.0213,-0.0213,0.0213,-0.0,-0.2341,-0.4473,-0.5328,-0.3837,-0.4689,-0.4687,-0.362,-0.4687,-0.5754,-0.6815,-0.7246,-0.7462,-0.7243,-0.703,-0.6818,-0.6818,-0.6818,-0.6818,-0.6815,-0.6818,-0.7243,-0.7668,-0.7027,-0.6384,-0.5105,-0.2762,-0.0425,0.17,0.276,0.4272,0.6036,0.6248,0.6497,0.6978,0.9086,0.9679,0.9424,1.253,1.2334,1.2122,1.318,1.2968,1.2752,1.3153,1.3391,1.3396,1.3337,1.319,1.2999,1.251,1.1887,1.1258,1.0407,1.0122,1.0069,1.0061,1.0535,0.9816,0.7134,0.5062,0.504,0.7851,0.4035,0.2628,0.3843,0.5654,0.6288,0.5937,0.4504,0.3704,0.3942,0.6226,0.6884,0.6938,0.9049,0.9086,0.7441,0.7016,0.5735,0.3816,0.1474,0.1677,0.2712,-0.0823,-0.061,0.1612,0.3224,0.4634,0.6047,0.8884,0.6858,0.3625,0.5038,0.5853,0.6275,0.6526,0.6962,0.761,0.9537,0.857,0.673,0.505,0.4209,0.4006,0.4034,0.2552,0.1702,0.3189,0.1914,0.1277,0.3189,0.2552,0.2129,0.2129,0.3195,0.2769,-0.1065,-0.2556,-0.277,-0.1705,-0.2772,-0.2772,-0.1491,-0.0639,-0.1278,-0.3831,-0.5541,-0.6397,-0.6605,-0.6818,-0.6605,-0.6605,-0.6605,-0.639,-0.5322,-0.5541,-0.6179,-0.6818,-0.6177,-0.4682,-0.2338,-0.0212,0.1912,0.4248,0.6382,0.7696,0.8181,0.8607,0.9302,0.9802,1.018,1.0318,1.024,1.1906,1.1911,1.1911,1.2122,1.2122,1.2088,1.1996,1.2064,1.2055,1.1866,1.2011,1.2059,1.1658,1.1226,1.0812,1.0812,1.0186,1.0145,1.0475,1.0648,1.0388,0.9899,0.7861,0.6648,0.6648,0.6093,0.6116,0.693,0.4892,0.3893,0.3929,0.5581,0.5194,0.3562,0.7752,0.8633,0.7005,0.9133,0.9992,0.9576,0.7656,0.656,0.6093,0.378,0.2911,0.3075,0.2454,0.264,0.3223,0.5439,0.6246,0.6651,0.9082,0.9279,0.8263,0.6047,0.73,0.8778,0.7149,0.8063,0.9627,1.0061,0.992,0.9557,0.9345,0.7855,0.6369,0.6377,0.6167,0.5315,0.3614,0.3189,0.2976,0.3401,0.489,0.5955,0.5955,0.6592,0.6801,0.6374,0.1488,-0.1915,-0.1702,-0.2769,-0.2558,-0.0426,-0.1066,-0.1705,-0.213,-0.3837,-0.5117,-0.6177,-0.6605,-0.6392,-0.5328,-0.6392,-0.5534,-0.2976,-0.4045,-0.5324,-0.6812,-0.5751,-0.4045,-0.17,0.1488,0.4251,0.6589,0.8724,0.9796,0.9807,1.002,1.0076,1.0379,1.0445,1.0412,1.0334,1.1327,1.1154,1.1172,1.1535,1.1573,1.1363,1.1678,1.1701,1.1697,1.1601,1.1673,1.1489,1.1189,1.0566,1.0359,1.0359,1.0111,0.9861,1.0228,1.0172,0.9516,0.8263,0.749,0.6702,0.6499,0.6559,0.7429,0.8921,0.7638,0.6412,0.5215,0.6259,0.545,0.3594,0.6766,0.7628,0.7016,0.9148,0.9364,0.8296,0.7228,0.6769,0.6499,0.4175,0.4753,0.6942,0.6907,0.6065,0.5439,0.7455,0.8263,0.8467,0.948,0.9681,0.9488,0.8319,0.8764,0.9632,0.8693,0.9392,1.0094,1.0143,1.0187,1.0216,1.0216,0.936,0.872,0.872,0.7656,0.6804,0.7228,0.6165,0.574,0.7016,0.8083,0.8727,0.8727,0.8943,0.9375,1.002,0.7668,0.4896,0.2341,0.1064,0.0852,0.1917,-0.0426,-0.1278,-0.0213,-0.2557,-0.4478,-0.5539,-0.5754,-0.5541,-0.5115,-0.4256,-0.2977,-0.1064,-0.1703,-0.1915,-0.2124,-0.2128,-0.0213,0.3186,0.4676,0.6592,0.872,0.9788,1.0216,1.0216,1.0216,1.0273,1.0359,1.04,1.042,1.0424]}]]